GFSMW_sfc_rhum_000.txt.gz
RH
15 16 16 17 20 25 28 29 31 38 44 51 56 57 57 54 54 55 54 54 53 54 57 57 55 55 54 53 53 55 58 55 55 59 56 52 49 49 48 43 38 35 35
12 12 14 17 18 20 26 31 32 34 39 43 49 48 45 48 50 54 57 58 57 56 58 59 59 57 59 58 56 57 59 58 54 63 66 72 50 46 46 44 42 39 34
15 14 15 18 24 26 25 26 30 32 35 44 44 48 48 54 57 55 58 61 59 59 61 62 61 60 60 62 61 60 65 65 60 61 64 69 65 53 42 44 39 37 38
17 17 19 21 24 26 29 30 30 32 33 38 44 49 52 54 46 46 51 57 60 60 61 63 62 62 62 64 63 61 63 67 71 69 61 66 59 65 62 50 49 44 42
22 22 24 24 24 32 34 32 28 28 30 33 42 45 50 44 42 41 48 50 54 60 61 63 65 64 62 62 62 63 65 62 73 75 72 67 68 67 75 72 62 51 48
23 22 24 24 26 31 34 36 32 29 31 34 35 44 47 46 44 47 50 51 51 54 61 61 62 63 64 65 64 65 67 70 71 74 74 74 68 72 71 72 67 62 54
24 24 25 26 28 31 32 29 29 30 37 43 44 42 45 48 50 48 47 50 51 55 59 61 61 60 62 63 63 65 74 79 81 76 76 74 72 64 62 62 62 61 52
24 26 26 29 29 32 31 29 28 28 30 38 45 47 50 52 50 49 49 48 48 49 52 55 56 55 56 60 62 67 70 75 81 80 77 76 72 65 63 64 68 75 66
26 26 26 30 31 33 33 32 29 29 30 30 32 37 43 50 53 51 50 50 51 51 51 55 57 56 55 56 60 64 67 67 70 77 78 77 73 68 66 64 66 76 80
27 26 28 33 33 33 32 33 31 32 32 30 30 32 33 35 41 44 48 49 49 50 51 55 56 58 57 57 59 63 64 68 72 75 76 77 76 76 70 73 71 70 78
31 32 33 33 35 35 36 35 35 35 36 34 32 32 33 34 35 37 38 41 41 43 47 48 52 54 56 56 60 61 64 68 70 74 76 76 73 76 74 78 79 81 83
36 36 36 36 36 36 36 35 36 35 35 36 35 35 34 34 33 33 35 36 38 39 41 44 48 51 54 56 58 63 67 67 72 74 75 75 74 77 75 80 83 84 81
42 39 37 37 36 36 34 34 34 37 36 35 35 34 36 37 36 35 33 32 34 37 40 44 49 52 54 57 59 60 62 62 66 70 76 72 73 76 79 81 83 82 81
43 42 39 40 38 36 34 33 34 35 37 38 38 38 38 38 38 38 38 37 35 36 37 39 42 48 52 57 62 61 65 69 65 69 71 73 75 74 78 83 84 85 86
40 37 35 32 33 34 36 36 38 40 42 44 43 42 44 42 42 43 42 39 38 38 39 39 41 43 49 56 62 69 74 74 72 71 71 76 78 82 78 85 87 87 86
36 38 37 37 37 47 54 51 49 50 51 51 50 49 50 50 52 50 50 46 44 41 40 40 40 42 48 70 87 84 72 76 79 77 75 75 90 87 89 92 93 87 90
40 43 45 46 54 60 54 53 55 54 52 51 50 52 51 52 52 51 51 52 51 47 45 41 39 41 42 68 86 92 83 80 76 77 81 81 85 90 85 94 96 97 96
42 45 50 61 65 52 51 51 46 46 49 52 50 49 49 48 48 48 48 49 47 48 47 46 45 46 44 72 85 92 79 79 80 79 82 84 84 91 90 97 98 96 93
56 64 66 60 54 49 48 47 45 45 48 50 48 46 44 47 47 47 47 46 46 48 48 48 49 48 46 67 81 88 74 86 85 83 86 87 87 88 97 98 98 88 81
67 65 62 60 55 47 44 46 47 47 48 49 50 46 44 46 45 45 47 46 46 48 49 51 49 55 50 61 79 83 72 82 84 92 89 94 90 94 97 94 90 92 84
64 57 54 51 46 41 38 39 41 40 39 38 36 40 37 36 34 39 43 46 48 50 49 49 48 52 55 55 79 87 77 79 82 89 96 95 99 97 96 91 85 87 83
59 51 51 48 43 40 40 39 39 37 38 37 38 35 32 33 33 33 37 43 46 49 49 49 54 54 55 68 70 84 89 89 94 92 87 96 97 96 95 90 88 86 85
55 49 48 43 39 37 34 33 30 31 34 35 33 31 28 29 30 28 29 40 42 41 41 49 58 63 65 62 74 76 86 83 93 96 96 96 96 95 94 91 91 88 82
44 45 39 33 30 25 26 25 26 28 32 32 30 29 26 30 30 28 26 30 32 42 45 50 58 68 74 71 67 66 69 79 87 97 96 95 96 93 89 92 91 82 77
39 38 32 28 26 26 26 24 26 28 32 31 30 30 29 29 33 30 26 28 31 47 59 61 60 66 75 76 83 86 85 84 87 93 97 98 98 98 98 93 84 83 72
37 32 31 28 27 28 29 28 28 31 32 32 33 34 35 31 35 29 25 43 58 68 69 74 75 60 69 78 86 91 93 95 96 95 98 98 96 97 94 90 89 78 69

GFSMW_sfc_rhum_003.txt.gz
RH
11 11 13 14 15 15 19 21 23 26 33 41 46 51 53 51 50 50 48 48 49 48 54 56 56 55 56 53 53 56 60 60 54 58 58 56 52 51 50 50 49 48 42
13 14 14 15 14 16 17 20 24 25 27 37 42 44 45 45 46 50 50 50 50 51 52 56 59 57 59 58 56 57 62 62 58 64 68 73 61 54 51 50 51 50 48
19 18 18 21 24 24 22 20 21 26 29 34 38 43 45 48 49 49 51 53 51 53 55 57 59 61 61 64 64 63 67 70 65 61 68 74 74 60 56 54 50 48 47
20 21 23 24 27 33 32 28 27 25 28 32 37 45 50 54 49 49 47 50 50 54 56 58 60 62 63 65 66 64 66 69 74 70 63 64 60 68 66 60 54 48 45
23 24 26 28 28 38 39 36 29 26 26 28 33 42 48 47 45 42 40 41 45 53 57 58 63 64 65 65 67 67 69 67 73 73 76 73 73 70 76 76 66 62 56
23 23 27 28 31 38 38 37 29 28 32 35 32 35 44 44 44 44 43 43 43 47 54 58 61 64 66 67 66 67 68 68 71 72 72 74 77 80 79 80 72 69 60
25 25 30 32 34 38 40 32 30 28 28 31 37 40 42 43 47 47 46 44 44 48 52 55 59 62 65 66 66 68 72 74 75 73 72 71 71 68 69 72 70 68 61
25 26 31 34 34 36 35 32 31 31 29 30 30 30 37 44 46 46 46 46 46 46 46 50 54 56 58 60 63 68 71 74 76 77 75 73 72 70 70 74 77 81 70
26 28 32 34 34 34 36 36 34 34 33 31 30 29 28 31 35 39 41 45 45 47 49 50 52 54 56 56 59 64 66 68 70 75 78 76 71 71 72 71 74 82 88
27 30 31 34 33 35 35 35 33 33 34 33 32 32 31 30 31 32 34 36 37 39 43 46 48 52 54 56 57 59 60 64 67 70 72 75 73 71 73 75 75 77 84
30 33 32 33 34 33 33 32 32 34 35 33 32 33 34 33 32 32 31 32 32 33 35 36 39 42 46 49 55 58 60 63 65 66 71 74 73 75 75 76 78 81 83
34 34 34 33 32 33 32 32 31 32 34 34 33 34 34 34 34 33 34 33 34 33 33 34 36 39 43 48 51 56 57 62 65 66 70 73 74 78 75 78 83 84 81
36 34 34 35 34 33 32 31 31 33 34 37 39 38 38 40 40 39 38 36 36 35 34 36 38 39 43 46 51 53 56 60 62 66 68 70 73 77 80 81 84 85 86
36 35 33 30 29 30 34 37 37 37 41 44 45 45 44 44 45 45 46 45 44 44 43 41 40 41 40 44 48 53 60 63 62 65 66 66 71 74 77 82 83 85 90
37 35 34 32 30 29 38 44 46 46 47 47 48 47 48 46 46 48 48 47 48 48 48 48 46 44 44 40 47 54 60 64 65 69 68 70 70 79 78 79 81 87 92
35 34 34 34 34 41 51 52 51 46 44 45 47 47 46 47 49 47 46 46 47 47 48 49 49 48 44 60 74 78 61 62 68 73 70 70 80 83 88 87 86 83 92
37 35 36 38 45 55 54 52 47 39 40 42 43 43 42 44 45 45 45 47 47 46 46 46 46 47 49 66 73 78 64 63 66 70 75 73 76 83 81 88 90 90 92
38 41 47 60 59 54 48 45 41 41 42 43 42 43 45 45 44 44 44 44 42 45 45 45 47 52 50 69 77 76 65 63 64 68 72 77 74 73 86 91 92 94 93
49 54 54 55 53 48 42 39 37 37 38 38 38 36 35 39 39 39 37 37 40 43 45 47 50 50 50 68 79 78 67 72 69 69 70 73 79 79 90 96 97 98 99
53 58 52 46 42 40 37 39 37 37 36 37 38 35 35 35 34 35 37 35 35 41 44 45 44 51 48 62 78 74 67 74 77 78 72 80 89 90 94 95 98 99 98
50 49 46 45 42 38 37 39 36 33 30 30 32 32 32 32 30 31 33 33 31 36 42 41 38 38 41 49 72 76 72 73 76 82 82 84 88 94 96 97 98 95 94
54 47 46 43 35 32 31 28 25 22 22 24 28 30 29 27 24 27 29 28 27 32 36 36 41 39 38 53 61 74 78 78 80 80 75 80 91 93 97 99 95 95 90
47 39 39 32 24 21 20 22 22 21 22 23 25 26 25 25 24 25 27 29 28 28 28 34 39 40 42 45 59 64 71 75 80 79 81 87 94 97 97 97 97 92 92
36 31 30 23 22 20 21 21 22 22 23 24 26 24 25 26 25 26 26 29 27 29 34 39 50 51 49 53 50 53 59 71 77 84 86 89 93 98 98 98 95 95 92
30 32 27 25 23 21 21 21 23 24 27 28 27 28 29 29 29 28 26 27 26 37 43 48 54 55 60 58 68 71 68 73 81 91 93 97 99 99 99 99 96 93 90
29 28 27 26 25 25 25 26 26 28 30 31 34 36 35 32 34 33 29 42 50 55 58 61 59 53 63 71 74 73 77 78 87 92 97 98 99 99 98 98 96 93 89

GFSMW_sfc_rhum_006.txt.gz
RH
20 21 23 24 23 24 29 33 35 43 49 60 67 74 71 74 72 66 62 61 58 58 60 63 65 68 67 64 65 70 74 74 80 84 84 82 75 73 67 70 69 63 61
25 26 28 35 37 38 36 34 33 37 46 54 61 65 68 66 64 66 62 60 60 61 61 64 67 68 70 70 66 68 75 74 83 79 92 86 82 71 64 60 57 58 58
32 34 36 41 49 53 50 43 41 39 41 49 59 64 67 73 75 68 69 68 65 65 67 65 67 70 70 73 73 69 74 78 82 70 74 90 89 89 76 66 60 60 75
34 37 40 44 50 55 56 49 42 39 37 45 56 63 70 76 73 71 69 69 68 65 65 67 69 70 72 74 74 73 71 70 75 76 67 65 73 80 84 79 71 63 56
36 40 44 44 50 56 56 52 45 42 41 40 44 55 68 69 71 70 66 66 65 64 66 68 70 71 72 71 74 73 72 70 75 75 74 76 76 75 80 82 72 69 62
36 39 43 45 51 56 54 51 44 42 42 49 54 56 57 59 62 66 68 67 65 68 73 72 72 72 73 75 76 76 77 77 77 74 74 77 82 83 83 85 82 77 65
38 42 48 51 52 54 53 45 47 46 44 45 44 44 52 64 73 72 72 70 69 70 70 72 76 73 73 75 77 78 80 82 82 78 77 74 73 71 75 81 82 83 73
39 44 48 51 52 53 54 52 50 50 48 48 46 44 45 51 53 57 54 60 63 67 67 70 72 74 72 73 76 79 81 81 82 83 80 78 74 71 71 75 78 84 77
38 44 49 49 52 53 52 51 49 49 49 48 49 48 47 47 50 49 50 54 53 44 46 58 65 68 69 67 68 76 76 79 79 83 84 82 76 74 75 76 76 81 87
39 43 46 50 50 52 51 48 47 48 50 49 49 46 49 48 48 49 49 49 48 46 49 50 52 54 60 65 72 73 73 74 74 75 79 79 78 77 78 78 77 78 84
43 45 46 47 47 47 47 47 47 48 50 50 50 52 52 52 51 50 48 48 48 47 46 46 47 49 52 52 54 58 63 72 73 75 76 77 76 77 78 80 79 82 83
46 46 46 46 47 47 48 47 47 48 51 53 55 56 55 57 58 57 54 53 54 52 51 50 49 48 48 49 54 55 57 63 66 68 72 70 72 80 80 79 81 83 79
47 45 45 46 44 42 49 51 53 55 57 59 62 62 62 64 64 60 57 55 56 55 55 55 56 55 54 52 50 50 53 58 61 66 68 68 71 75 75 81 82 80 84
45 46 48 44 43 40 52 58 61 61 62 62 64 64 65 62 58 56 56 55 52 54 54 53 53 54 54 54 54 53 60 65 62 67 69 69 72 74 74 75 82 87 89
44 44 46 46 44 55 64 66 64 60 50 56 60 60 63 56 55 54 52 51 51 50 50 50 50 51 52 47 62 59 61 65 65 65 65 67 74 83 84 82 80 86 93
42 42 42 46 60 75 72 64 63 56 52 54 54 55 55 54 56 54 52 52 52 50 48 49 51 51 48 66 70 72 72 68 70 71 68 69 80 80 84 88 89 87 90
46 46 58 73 70 69 65 62 55 47 45 55 48 49 45 46 49 49 47 49 46 43 49 49 50 52 52 65 70 83 71 71 72 73 75 73 73 82 82 82 88 94 93
55 64 69 70 70 65 59 51 46 44 46 45 45 43 44 43 42 42 42 42 40 42 40 43 49 52 50 70 78 82 62 67 71 73 74 75 78 79 84 86 89 86 91
66 69 68 64 60 56 49 49 49 48 46 44 40 40 40 40 39 40 38 35 37 39 36 36 41 50 50 65 73 62 59 68 69 65 67 68 75 78 87 93 93 87 91
61 64 59 56 54 49 48 49 48 42 38 32 32 32 34 35 35 34 33 30 33 31 32 30 36 47 44 58 64 60 58 64 68 66 67 78 79 80 82 90 94 97 92
60 52 51 54 49 44 42 40 34 30 27 27 28 28 29 29 28 30 30 30 29 33 33 31 31 34 40 39 58 60 57 63 65 61 64 68 80 84 85 86 91 95 92
56 45 50 46 36 27 27 29 30 27 27 28 28 28 28 26 24 28 30 30 30 31 35 33 34 38 34 52 55 62 66 66 67 67 63 68 77 84 88 89 89 92 96
48 37 38 34 26 25 27 30 28 28 28 29 30 31 30 28 28 31 32 32 31 31 33 34 42 40 38 47 55 60 66 68 69 65 70 79 84 86 89 89 89 94 99
40 36 38 32 30 28 26 28 29 30 31 33 34 34 34 36 34 35 34 35 35 37 38 43 46 51 51 52 53 57 64 68 66 72 73 82 86 89 94 96 96 100 98
37 37 36 34 32 32 32 32 32 34 36 36 36 37 39 40 40 39 39 38 36 47 51 54 54 57 58 53 63 69 67 67 68 77 80 90 90 94 96 98 99 99 99
39 38 38 37 36 36 36 34 36 39 40 40 42 45 44 44 46 46 42 46 51 54 63 64 62 52 56 60 69 72 71 75 74 73 88 96 97 97 97 99 99 99 96

GFSMW_sfc_rhum_009.txt.gz
RH
32 35 40 46 49 49 48 43 40 52 52 76 80 76 69 84 83 81 72 72 67 68 72 67 78 83 74 68 69 72 80 74 90 88 78 80 77 71 65 61 60 58 55
38 40 44 52 56 59 57 50 45 44 55 61 67 76 83 83 78 78 78 75 73 72 70 67 70 74 73 76 74 74 73 74 86 77 94 83 73 74 67 68 68 64 61
43 47 50 55 59 59 61 53 47 43 48 57 70 73 78 82 83 84 82 78 74 71 72 68 68 71 76 74 77 77 76 76 85 80 75 95 93 94 87 77 66 64 65
47 49 51 56 58 59 56 50 48 49 47 50 59 70 76 79 81 80 78 74 75 73 69 69 72 75 77 77 76 76 79 74 77 83 74 70 84 82 83 89 84 75 67
48 50 53 53 57 59 57 52 48 46 47 49 60 65 67 74 77 75 74 73 72 73 76 74 73 77 78 78 78 74 75 78 79 77 77 80 80 75 80 84 70 84 72
47 51 54 54 57 60 57 56 52 51 50 50 49 52 55 66 72 77 78 77 76 74 74 79 83 78 76 78 79 80 79 75 80 82 77 82 86 84 88 87 78 72 64
49 54 56 57 58 61 60 55 56 55 53 53 52 52 53 56 60 62 68 65 73 77 65 74 67 69 74 77 77 80 85 86 86 85 85 81 81 77 74 77 77 75 65
51 53 54 57 60 58 58 56 56 56 55 54 55 55 55 58 57 58 58 60 61 59 58 54 57 60 57 68 79 86 89 89 91 88 89 87 83 82 82 83 84 85 75
49 52 53 56 58 57 56 56 53 55 56 56 57 57 57 59 59 60 60 61 57 48 51 52 53 50 52 55 69 75 84 83 82 83 84 84 83 85 84 83 83 88 94
49 52 54 54 53 59 54 54 54 57 58 60 61 59 62 62 62 63 64 62 57 57 57 56 56 55 54 53 56 59 62 67 72 80 82 80 82 84 84 85 84 87 93
51 52 53 53 53 53 56 57 58 61 62 63 65 67 66 66 62 62 62 61 60 58 58 57 57 58 59 58 58 58 57 58 63 69 74 77 78 82 81 83 85 92 91
52 52 51 52 53 57 59 62 64 65 67 67 68 67 68 69 68 63 63 57 59 57 57 57 57 54 55 57 59 61 59 60 63 66 73 74 70 77 78 82 84 85 88
52 53 54 51 50 63 68 71 71 70 64 62 68 64 69 68 68 64 53 51 51 52 54 54 54 53 54 54 57 55 64 61 64 67 69 71 73 76 77 79 84 83 81
51 53 51 52 62 73 74 73 68 61 55 58 62 56 66 60 57 53 53 51 50 52 51 47 45 50 53 52 54 56 58 63 68 71 71 70 73 75 76 79 82 83 86
53 51 54 74 85 79 73 66 61 56 55 59 60 57 59 48 47 50 51 49 47 49 45 41 46 43 47 46 56 60 68 74 71 74 67 68 77 85 82 83 87 89 89
50 56 77 84 80 81 72 62 59 53 52 55 50 54 48 46 48 47 46 45 45 44 41 43 42 41 48 56 67 73 61 55 58 63 68 72 78 76 81 82 84 89 95
70 76 78 76 74 73 61 57 52 49 51 49 49 44 43 45 45 42 43 43 42 38 36 48 36 42 38 56 66 77 48 50 54 68 67 65 61 65 67 76 80 82 86
73 75 74 68 65 57 53 52 50 52 47 52 38 37 38 38 38 38 38 38 36 34 37 32 34 35 30 58 70 64 45 50 51 62 63 69 60 65 77 81 82 82 82
75 68 62 60 55 51 47 48 50 46 43 37 34 32 33 33 33 35 34 33 32 34 30 30 32 32 33 60 60 52 49 49 52 57 64 54 57 64 72 76 85 81 81
56 56 54 51 45 46 45 43 42 34 33 33 33 32 32 32 32 32 30 30 32 31 30 29 30 42 38 54 56 50 52 55 59 64 61 64 58 66 72 75 81 90 87
57 54 52 50 48 39 34 32 33 32 32 34 35 34 32 33 31 31 31 32 34 33 34 32 31 36 38 37 46 51 50 56 65 67 70 64 66 73 76 80 86 90 88
54 44 48 45 35 28 30 32 33 31 33 36 37 36 35 33 30 35 36 36 38 39 37 37 40 37 38 48 51 55 57 59 64 68 68 66 73 75 81 84 86 90 90
45 36 41 38 31 31 32 34 34 35 36 38 38 38 37 36 36 40 41 42 41 43 41 44 49 52 49 49 56 57 58 64 62 63 67 75 72 76 83 82 86 90 96
39 40 39 35 32 32 32 36 36 36 40 42 42 41 41 43 42 43 43 45 47 47 49 55 61 62 59 58 55 55 67 63 65 66 69 70 66 77 83 86 88 96 98
37 38 38 38 35 36 38 37 37 42 44 45 42 44 45 46 47 46 46 47 46 53 59 62 62 64 66 58 59 65 60 63 62 67 72 70 72 80 86 95 95 97 98
41 41 41 39 40 41 42 42 44 48 50 44 46 49 48 48 50 51 49 53 58 60 60 60 59 54 58 61 62 62 64 65 66 68 71 74 83 90 94 96 96 97 98

GFSMW_sfc_rhum_012.txt.gz
RH
43 47 51 56 58 60 56 51 47 49 67 84 87 89 76 88 89 84 74 75 73 71 73 69 70 83 78 70 71 73 76 76 93 94 75 78 78 75 70 67 66 62 58
48 50 53 58 59 61 62 54 50 50 62 73 79 80 84 89 86 84 82 79 79 74 72 71 70 72 77 76 75 78 76 77 89 87 82 86 72 70 72 69 69 66 62
49 54 58 62 62 60 58 52 54 57 58 68 78 82 84 86 86 87 87 83 82 81 80 74 72 71 78 76 76 82 83 81 74 81 82 96 93 91 89 87 76 73 75
53 56 59 61 64 62 59 55 53 51 47 61 64 71 79 80 83 87 86 79 77 80 83 79 79 79 77 81 78 76 84 82 86 78 79 75 78 91 85 80 88 84 78
57 59 60 59 63 62 63 60 56 51 53 53 58 64 66 77 79 76 69 70 71 72 73 79 86 89 84 83 82 80 84 83 86 84 83 86 86 84 93 94 77 72 76
60 61 61 60 62 64 64 63 58 57 57 56 57 59 61 61 60 65 63 65 65 72 62 56 62 74 77 86 83 83 86 86 86 88 87 88 93 87 92 95 89 84 70
59 60 61 63 63 63 62 58 60 61 60 60 60 62 64 65 67 68 69 67 63 63 58 59 57 58 58 60 65 83 91 92 92 91 91 88 88 85 84 86 89 89 75
58 58 60 63 62 60 61 60 62 63 63 64 64 65 66 69 68 68 70 71 70 70 64 63 61 60 58 58 60 71 76 81 89 92 91 86 81 83 91 95 94 94 85
56 57 59 61 59 58 62 62 62 65 67 68 69 71 72 71 72 73 73 73 68 56 58 66 65 62 62 61 64 66 69 73 79 82 84 88 81 84 84 82 91 98 97
55 59 59 60 59 62 63 65 67 70 72 72 72 70 74 71 71 70 70 65 61 60 60 59 60 60 57 58 61 63 64 67 70 73 77 80 80 82 87 89 87 88 93
56 59 60 59 61 64 69 72 73 71 71 73 71 71 76 71 71 70 71 66 65 59 58 57 58 56 54 55 58 59 59 65 68 65 71 74 74 79 80 83 83 85 87
56 58 60 62 67 73 77 76 72 67 67 69 68 68 74 72 69 61 55 53 52 50 52 52 49 45 49 54 57 57 64 58 63 66 74 76 71 79 79 81 83 84 84
59 60 56 63 77 80 80 76 68 63 62 64 64 63 69 62 55 51 49 47 48 46 47 44 43 43 52 42 49 60 52 59 67 72 79 77 76 74 77 83 86 84 81
58 58 62 81 85 80 77 71 64 59 60 61 62 66 61 56 53 50 46 45 45 43 42 37 38 47 38 39 51 45 58 70 68 75 61 61 66 71 81 83 86 83 88
59 59 85 92 88 81 72 63 57 53 56 55 61 58 56 52 52 48 45 43 42 40 39 35 34 45 31 33 43 44 55 71 52 53 47 57 71 77 80 73 64 75 87
61 85 84 86 86 80 64 55 54 53 54 56 53 50 44 41 43 40 40 39 38 39 36 35 37 35 27 53 54 55 61 47 48 50 46 54 64 65 68 57 64 75 86
84 80 82 78 73 62 55 56 55 51 44 49 40 37 34 36 36 36 36 36 37 37 34 36 32 31 36 45 55 65 50 41 39 49 49 49 53 71 58 60 64 69 69
80 78 73 69 65 53 54 53 48 41 43 38 34 33 34 34 33 34 34 36 33 33 33 33 32 33 29 45 52 56 39 39 41 53 53 58 70 67 67 65 68 71 70
76 70 66 64 58 53 50 46 40 34 35 35 34 34 35 34 34 35 36 34 33 34 35 33 34 35 34 47 49 48 42 48 53 52 55 65 66 67 66 68 71 71 75
65 61 61 49 47 44 35 32 34 33 34 36 37 36 37 36 36 37 37 35 36 36 36 37 36 41 36 47 50 50 49 56 57 58 69 66 61 65 66 67 70 84 82
57 53 51 46 34 30 31 33 35 34 35 37 39 39 39 39 37 38 38 39 41 41 44 41 40 39 44 46 57 59 55 58 59 63 66 60 65 67 69 70 75 86 83
50 46 40 34 28 31 33 35 36 36 38 40 42 42 42 39 35 42 44 44 46 48 47 48 48 48 50 58 59 62 60 60 67 71 62 64 67 70 68 65 76 80 82
45 37 38 34 32 35 36 38 38 40 41 44 46 45 42 43 43 49 48 49 48 51 52 54 62 63 59 58 63 62 63 72 66 60 65 64 65 64 67 72 74 80 91
39 38 34 33 36 37 37 40 41 42 46 49 50 49 49 48 48 49 48 50 54 56 60 66 69 68 65 68 62 61 71 71 77 70 62 66 65 65 67 72 77 81 97
39 38 37 41 41 42 43 43 44 48 52 54 52 51 51 52 51 49 50 51 52 59 63 65 65 69 77 65 63 65 64 79 64 60 69 64 68 74 77 78 79 81 94
40 43 45 45 45 47 48 48 49 53 57 52 50 53 54 54 53 53 52 56 60 62 61 62 60 55 60 65 61 66 77 72 61 65 74 78 81 84 82 87 86 84 93

GFSMW_sfc_rhum_015.txt.gz
RH
52 55 58 60 58 60 60 58 56 60 75 86 89 93 90 90 93 90 81 76 77 76 78 73 73 81 78 71 72 82 81 81 90 84 75 73 72 74 73 69 68 68 66
55 58 60 63 62 61 59 57 58 63 72 84 89 86 89 91 90 91 88 86 86 85 83 83 78 77 82 82 81 83 81 80 91 83 84 93 78 82 78 74 73 72 69
58 63 65 67 66 64 64 57 56 52 62 72 84 86 84 86 84 86 83 78 76 78 86 91 92 88 90 86 82 88 92 89 84 87 86 98 92 88 84 89 80 76 78
62 64 62 66 67 67 66 62 58 54 52 57 59 72 76 79 82 84 75 70 70 72 65 67 72 81 89 96 92 84 89 90 93 86 81 80 82 94 89 70 82 78 76
61 63 66 64 68 67 68 65 60 58 61 60 64 66 68 73 74 73 68 70 67 70 62 62 67 67 64 62 67 88 93 89 92 91 90 89 90 88 97 94 84 74 77
64 66 67 63 65 68 68 68 62 64 64 63 66 69 72 71 69 72 71 71 68 72 62 62 64 68 67 68 69 73 78 82 92 91 87 91 94 94 97 97 91 87 76
65 65 66 66 65 66 67 63 66 69 69 69 70 73 75 77 77 78 78 74 70 68 65 70 69 68 68 67 70 79 85 83 88 85 88 88 87 86 86 88 88 87 84
66 64 67 67 66 66 68 69 72 73 73 74 75 76 76 77 76 77 78 78 77 77 66 65 67 66 66 63 63 74 82 82 88 88 85 85 84 86 87 91 93 89 83
64 64 67 65 67 68 70 73 74 75 74 74 76 78 77 75 75 74 74 74 69 54 57 65 66 63 60 56 61 65 69 71 81 87 91 81 79 84 84 86 88 94 91
62 64 65 66 69 71 76 77 75 76 75 72 73 76 76 73 73 72 72 69 64 60 60 60 58 55 49 50 56 59 58 66 73 64 74 77 80 83 86 86 84 85 90
61 65 67 69 71 78 80 76 70 69 71 69 70 75 74 70 69 65 65 63 61 58 51 50 46 42 44 52 43 45 53 64 56 63 72 76 83 83 78 76 77 82 87
61 65 69 72 81 84 78 73 67 65 68 66 67 68 65 61 56 53 52 48 48 46 45 43 36 36 41 48 35 41 58 45 59 66 72 82 61 64 67 74 75 85 85
63 67 70 80 85 86 78 71 65 64 63 62 66 61 58 55 56 54 47 43 45 41 40 39 36 36 41 43 30 46 40 44 50 70 72 53 55 59 70 70 77 85 78
62 61 82 91 90 83 73 64 58 59 58 61 59 55 54 53 51 52 47 43 42 38 39 36 35 36 39 31 32 43 44 48 57 50 52 50 49 53 64 69 76 66 70
65 70 93 94 90 77 68 60 57 56 53 51 51 50 49 47 47 46 44 40 38 36 36 36 33 35 32 25 39 41 47 61 48 41 34 39 54 61 52 57 77 74 74
68 91 88 88 84 76 63 54 49 51 53 42 43 43 40 40 42 39 38 38 37 36 36 34 36 35 30 43 47 48 50 49 42 42 44 53 56 53 65 68 68 67 76
91 87 85 80 74 61 50 57 46 39 43 39 37 38 39 40 40 38 38 38 38 37 36 36 36 36 36 47 51 53 45 44 47 50 53 53 49 63 70 67 65 68 68
86 81 76 73 62 54 49 42 33 32 38 38 37 39 40 39 39 39 39 41 38 38 38 38 38 39 36 50 52 53 46 51 52 53 55 58 63 68 61 61 65 68 67
79 74 70 67 54 42 37 30 31 34 36 38 39 39 41 41 40 41 41 40 40 42 41 40 42 43 42 52 54 54 54 57 58 57 58 62 62 63 61 62 72 69 65
69 68 63 48 42 32 28 28 30 35 37 40 41 41 44 43 43 44 43 42 44 44 43 44 44 49 46 53 59 58 57 64 64 71 74 68 61 62 64 62 72 97 92
66 61 56 38 29 30 30 31 32 37 39 41 43 45 46 46 45 46 46 46 48 48 51 48 49 49 52 57 62 62 57 60 75 91 66 62 67 67 64 61 75 83 79
56 47 38 31 29 30 30 33 37 40 42 45 47 49 50 45 40 50 51 51 53 54 53 55 57 57 58 62 62 64 62 62 73 66 68 73 65 62 63 62 64 68 75
44 37 38 34 31 33 34 40 41 44 46 50 52 53 52 51 50 58 54 56 53 55 58 60 67 66 61 61 66 67 70 72 63 65 79 64 63 64 65 68 70 72 78
45 42 35 34 34 40 41 44 45 47 52 55 57 55 58 53 54 56 56 54 58 61 61 67 69 71 70 68 62 71 75 67 70 97 63 63 64 67 69 72 73 76 79
41 38 37 40 43 45 47 48 48 53 54 57 56 56 56 62 60 56 54 54 55 62 65 66 66 72 73 66 62 66 60 65 91 62 67 67 71 74 72 74 75 78 79
40 42 46 46 47 51 52 51 52 55 61 56 53 57 59 63 60 57 56 57 61 62 62 62 61 56 62 63 64 65 66 70 61 64 75 78 78 82 80 80 82 85 85

GFSMW_sfc_rhum_018.txt.gz
RH
57 60 63 63 59 60 60 63 67 76 86 91 94 94 93 93 94 93 89 87 84 84 85 86 85 86 86 82 74 73 81 80 78 87 84 78 72 72 74 74 74 72 70
61 62 64 66 66 66 65 60 59 65 80 91 94 93 95 97 94 83 71 74 72 74 72 88 92 95 96 95 94 95 88 84 87 88 90 95 83 85 79 77 77 76 72
63 65 66 69 70 70 70 62 61 58 60 70 79 80 77 76 76 74 67 68 67 62 64 68 74 79 90 96 96 97 94 95 84 86 93 96 91 83 82 90 83 80 78
73 68 66 67 68 70 68 66 63 62 59 65 62 69 72 75 81 80 74 69 70 68 63 66 70 74 75 73 74 65 88 92 92 88 84 90 91 90 90 74 76 88 82
68 69 70 67 71 70 72 71 65 66 68 67 70 69 74 79 78 77 72 74 71 72 64 65 73 74 74 77 80 77 80 85 86 89 92 91 88 88 93 93 80 75 76
71 71 70 68 71 74 73 74 70 73 74 71 76 77 79 76 71 76 70 73 73 74 65 65 70 74 72 74 74 80 85 88 90 89 86 90 91 92 94 93 88 89 77
72 72 70 71 72 73 74 71 74 78 78 76 76 78 79 79 80 79 78 73 66 67 63 67 68 68 68 65 66 75 84 84 90 88 88 88 88 85 86 87 86 87 78
72 71 70 72 73 74 77 78 77 78 78 79 79 79 77 76 76 76 74 71 71 72 62 64 65 63 60 53 56 68 77 76 85 91 91 83 78 80 86 89 91 89 79
71 70 72 73 75 77 80 80 78 77 75 78 79 78 75 73 72 72 72 70 67 50 52 64 63 54 45 47 58 54 50 59 78 81 82 80 78 82 89 91 87 89 90
70 70 73 74 76 82 84 79 78 76 73 74 76 72 70 67 65 63 62 62 59 58 57 50 48 38 40 40 58 42 37 55 54 46 71 74 78 81 84 74 74 79 84
68 70 74 75 82 86 79 74 72 71 70 71 70 65 62 58 55 56 56 55 54 53 48 46 40 38 38 37 52 34 35 47 43 53 57 77 76 63 64 65 76 76 74
66 72 76 83 89 82 75 70 68 67 67 68 61 56 53 53 52 53 52 49 50 47 42 43 38 36 37 40 37 35 46 46 50 52 63 57 48 60 59 66 64 68 74
69 77 82 90 88 80 71 64 63 63 64 61 54 50 49 50 49 49 48 44 43 40 38 39 39 36 39 36 34 35 40 44 49 60 52 45 43 44 54 59 63 65 64
69 76 92 95 90 74 66 61 59 58 54 45 47 45 46 46 45 45 44 43 43 42 39 37 37 37 37 35 33 40 45 48 52 53 47 43 44 53 60 56 63 63 76
71 88 96 94 83 72 64 59 56 52 41 41 42 38 43 43 43 45 45 44 44 39 39 38 36 37 37 28 43 45 48 51 50 47 47 49 56 59 57 57 68 72 73
72 94 92 89 83 70 62 56 48 50 38 37 34 41 42 44 46 45 44 44 42 40 41 40 40 40 34 48 52 51 51 50 51 55 54 54 58 58 64 65 63 61 65
88 93 89 84 68 63 58 55 37 36 35 38 37 40 43 46 46 44 43 43 43 45 43 42 42 43 42 52 55 57 51 55 58 59 59 58 53 65 67 67 65 64 64
93 89 83 72 64 60 52 33 28 29 33 37 39 42 45 46 46 46 46 48 45 45 45 44 45 46 42 55 58 60 56 59 60 60 62 64 72 73 61 60 71 83 83
86 79 75 69 59 48 34 29 29 34 36 36 41 44 46 48 48 48 48 47 47 48 47 46 47 50 49 58 61 60 58 60 62 62 63 72 68 62 64 82 88 75 76
74 73 63 54 38 32 30 28 32 34 33 38 44 46 48 50 50 51 50 50 51 48 48 50 50 54 53 60 63 59 57 63 65 66 84 65 57 66 70 58 64 85 72
69 64 52 34 28 27 32 34 32 33 39 45 47 49 50 52 51 52 54 52 54 54 56 54 52 55 58 62 63 62 55 59 77 87 64 58 68 89 60 61 66 71 63
64 49 36 30 30 32 35 36 34 42 47 50 52 53 54 50 44 57 57 60 60 60 56 57 60 60 61 63 63 63 62 63 68 65 61 70 88 62 62 65 68 68 69
50 43 41 34 37 39 40 42 44 48 51 54 55 55 54 54 55 64 60 61 58 58 60 61 67 66 62 63 67 66 72 68 60 63 76 79 66 64 66 69 68 69 74
49 43 38 37 38 41 43 47 49 52 56 59 59 58 61 57 62 60 61 66 61 64 60 67 70 71 68 69 65 72 74 66 74 91 78 66 63 66 67 69 70 72 77
46 41 41 41 43 48 49 51 51 56 56 58 57 58 57 68 67 65 64 60 58 64 65 65 66 72 74 65 62 67 59 66 78 57 61 64 68 72 72 72 73 75 77
44 44 44 45 47 52 53 53 54 57 63 58 54 56 60 70 62 63 63 59 61 61 61 62 62 57 62 65 68 65 67 73 60 59 72 76 76 75 78 79 80 80 81

GFSMW_sfc_rhum_021.txt.gz
RH
50 50 52 50 49 51 50 54 62 70 67 68 68 67 74 69 60 55 51 49 53 51 55 55 54 57 63 65 66 70 73 69 68 84 79 72 64 63 62 60 59 61 61
49 52 52 54 52 53 51 52 55 62 75 76 77 70 57 57 54 53 52 48 46 48 45 51 51 50 52 51 52 57 64 62 62 83 89 88 65 54 68 65 63 60 58
50 54 54 56 57 58 57 55 53 54 58 59 53 52 53 54 51 52 52 54 48 47 49 52 51 52 53 54 55 56 62 62 56 57 75 80 75 77 61 60 60 59 62
55 56 57 56 59 60 60 58 58 55 56 53 56 57 57 57 58 55 52 50 51 49 47 51 53 52 53 52 53 48 58 62 65 60 48 66 70 77 75 46 54 52 56
56 58 61 62 60 64 65 62 60 60 59 57 58 57 58 57 55 52 50 50 49 51 47 49 52 50 49 49 53 53 56 56 62 65 67 69 70 67 80 82 62 56 50
60 60 63 64 64 66 66 67 63 63 61 60 58 59 58 55 52 54 49 50 47 48 44 46 45 45 42 45 44 51 52 53 62 66 68 75 77 74 79 79 72 73 57
62 62 61 64 63 66 68 65 62 65 61 60 58 57 57 55 54 51 46 43 40 43 41 41 39 36 36 37 40 55 55 54 63 67 74 56 58 59 65 76 75 76 64
62 62 61 64 65 69 68 65 65 66 61 59 57 53 52 50 45 43 39 38 38 38 38 36 33 30 28 30 33 46 45 47 58 70 51 53 51 57 65 78 89 82 64
64 63 64 64 66 68 68 65 62 64 63 58 51 48 43 41 40 37 35 37 35 28 31 34 33 29 28 28 34 40 29 34 51 46 46 52 57 66 67 66 65 74 79
63 64 64 65 68 71 69 64 59 60 60 53 45 42 37 34 34 32 32 34 32 32 30 30 30 28 28 28 31 31 30 32 37 35 44 53 55 54 58 59 54 56 68
61 64 65 66 73 66 63 60 57 58 54 47 39 36 34 31 30 29 30 32 31 30 28 28 28 27 27 27 28 27 27 33 37 40 46 56 46 46 43 44 50 58 56
61 65 67 75 69 64 58 56 53 56 51 41 34 32 32 30 28 29 30 29 29 29 29 28 27 26 27 28 27 29 31 37 41 42 49 49 37 43 41 41 50 57 55
66 70 76 78 68 60 54 52 51 54 43 35 30 29 29 29 28 28 29 29 30 29 28 29 29 28 30 30 29 30 37 40 41 43 46 44 43 45 46 51 57 59 55
67 73 82 78 66 56 51 48 49 44 36 31 29 29 29 30 30 31 31 31 30 31 30 30 30 31 31 32 30 39 42 43 43 44 46 45 47 49 52 52 58 58 67
72 80 86 78 64 55 51 46 46 34 29 29 31 32 33 33 33 34 34 33 34 33 33 33 32 32 34 26 42 44 46 47 47 48 46 48 54 62 58 54 61 66 68
74 85 83 74 63 55 51 45 40 34 29 28 30 34 34 35 38 36 35 35 36 34 36 34 35 35 32 50 55 54 50 50 51 53 51 50 58 57 64 70 64 60 65
81 86 81 71 60 55 50 38 29 29 28 30 31 34 36 38 38 37 37 38 38 38 36 35 35 36 38 54 59 60 51 52 52 52 53 53 50 63 72 67 62 71 83
86 85 75 62 57 52 40 27 25 27 30 32 32 36 38 38 38 38 38 39 38 38 36 36 38 40 39 58 61 63 51 51 50 51 53 56 64 66 56 57 90 72 54
83 75 63 59 51 40 28 26 26 28 30 32 34 37 39 40 40 39 39 40 39 40 38 40 40 42 44 58 64 59 51 52 53 51 53 67 56 58 64 90 81 58 59
69 68 57 47 31 26 25 26 28 28 30 35 39 39 41 41 40 41 41 42 42 42 43 42 43 50 46 61 64 57 52 57 57 62 65 61 54 61 86 59 59 73 67
63 57 47 33 27 26 26 28 30 31 35 39 42 42 41 42 40 42 44 45 46 46 48 46 43 47 51 54 63 62 52 57 74 79 57 51 64 95 62 61 59 68 61
64 41 34 32 30 30 29 31 30 36 40 43 44 43 42 42 39 46 47 48 50 52 49 48 51 52 51 60 61 63 62 62 65 62 54 65 78 59 60 61 67 66 66
53 42 37 32 34 36 33 33 35 41 44 46 44 43 42 42 45 50 50 52 52 53 52 54 59 58 55 56 65 66 71 71 58 57 72 66 58 60 60 64 66 68 67
48 42 35 34 35 37 37 39 42 44 48 46 44 43 45 47 46 52 51 55 56 57 55 59 62 66 63 62 60 72 69 65 67 91 53 55 58 64 62 61 62 64 70
48 40 39 37 36 39 41 43 43 48 45 46 45 46 46 52 56 54 53 52 52 59 59 60 61 70 74 63 65 62 54 63 77 55 53 54 59 64 62 63 66 68 70
46 43 40 38 40 44 45 46 47 48 51 47 44 48 52 55 55 55 56 59 63 62 61 62 61 57 62 66 65 62 65 72 61 57 61 66 71 73 69 72 74 75 78

GFSMW_sfc_rhum_024.txt.gz
RH
34 34 36 35 36 39 42 46 50 48 44 46 48 52 50 46 42 39 36 35 35 34 36 36 34 34 35 35 34 35 37 35 35 37 38 37 37 44 36 39 49 43 41
32 35 36 35 35 36 40 46 52 54 53 53 47 44 42 40 39 39 36 32 32 33 33 36 35 36 35 36 37 39 42 37 36 42 44 41 37 30 37 34 32 35 33
32 33 35 39 40 40 39 43 49 46 46 43 41 41 39 38 37 37 38 36 32 33 35 37 36 37 38 38 39 39 46 45 41 38 45 54 49 49 37 35 32 32 35
32 34 37 40 44 45 43 42 41 41 40 39 39 39 38 41 39 36 36 36 35 33 32 33 33 32 32 32 33 29 35 35 38 36 32 43 45 55 55 35 38 32 36
34 39 42 45 46 49 48 45 42 41 39 37 36 36 39 39 38 35 35 35 34 32 29 28 30 27 25 27 28 31 32 28 31 36 40 43 44 43 46 55 37 34 30
36 40 46 46 49 51 50 48 43 42 40 40 39 40 40 38 37 37 33 31 27 27 26 23 23 22 23 26 24 30 34 30 33 35 40 51 51 42 44 44 46 48 39
40 44 45 45 47 50 51 46 43 43 41 40 39 39 40 38 35 31 27 26 23 24 24 22 20 20 22 23 23 33 39 34 37 43 44 35 32 33 37 44 51 50 50
39 41 43 46 48 50 48 45 44 44 41 40 38 35 34 31 26 25 23 20 20 20 22 21 20 19 19 20 21 28 33 30 30 40 34 32 33 36 44 53 62 68 46
42 42 45 45 47 47 48 47 46 45 42 38 33 29 26 25 25 21 19 20 20 17 18 19 20 19 19 20 24 24 22 23 25 28 30 32 33 40 40 42 41 49 52
42 42 44 46 46 48 47 44 42 43 40 34 30 26 22 19 18 18 19 20 18 18 18 18 18 19 18 18 20 21 21 22 25 26 29 32 33 39 37 36 33 33 40
42 43 43 46 50 48 45 42 43 41 36 30 26 24 20 17 16 17 17 18 17 18 18 18 18 17 18 18 19 19 21 24 27 29 31 34 34 36 33 35 34 37 40
41 43 45 51 49 46 44 41 41 38 33 27 23 21 20 18 17 18 18 17 18 17 18 18 18 18 19 20 20 21 23 27 30 31 33 35 29 36 34 34 38 42 41
44 46 49 51 48 45 42 39 39 35 28 24 21 20 19 19 19 19 19 18 19 19 18 20 20 20 22 22 22 21 26 29 31 33 35 36 37 37 39 40 43 44 43
46 48 51 51 46 43 39 37 36 31 26 23 21 21 21 21 20 20 21 21 20 21 22 22 22 23 22 24 21 30 33 33 33 36 38 38 39 40 43 44 45 48 63
48 51 54 51 47 42 38 36 34 27 23 21 22 24 24 23 22 24 23 22 23 23 24 24 23 22 25 19 35 40 40 39 39 38 36 38 45 55 53 49 57 66 64
47 52 57 52 46 42 38 38 33 26 21 20 22 24 24 25 27 25 24 24 25 25 26 24 23 24 22 40 51 53 46 42 40 40 38 36 45 45 58 61 60 56 63
49 57 59 53 47 41 39 33 26 22 20 21 22 23 25 26 26 25 25 26 27 26 26 24 24 25 26 42 56 60 48 43 39 39 39 37 34 53 53 54 56 58 69
55 60 58 52 45 41 34 25 22 21 22 22 21 24 26 25 24 24 24 26 25 26 25 24 26 29 26 46 56 63 45 41 39 39 39 40 49 53 49 49 62 82 54
57 60 53 46 43 38 27 23 21 21 20 22 22 24 25 25 25 25 26 26 27 27 26 28 29 29 30 48 59 56 44 43 41 39 40 52 49 52 57 74 80 55 54
61 55 47 43 36 27 22 22 21 19 20 24 26 25 25 25 25 26 27 28 28 29 29 28 27 36 34 49 58 55 46 47 43 47 52 54 48 58 70 60 53 70 57
54 46 42 36 28 23 22 22 21 20 24 26 27 26 25 25 25 27 28 29 29 30 29 28 28 33 38 41 56 60 48 48 60 66 52 44 58 73 61 58 51 58 58
51 42 36 30 26 24 23 22 20 24 26 28 28 27 26 26 26 30 29 28 29 31 29 30 36 36 36 49 53 59 59 61 62 58 50 54 75 57 58 57 61 63 63
45 36 35 31 28 27 21 21 24 27 28 28 27 26 26 27 28 29 31 30 30 31 34 37 42 41 41 40 54 58 63 65 54 49 63 71 57 57 55 59 61 62 57
43 37 34 33 29 26 26 26 27 28 30 28 27 27 28 31 29 31 30 31 32 36 40 44 47 50 47 46 46 55 63 59 59 73 74 53 53 55 56 53 53 55 63
41 38 36 29 25 25 26 27 29 31 30 28 28 29 30 31 31 30 30 35 38 49 55 54 54 57 58 52 59 62 52 59 68 68 50 46 47 52 54 56 58 62 70
41 38 31 25 25 26 27 29 31 32 33 31 30 32 35 32 32 32 33 42 51 56 59 61 60 52 60 64 66 62 67 73 64 54 52 54 63 66 61 64 66 75 84

GFSMW_sfc_rhum_027.txt.gz
RH
26 28 30 30 34 37 41 42 42 42 41 43 46 49 47 43 39 35 32 31 31 31 33 33 32 33 34 34 34 37 42 41 38 42 43 40 37 34 35 34 32 34 33
26 30 30 30 31 37 43 48 48 47 45 45 44 42 40 39 37 37 32 29 30 32 32 35 35 34 36 35 36 37 41 39 37 42 44 46 39 35 36 31 34 33 34
27 30 32 35 36 39 43 43 44 44 43 43 41 40 38 38 36 35 36 34 30 30 31 32 31 32 33 34 34 34 43 41 37 34 41 46 43 46 38 36 33 31 31
26 29 33 37 40 40 40 40 39 39 37 36 36 36 37 38 36 36 35 35 32 28 25 26 27 26 27 27 32 24 34 35 36 34 26 41 41 51 52 33 31 29 27
28 33 37 40 41 45 44 41 38 36 33 32 33 36 38 37 35 34 33 31 29 26 24 22 25 23 24 25 29 29 33 30 34 38 39 40 44 42 41 42 35 33 30
30 36 40 43 48 48 44 43 38 36 36 36 35 38 38 36 36 35 31 28 25 24 24 21 21 21 24 26 25 27 34 36 38 38 38 45 46 40 42 43 44 45 41
35 40 42 43 45 46 45 40 37 37 35 36 35 35 36 35 34 30 27 25 22 22 23 21 19 20 23 24 26 34 43 44 42 38 36 38 36 35 38 43 49 56 45
35 39 39 42 45 46 41 39 38 38 36 35 33 32 32 30 26 24 22 20 20 20 20 19 18 18 19 19 23 31 36 37 35 36 34 34 33 34 37 44 56 56 47
36 37 39 41 44 43 42 42 40 39 36 33 29 26 24 24 24 20 19 20 18 15 17 18 18 18 18 18 24 26 24 25 28 30 33 32 34 37 37 44 45 51 54
35 36 39 41 41 42 42 41 38 38 35 31 28 25 21 19 18 18 18 18 16 16 17 17 17 17 17 18 20 22 23 23 26 27 30 32 33 35 39 43 41 41 46
36 38 38 40 42 42 42 40 38 36 33 29 27 25 21 18 17 17 16 16 15 16 16 16 16 16 17 18 19 21 22 22 27 29 32 35 34 37 36 40 41 44 45
36 37 38 43 45 43 41 40 38 34 32 28 24 23 21 19 17 17 17 15 16 16 17 17 17 18 19 20 20 22 22 24 29 31 34 35 29 40 40 40 43 46 45
37 37 40 46 44 42 40 39 37 34 29 26 24 21 21 20 18 17 17 17 18 18 18 20 21 20 22 22 21 21 22 29 32 34 36 38 39 40 43 43 47 49 46
38 39 42 44 42 41 38 37 35 31 27 25 23 23 22 20 20 19 20 19 19 21 22 22 23 23 21 23 23 25 33 36 36 39 40 39 39 40 43 46 51 57 65
40 42 44 44 42 41 38 36 33 29 25 23 24 24 23 21 21 22 22 21 22 23 24 24 24 23 24 19 30 36 42 44 44 41 38 37 46 49 47 43 54 60 78
40 42 44 44 43 40 38 38 32 28 23 22 22 22 22 22 24 23 23 23 25 25 25 26 25 25 22 36 42 44 47 47 46 44 39 37 44 42 50 56 57 57 55
39 44 47 46 44 40 37 38 30 24 22 21 20 20 21 22 23 23 23 25 26 25 26 25 25 25 27 39 44 51 49 50 44 41 40 38 33 48 53 59 58 60 64
40 46 49 47 43 38 36 29 25 22 22 21 20 20 21 22 22 22 23 26 24 25 25 25 26 29 25 40 46 53 49 46 44 41 41 42 48 56 54 50 73 78 67
46 50 48 45 42 38 30 26 23 22 21 21 19 20 21 22 22 24 25 25 26 27 26 28 29 27 26 41 47 51 47 49 47 43 43 50 52 55 58 69 92 65 55
53 53 47 44 40 31 26 26 23 20 20 20 22 20 21 22 23 24 26 27 27 28 28 27 25 31 29 42 49 49 48 53 50 53 58 59 51 58 69 63 55 70 58
52 47 44 40 32 27 26 24 22 20 20 22 22 22 22 22 24 26 27 28 28 29 28 26 25 28 32 36 49 53 47 51 57 76 60 52 58 74 64 56 51 57 57
50 43 39 33 28 27 25 23 20 21 22 23 24 24 24 24 24 28 27 27 28 29 27 28 32 34 33 45 48 53 55 55 64 64 57 54 82 59 55 54 57 59 59
46 38 36 33 29 25 21 21 22 23 23 23 23 24 26 26 26 28 29 29 28 28 28 34 40 43 43 42 52 55 58 62 56 52 60 82 57 56 52 56 58 59 59
44 39 37 36 31 26 23 21 23 24 24 24 25 26 28 29 27 30 28 27 28 35 39 46 53 55 53 52 51 51 62 63 62 78 81 54 54 54 55 56 56 57 66
43 40 40 35 29 23 22 23 25 25 27 26 28 28 30 29 30 29 26 27 30 42 51 56 57 62 61 55 58 58 56 63 72 60 55 51 53 57 59 60 61 65 78
44 43 39 30 25 21 22 24 26 28 30 31 32 31 32 30 31 29 28 36 43 46 48 51 52 48 56 59 60 60 64 71 61 55 55 59 66 69 66 67 77 82 85

GFSMW_sfc_rhum_030.txt.gz
RH
36 38 44 48 53 57 58 59 61 60 62 67 71 60 57 55 53 49 40 41 43 45 50 56 51 52 54 51 44 50 54 54 55 58 46 43 44 44 44 34 32 44 33
39 41 44 49 56 65 67 67 65 62 59 60 56 54 52 54 53 51 45 41 41 42 38 46 48 44 49 46 44 46 56 54 52 56 50 64 48 47 34 38 46 35 40
41 44 48 54 62 65 65 61 61 59 56 53 48 48 55 58 58 57 56 45 37 36 39 40 40 40 43 47 45 46 50 59 52 44 53 68 68 49 48 44 45 31 26
39 44 50 57 61 63 60 58 56 57 55 54 57 56 57 60 58 57 55 48 38 34 32 34 35 35 40 40 43 33 46 51 54 53 38 52 56 59 64 54 34 32 30
40 48 55 56 59 63 64 56 51 48 48 48 51 57 59 60 56 53 48 42 40 34 30 31 34 34 40 38 39 39 44 52 53 57 58 50 57 61 53 52 43 38 38
43 52 58 60 66 65 62 57 52 52 53 53 53 56 56 54 53 47 46 43 41 40 33 29 31 31 34 38 38 40 43 53 56 54 52 54 61 54 54 51 47 47 40
49 57 64 67 65 64 61 54 52 52 50 50 49 49 48 44 41 41 38 34 36 37 32 30 29 32 32 33 34 44 49 53 56 56 52 51 45 45 45 47 48 50 43
51 56 61 65 65 60 56 54 52 51 47 46 44 42 42 42 37 32 33 32 32 31 28 28 27 27 27 28 30 43 49 41 46 40 46 47 42 45 44 48 54 55 52
52 54 59 60 62 59 58 56 53 50 45 42 38 34 32 31 31 28 28 31 27 19 24 26 26 26 26 26 30 39 35 35 38 42 44 44 41 45 49 48 49 56 65
49 52 55 59 59 59 58 54 50 48 44 40 35 30 27 25 25 26 25 24 23 23 25 24 25 25 26 27 28 35 35 31 38 31 36 37 40 43 45 54 50 51 55
47 51 54 56 59 60 59 54 49 45 42 39 35 31 27 25 24 24 24 23 23 23 23 24 24 25 27 27 29 30 29 29 34 34 36 40 39 44 45 48 51 52 54
47 50 54 57 60 60 57 54 49 45 41 36 32 31 28 25 25 24 24 23 24 24 25 26 27 28 30 30 30 30 30 34 38 39 43 43 37 46 46 50 48 53 52
50 51 56 60 60 59 56 53 48 43 38 34 32 30 29 28 26 25 26 25 26 27 29 29 32 32 34 33 32 29 34 39 43 46 49 49 48 48 49 49 52 51 49
48 51 58 61 60 57 54 52 46 40 35 33 33 32 30 29 28 28 29 29 29 31 33 33 34 36 33 32 30 35 41 46 47 52 53 50 50 48 48 47 49 50 63
50 53 60 61 61 57 53 48 43 37 33 33 36 34 31 30 30 32 32 31 33 33 35 36 36 36 33 24 33 38 45 50 55 55 52 49 50 52 48 44 53 57 61
50 55 56 60 60 57 52 44 41 36 32 32 32 31 29 30 33 33 33 33 36 36 36 37 37 37 27 39 42 41 45 53 57 60 52 47 49 48 54 57 57 57 68
52 54 60 58 54 53 48 45 37 32 30 28 27 27 28 30 32 31 33 36 37 38 38 38 36 37 38 41 42 44 44 54 57 55 53 48 41 53 54 62 64 84 77
53 60 64 58 55 50 49 37 32 30 30 29 26 26 28 29 31 32 34 36 37 38 38 38 38 40 32 40 42 47 48 53 56 55 54 54 55 60 60 59 80 82 86
62 67 60 57 52 42 33 30 29 30 29 27 26 26 28 30 32 34 36 38 40 41 41 38 38 39 33 42 44 45 48 51 55 54 55 61 63 63 60 66 94 72 68
64 60 55 51 41 34 31 31 30 28 27 27 28 27 29 31 32 35 38 39 41 37 36 34 35 39 34 44 47 47 47 54 56 58 70 69 58 59 69 71 59 76 60
58 53 51 45 38 36 33 29 28 28 28 28 29 30 31 33 34 38 40 41 41 40 41 35 35 38 42 45 52 55 49 53 61 84 70 63 62 77 70 58 54 57 57
58 52 40 36 35 35 32 31 29 28 29 30 31 33 33 32 31 39 42 41 42 44 41 39 43 45 48 55 57 58 58 59 68 67 60 60 74 59 58 57 60 61 62
51 40 38 39 35 32 29 31 30 30 30 31 32 34 36 36 37 41 43 43 42 42 42 44 52 58 57 58 61 61 62 66 61 58 68 78 60 58 56 60 61 62 63
52 43 41 39 36 32 29 31 32 31 32 33 35 39 41 41 41 43 44 43 42 46 44 51 58 62 59 60 57 54 60 60 66 79 85 60 57 58 60 60 60 62 78
54 48 48 44 38 31 30 33 33 34 38 39 42 43 45 44 46 44 41 42 42 50 49 54 56 60 61 56 54 55 52 62 71 65 61 57 59 64 64 64 65 71 82
58 58 51 39 32 29 32 35 35 38 41 46 48 50 51 49 50 46 41 43 45 48 48 49 49 47 53 56 57 58 62 67 62 60 62 66 72 76 70 74 81 81 86

GFSMW_sfc_rhum_033.txt.gz
RH
46 45 49 53 62 66 65 67 71 75 67 63 59 52 54 44 45 44 42 43 46 43 49 54 48 50 53 46 40 50 53 56 54 61 40 53 51 46 39 25 44 42 39
50 51 55 65 73 82 81 77 72 69 65 59 59 56 53 53 52 49 42 41 41 42 37 44 45 42 47 43 43 46 57 60 57 57 62 63 58 49 30 44 42 46 29
50 57 65 75 77 77 74 68 64 58 54 51 49 50 52 62 57 58 53 40 34 37 38 37 39 41 46 48 45 45 51 63 59 51 57 65 71 47 55 42 50 32 35
52 57 67 72 72 74 70 68 62 57 56 51 54 58 60 64 67 64 54 45 34 33 35 35 36 38 44 41 45 38 48 58 62 60 46 56 62 74 71 60 38 42 34
52 60 64 64 68 66 63 60 56 54 56 57 55 58 65 66 64 57 52 44 36 32 33 34 36 36 43 40 40 44 44 50 61 61 62 56 60 68 69 53 51 40 40
59 63 66 65 70 65 62 62 56 58 58 57 60 60 58 53 48 46 46 45 42 40 33 30 33 34 37 38 40 43 43 51 56 59 58 59 58 54 51 50 47 48 40
64 69 69 68 67 65 62 57 53 55 51 50 49 46 43 41 40 40 37 36 35 36 33 31 31 34 34 34 36 43 48 51 53 52 51 52 57 54 47 51 49 50 46
66 71 70 69 65 61 62 57 52 51 46 44 45 43 39 41 37 34 34 34 32 32 29 29 28 28 29 31 34 44 49 42 47 41 45 54 50 51 48 51 58 59 50
67 71 70 66 69 65 60 55 50 49 44 41 37 35 33 32 32 29 30 32 29 21 27 27 28 28 29 30 34 43 38 40 42 46 49 48 41 50 54 58 53 63 69
64 68 67 67 68 61 58 55 50 45 43 37 32 29 28 28 27 27 26 25 26 26 27 27 28 29 31 31 33 38 40 38 42 40 46 42 45 47 50 59 62 55 63
62 65 64 63 64 61 56 54 47 45 42 36 31 30 28 26 25 26 26 25 26 26 27 28 30 31 33 33 35 36 34 37 43 47 45 50 49 53 52 54 55 61 60
61 63 64 65 63 61 53 50 50 45 40 35 33 31 28 27 27 27 27 28 27 28 30 31 32 34 35 36 37 37 37 43 49 51 54 54 47 57 55 55 56 55 53
61 63 65 64 64 58 55 52 47 43 38 34 33 32 31 29 28 29 29 29 30 30 33 34 36 37 39 41 38 37 39 47 51 57 60 58 59 61 59 54 56 55 50
58 64 64 64 63 60 55 48 47 40 38 35 35 34 32 31 31 32 32 33 33 34 36 37 38 41 41 39 38 38 47 52 53 61 60 59 61 60 55 52 53 54 61
61 65 67 66 63 61 53 46 40 37 36 38 38 36 34 32 34 35 35 34 36 36 39 40 41 41 39 26 38 41 48 55 61 60 57 57 58 57 54 49 53 57 67
58 65 63 65 61 58 49 40 39 37 37 37 36 35 32 32 35 34 35 36 39 39 41 42 42 42 31 43 44 42 43 51 59 63 56 56 57 56 58 60 61 60 64
61 63 62 62 57 53 43 39 36 34 32 33 31 31 31 32 33 34 35 37 40 43 43 42 43 43 45 44 44 45 42 54 64 60 59 57 49 61 64 69 66 71 78
59 62 63 59 55 46 40 35 31 32 33 32 30 30 31 30 33 34 37 40 42 43 43 44 44 46 36 44 44 48 47 56 62 61 60 61 65 73 61 59 68 87 88
62 66 60 57 51 40 32 31 33 33 33 30 29 28 29 31 34 36 39 41 43 46 46 44 45 45 41 47 49 50 52 53 57 55 59 67 65 63 60 76 94 82 78
62 58 51 42 36 32 29 31 33 33 30 30 30 29 31 32 35 39 42 43 46 44 44 40 42 45 44 54 56 56 55 60 59 72 76 66 57 60 81 67 67 73 60
57 47 41 38 34 34 31 31 32 30 30 31 31 32 33 35 37 42 44 45 46 47 49 46 44 47 52 59 59 59 54 59 79 82 69 60 65 91 61 58 57 60 63
52 42 40 39 38 33 31 34 31 32 33 33 33 35 37 36 35 43 46 47 48 50 48 48 53 56 60 60 58 59 59 63 60 68 62 66 81 60 60 60 63 66 71
44 39 39 41 39 36 30 32 33 33 33 33 35 38 40 40 43 46 48 50 49 47 45 48 54 57 56 64 60 61 62 58 58 65 73 73 62 60 60 64 66 68 72
46 41 38 37 36 34 33 35 35 34 35 37 40 42 45 48 46 49 50 50 50 54 50 54 57 60 57 58 56 53 57 61 74 76 69 61 60 62 63 63 62 69 82
48 44 42 39 37 34 36 36 36 38 40 42 45 49 52 53 53 51 50 53 52 56 54 58 56 60 60 55 55 56 56 65 69 61 60 58 62 67 66 66 68 71 76
56 55 50 43 37 36 38 39 40 42 45 48 51 55 58 58 57 55 53 50 50 51 51 52 52 51 56 58 59 61 66 65 64 62 64 69 76 77 72 76 80 78 81

GFSMW_sfc_rhum_036.txt.gz
RH
47 50 53 59 68 71 69 68 78 76 59 57 54 56 56 45 43 41 40 41 42 44 47 49 45 50 47 44 40 47 56 59 55 55 46 53 56 46 31 40 54 47 32
54 56 62 76 78 80 84 83 83 81 69 58 58 53 58 48 42 40 39 39 40 39 36 43 44 43 46 42 43 49 56 62 62 57 65 65 60 49 25 50 48 42 34
53 62 77 88 90 88 82 73 69 65 59 50 48 50 50 52 47 47 45 38 36 38 37 38 40 43 46 48 47 50 51 63 64 56 55 52 65 54 53 36 49 30 48
54 68 86 88 86 86 77 67 62 59 56 50 50 48 51 55 68 59 47 40 34 36 36 37 37 40 45 43 44 42 47 55 64 63 50 56 58 67 67 61 37 48 33
56 73 80 77 76 75 72 67 64 62 64 60 56 58 64 67 68 55 43 37 36 34 34 36 36 37 44 41 41 44 44 52 65 63 68 63 62 64 78 54 50 39 39
68 75 74 68 69 68 67 65 61 64 62 60 64 62 60 57 53 54 48 44 40 39 34 31 34 35 38 40 41 43 44 49 54 57 57 59 60 61 57 47 48 50 43
72 75 70 64 64 66 64 60 58 61 58 55 51 48 46 42 40 41 40 36 34 37 32 32 31 35 36 37 38 44 49 51 51 48 50 55 59 60 49 53 55 54 48
71 70 66 62 63 62 61 57 54 53 48 44 43 40 39 41 39 36 36 34 34 33 30 30 30 30 32 34 37 47 50 44 49 44 49 56 56 56 53 59 63 66 58
72 71 66 63 64 62 59 54 50 47 43 40 37 37 35 34 33 31 31 32 29 23 28 30 30 32 33 34 38 46 41 43 45 49 53 55 55 57 56 59 62 71 77
76 70 65 67 64 60 59 52 45 42 38 35 32 32 31 29 28 27 26 27 27 28 30 31 32 34 35 36 38 42 42 41 47 44 53 55 57 56 61 66 63 64 69
77 70 66 65 63 59 53 49 43 38 35 32 31 31 29 28 28 27 27 27 28 30 31 33 34 35 37 38 41 40 39 41 46 52 56 62 60 61 62 65 65 66 66
74 69 67 67 63 59 52 48 45 38 35 33 31 31 30 28 28 29 29 30 30 32 34 36 37 38 40 42 43 43 43 43 50 55 62 64 50 64 66 66 66 64 60
73 70 71 66 64 57 52 50 44 39 36 34 33 33 31 30 31 32 32 32 34 35 37 38 41 42 44 46 44 43 42 47 53 58 64 67 64 64 67 67 64 61 55
71 71 70 68 61 56 52 48 43 38 36 35 35 35 34 32 33 35 35 35 36 38 40 42 43 45 44 44 42 45 51 55 54 60 67 66 66 66 66 58 58 60 63
73 70 71 69 64 59 51 45 41 38 36 39 39 38 36 36 36 36 36 37 39 40 42 43 43 44 42 29 44 48 53 57 58 62 62 61 59 60 56 53 58 61 77
70 68 68 69 66 57 49 40 39 40 39 40 39 38 36 36 37 37 37 37 40 41 43 44 45 46 34 46 46 46 47 52 59 62 58 59 60 61 63 65 64 61 65
68 69 68 66 62 52 41 40 39 38 37 37 35 35 34 34 36 35 36 39 41 45 46 46 46 47 49 46 49 52 50 59 62 64 61 60 52 68 73 72 63 67 82
68 68 67 64 57 46 41 37 35 35 36 36 33 33 34 33 34 35 37 41 43 46 47 46 48 51 40 49 53 57 60 62 62 65 66 68 74 69 59 57 75 91 78
66 67 65 59 48 40 35 34 35 34 35 32 31 31 32 33 35 37 41 43 46 49 48 48 50 48 50 51 56 57 60 61 64 60 64 76 67 62 63 83 84 67 62
69 66 57 48 40 35 32 32 34 34 32 31 32 32 34 34 36 39 44 46 48 47 49 47 46 48 49 54 57 56 56 63 64 74 81 69 59 65 78 59 62 73 63
58 50 45 42 36 33 32 33 35 32 33 34 34 34 35 36 39 45 47 48 51 51 52 48 49 49 53 62 59 58 55 60 86 72 65 62 73 71 61 61 62 65 74
50 44 42 39 36 34 33 34 33 35 36 37 36 37 38 38 38 47 49 51 53 53 54 54 56 58 61 62 59 58 58 60 59 68 69 76 69 62 62 63 67 71 68
46 42 41 39 40 37 30 33 37 37 37 36 37 41 43 46 46 51 54 55 54 58 59 57 63 59 56 67 62 61 60 59 63 71 69 67 63 63 63 67 67 66 68
46 42 39 39 39 36 35 36 38 37 37 40 44 48 49 54 53 53 51 57 62 66 58 58 62 64 60 60 58 57 61 68 76 78 72 61 62 65 65 63 63 64 70
45 41 39 37 40 39 39 39 39 39 41 45 47 50 54 59 59 55 58 66 64 63 60 64 63 65 66 59 58 57 58 65 64 62 62 61 65 68 67 66 68 70 72
50 48 43 38 41 40 41 43 43 44 46 46 50 56 62 63 58 62 64 56 53 54 53 54 55 56 59 60 61 61 65 63 65 65 67 73 77 78 74 78 79 78 81

GFSMW_sfc_rhum_039.txt.gz
RH
45 46 50 56 69 67 68 72 80 68 59 57 55 56 52 47 44 40 37 36 37 41 44 48 45 47 44 43 40 50 54 61 59 53 52 56 57 50 35 46 51 42 34
51 55 59 72 75 78 81 90 83 74 67 59 56 55 47 42 40 38 34 34 38 37 37 43 44 42 44 43 45 49 52 59 67 62 68 60 50 50 27 45 51 39 45
49 58 67 83 89 89 92 91 81 68 59 52 49 47 41 37 35 34 36 39 37 38 39 39 42 43 46 49 51 49 51 58 63 60 50 49 54 60 55 40 52 33 52
48 53 78 91 92 91 89 80 69 58 52 49 48 45 45 47 50 41 42 40 36 37 38 37 39 42 46 44 47 42 49 57 62 63 50 59 61 60 64 60 38 48 31
50 64 81 89 90 87 84 76 66 61 61 57 52 53 59 52 48 42 37 36 36 35 35 37 37 40 46 42 43 44 46 54 62 64 69 65 63 66 77 52 48 35 35
57 74 90 83 83 80 77 73 67 68 64 62 61 56 54 50 46 50 43 42 40 40 35 32 36 37 42 42 44 44 43 49 51 54 54 59 62 66 64 55 48 48 42
80 87 83 79 76 76 74 69 65 69 65 62 60 56 52 48 45 44 43 36 36 38 33 32 33 37 38 39 42 46 49 51 51 50 51 58 60 62 57 57 58 56 52
76 80 78 74 73 70 69 65 62 61 55 52 48 44 42 44 42 40 38 37 36 36 32 32 33 34 35 37 40 49 51 46 50 46 52 56 59 61 62 64 70 75 62
79 78 72 70 70 67 64 60 56 52 47 43 40 39 38 37 35 33 33 35 32 27 31 33 34 36 37 38 42 49 44 45 47 51 54 58 61 66 68 68 70 78 84
78 72 68 68 65 62 60 54 48 44 41 37 33 33 32 30 30 29 29 29 30 31 33 35 36 38 39 40 42 47 46 45 49 48 55 59 65 67 72 76 72 72 79
76 70 68 66 63 58 52 48 42 38 36 33 32 30 31 29 28 29 29 30 31 33 35 37 38 40 42 43 46 46 43 45 47 51 58 62 64 70 68 70 72 75 74
72 71 69 66 61 57 50 44 39 35 34 32 31 32 31 30 30 31 32 32 33 36 38 40 41 43 44 46 46 47 46 49 52 55 61 63 49 67 69 73 72 72 69
74 72 70 65 62 54 49 43 38 35 34 32 32 33 32 32 33 34 34 34 36 39 41 42 44 45 47 47 46 45 48 53 56 60 63 62 68 71 68 68 71 70 62
74 73 70 66 60 54 49 42 39 36 35 35 35 35 35 34 36 37 36 38 39 41 44 44 44 46 46 46 44 48 57 60 57 61 65 67 69 70 69 60 61 67 66
78 72 72 69 62 55 49 42 40 36 36 38 41 40 39 40 39 38 39 40 42 42 44 44 45 47 44 31 52 55 58 61 63 64 64 62 63 60 58 54 60 62 76
76 72 70 68 61 54 47 40 39 41 39 40 42 42 41 39 39 38 39 40 42 44 45 46 47 48 36 48 50 52 64 65 66 68 63 64 62 64 64 66 64 60 65
76 73 71 65 58 51 42 41 40 41 40 40 40 39 38 37 38 37 39 41 44 47 47 46 48 50 51 48 52 55 65 70 72 70 66 64 54 67 77 74 65 81 82
73 72 70 65 56 46 42 40 39 40 40 40 37 36 35 35 36 38 41 44 45 46 46 48 50 53 43 52 53 57 66 72 72 70 71 72 72 82 61 69 96 78 68
70 71 68 61 49 43 39 38 39 39 38 36 34 31 32 34 38 41 43 44 46 48 50 51 52 52 52 55 56 58 63 63 70 69 67 79 70 63 65 77 75 65 63
74 72 61 51 45 40 36 36 37 36 34 33 31 32 36 37 40 42 45 46 49 48 49 47 50 54 55 58 58 57 58 64 63 81 78 66 60 65 75 58 63 77 65
69 58 52 48 41 36 34 36 35 35 34 32 34 38 38 40 43 46 47 52 54 52 56 53 57 58 60 69 59 59 57 61 65 63 68 65 71 68 62 62 64 68 72
61 51 46 41 37 35 35 37 36 38 34 40 40 41 44 39 41 49 53 54 56 60 62 65 63 64 67 62 60 60 59 58 59 73 71 72 68 64 64 65 69 68 67
50 45 42 41 41 37 30 35 40 40 41 40 43 45 46 48 50 54 56 58 62 67 69 64 69 65 59 68 63 63 61 59 65 67 67 67 66 65 65 69 69 68 66
48 43 41 41 41 39 37 36 41 40 40 44 49 51 53 57 57 54 52 66 71 74 63 64 66 73 65 65 63 61 63 70 65 68 68 65 64 67 67 65 63 65 70
46 43 41 39 41 40 40 41 41 41 43 48 48 54 57 62 61 57 63 74 70 68 67 70 69 70 70 62 60 59 59 64 61 63 65 64 67 70 69 68 69 70 73
46 44 42 40 44 41 43 45 44 45 47 48 50 60 63 64 60 65 66 56 54 55 55 55 56 57 60 62 63 62 65 64 67 67 72 75 77 79 76 80 80 78 82

GFSMW_sfc_rhum_042.txt.gz
RH
47 49 45 49 58 62 68 87 93 86 66 63 62 61 59 52 45 42 45 37 39 35 36 45 43 45 42 44 39 49 49 64 60 52 52 56 52 58 43 46 56 41 40
56 50 53 65 74 69 74 92 84 79 70 65 64 61 71 57 42 43 45 45 31 34 36 42 43 42 44 45 44 46 49 58 68 61 66 55 44 47 30 47 51 43 49
53 55 61 71 83 85 89 92 83 73 66 57 50 56 54 43 38 43 45 35 32 38 38 40 43 45 48 53 49 49 53 55 59 66 52 44 47 64 53 48 59 38 50
52 54 60 80 89 90 93 92 74 65 58 54 51 52 64 62 40 38 36 36 38 39 38 39 41 44 48 46 46 43 52 57 61 59 50 57 62 56 59 58 40 49 32
51 54 61 68 90 94 96 84 68 64 63 56 52 50 58 51 38 34 33 32 38 38 38 39 40 43 48 44 44 45 46 55 59 62 65 64 63 69 76 52 53 40 37
59 56 66 91 95 94 88 75 68 71 65 59 57 48 41 37 38 37 38 43 43 42 37 35 39 41 44 43 46 46 44 49 51 54 54 60 63 66 65 65 55 54 46
65 85 93 93 92 90 84 74 67 72 66 56 47 39 35 34 40 42 40 38 39 41 35 34 36 40 41 42 45 48 49 51 50 50 52 61 60 63 66 67 64 61 54
78 84 88 87 86 83 78 71 69 69 62 54 50 47 44 45 44 40 39 38 37 38 34 35 36 37 38 40 44 52 51 48 51 47 52 58 60 64 67 70 74 73 62
88 89 89 84 82 79 74 69 65 61 55 50 46 44 41 39 36 35 35 36 36 30 34 36 37 39 40 41 45 51 47 49 49 51 55 60 63 68 72 75 77 78 82
87 91 86 82 76 72 67 60 54 51 46 42 37 36 34 32 32 31 32 33 33 35 36 37 39 41 42 44 46 49 49 46 51 48 55 60 65 69 74 78 78 80 81
92 86 81 75 69 63 57 51 46 42 38 35 32 30 30 29 30 30 33 33 35 36 38 39 41 43 45 46 47 47 44 49 54 55 59 62 63 71 75 80 75 78 80
82 79 74 69 63 58 51 45 40 37 35 32 30 31 31 31 32 33 34 35 37 39 40 42 43 44 46 47 47 47 49 54 58 60 63 65 50 68 72 74 76 78 74
80 77 71 66 59 53 46 40 37 35 33 31 31 33 34 34 36 37 37 37 39 42 42 43 45 46 48 47 46 46 52 59 62 64 67 68 70 74 78 76 75 75 65
78 74 69 64 56 48 42 38 36 34 34 33 33 35 37 38 38 39 39 41 42 41 44 44 45 47 47 46 44 54 62 65 63 66 69 70 72 74 75 70 65 62 68
77 70 69 62 55 47 41 37 36 35 34 36 39 41 43 42 42 42 42 43 43 43 45 46 46 48 45 32 55 61 67 71 70 71 68 67 69 65 62 57 63 65 73
74 71 66 61 55 45 41 37 37 40 38 39 42 45 43 42 44 42 42 42 42 44 47 47 48 50 37 48 51 54 70 72 70 74 68 71 67 70 66 66 66 63 82
74 72 67 59 52 45 38 39 40 40 40 41 42 42 42 42 42 37 39 41 44 48 49 49 50 51 53 51 54 54 66 71 77 75 71 66 58 70 74 78 71 86 74
74 72 66 60 52 44 42 41 40 41 42 42 40 41 41 39 36 38 40 44 48 50 52 51 52 54 47 56 55 58 69 74 75 75 76 77 76 81 64 67 97 85 69
73 70 64 57 48 44 41 40 43 42 40 39 39 37 36 35 38 41 45 49 50 52 53 52 53 56 60 58 59 60 71 71 70 69 74 82 70 65 64 79 77 68 66
76 74 62 52 47 43 39 40 41 38 38 37 36 34 35 37 42 47 49 51 52 48 48 48 54 59 62 62 62 58 64 70 64 68 69 67 62 65 75 60 65 78 68
76 62 56 51 45 40 38 40 38 38 36 35 34 36 38 45 48 50 51 53 54 54 60 59 65 65 67 74 61 60 61 65 65 64 66 68 69 66 63 63 66 70 68
67 58 52 46 41 38 37 38 36 39 37 36 38 43 48 41 44 51 55 56 62 65 68 72 68 68 72 65 62 62 62 60 61 68 68 66 65 65 65 66 70 69 68
57 50 47 44 43 41 32 34 38 39 38 38 46 50 51 50 52 56 59 62 68 73 75 69 73 69 60 72 65 66 65 61 64 65 64 67 67 66 67 69 70 69 68
53 47 45 44 44 40 34 35 40 40 39 49 53 56 64 59 60 53 55 72 74 77 66 69 70 76 69 70 65 66 66 66 66 67 69 67 65 68 68 66 64 65 70
50 47 44 42 44 40 40 41 39 41 47 52 53 59 60 63 63 58 67 77 77 71 70 73 72 72 71 63 61 61 60 63 63 64 67 66 69 72 70 69 69 69 71
48 46 44 42 42 40 43 46 46 48 50 51 55 66 62 67 61 68 71 58 55 57 56 56 57 57 61 62 65 64 64 65 68 70 74 77 78 80 77 79 79 77 82

GFSMW_sfc_rhum_045.txt.gz
RH
40 41 42 40 40 44 49 53 71 81 77 70 67 62 61 67 65 47 49 47 50 34 35 36 31 32 29 28 25 32 33 34 37 29 28 30 31 38 33 24 32 30 31
44 43 42 42 43 45 52 64 76 78 70 67 64 60 72 77 72 57 48 49 40 36 30 32 32 31 30 30 30 32 33 34 43 33 37 31 23 28 24 34 32 29 28
33 36 44 45 55 59 57 70 76 71 66 59 59 61 66 68 65 58 56 44 32 33 31 32 31 34 34 35 35 36 39 34 40 37 30 28 26 34 28 29 35 26 26
34 32 35 49 59 60 68 75 72 65 58 57 57 61 68 71 58 58 56 52 35 34 30 32 31 32 34 33 32 32 35 37 35 36 31 38 34 29 28 30 27 29 25
34 33 36 45 52 71 77 76 66 61 56 54 57 63 73 71 57 51 46 42 31 31 31 32 34 32 33 33 33 32 33 32 36 37 37 37 36 43 42 31 29 30 28
35 37 41 51 65 81 82 74 65 61 56 55 56 65 65 55 42 46 39 36 32 32 32 31 32 32 33 34 34 34 36 33 37 37 36 37 36 33 37 39 39 40 31
40 45 61 69 78 85 81 71 64 62 55 50 47 43 36 35 32 36 32 32 28 30 31 30 29 31 34 35 36 39 43 42 39 36 34 40 38 41 42 45 43 43 39
47 56 63 73 78 83 76 66 63 61 53 46 38 33 35 36 33 32 30 27 26 28 30 29 29 30 31 32 35 40 40 42 39 37 36 39 39 42 44 46 50 54 40
44 65 74 76 79 80 72 67 63 59 51 44 38 36 35 34 33 29 27 27 27 27 29 31 31 32 32 33 38 37 34 35 36 37 39 41 42 45 46 48 50 55 59
42 64 79 82 79 75 68 63 57 53 47 40 36 33 30 27 27 26 27 28 27 29 30 31 31 32 33 33 33 33 35 34 38 38 41 42 44 45 48 50 51 53 58
55 76 82 79 75 67 61 55 50 46 40 35 31 28 27 25 24 25 26 27 28 29 30 30 31 32 32 32 30 32 34 39 42 43 45 47 46 48 47 50 52 54 55
73 84 80 72 67 60 53 48 43 38 34 30 27 27 26 26 25 26 27 28 29 30 31 31 31 32 33 32 30 34 39 43 46 47 49 50 44 48 48 50 53 57 56
85 78 72 67 60 53 45 40 36 33 29 28 27 27 28 27 27 28 30 30 31 32 32 32 32 32 35 33 32 37 42 47 49 50 52 51 50 50 51 54 59 59 58
80 74 68 61 52 45 39 35 32 30 28 28 28 30 30 29 29 30 32 32 33 33 33 33 34 36 34 33 35 44 48 51 51 54 53 52 53 55 58 60 57 56 55
78 71 63 54 46 40 35 32 31 29 28 31 34 35 34 33 33 35 35 35 34 34 35 35 35 35 35 27 43 48 51 54 55 53 51 51 57 65 61 56 56 57 67
75 65 57 49 43 38 35 33 33 33 32 34 37 39 36 34 37 37 36 36 36 36 36 36 37 36 31 49 52 51 50 54 54 53 50 52 62 61 64 66 65 64 72
69 62 54 47 41 36 34 34 34 34 34 37 37 36 35 36 37 36 35 36 36 36 37 36 37 37 39 52 54 54 51 53 53 52 53 54 51 62 61 68 69 81 77
65 59 52 45 39 35 35 35 35 36 38 37 35 35 34 35 36 35 35 37 36 36 36 37 39 41 40 58 55 59 52 54 53 54 55 57 59 62 62 59 98 80 56
62 57 50 44 39 37 36 37 38 37 36 35 34 33 32 34 34 36 36 37 37 37 38 39 42 44 48 60 60 57 52 54 54 54 55 57 55 62 63 79 82 57 54
64 59 50 43 39 38 36 37 38 34 34 34 33 31 33 34 38 37 38 40 39 38 39 40 45 55 49 62 61 56 53 57 54 55 51 60 58 63 74 60 59 67 56
65 54 48 43 40 37 36 37 35 35 34 32 33 34 36 38 38 40 40 41 42 43 45 48 50 51 53 54 61 61 54 56 60 56 57 56 64 71 62 63 56 63 68
63 53 49 45 39 36 37 36 35 33 32 34 38 39 39 35 39 41 42 44 47 48 51 56 52 51 52 60 61 62 62 60 56 60 59 58 66 65 65 63 70 70 68
57 49 46 43 41 37 32 36 35 33 35 37 42 42 41 42 42 42 46 46 51 53 56 56 57 55 51 53 65 66 66 61 62 60 61 67 67 65 63 68 70 70 57
53 47 45 43 41 35 34 34 34 34 36 41 46 46 46 48 46 45 46 52 55 58 57 58 59 60 56 55 54 56 56 62 64 64 62 64 64 67 66 61 58 56 60
51 46 43 41 39 35 34 33 34 36 40 43 47 50 50 49 49 49 50 56 58 59 56 58 57 58 60 55 60 61 57 60 60 62 59 55 58 60 60 60 61 61 62
48 46 43 41 39 34 35 39 40 40 43 48 50 51 50 52 51 54 53 56 54 56 55 55 54 52 60 63 66 65 64 65 68 63 61 64 66 69 67 70 71 70 79

GFSMW_sfc_rhum_048.txt.gz
RH
24 25 25 27 30 29 28 27 30 38 46 53 56 60 63 60 71 68 56 48 39 34 35 35 33 25 24 22 20 24 26 26 24 21 19 22 22 28 27 22 21 23 22
15 18 22 25 26 29 30 30 33 40 50 52 54 53 56 73 78 75 59 52 40 32 37 26 30 24 24 24 23 24 26 26 28 25 28 23 20 22 26 20 22 20 20
16 13 13 22 28 30 30 33 36 45 52 53 55 57 61 66 69 63 56 46 36 29 32 31 25 28 26 28 28 28 30 27 28 26 25 24 24 22 18 23 18 20 19
20 18 16 14 22 28 33 35 40 49 53 56 56 60 64 71 66 64 54 46 36 36 31 29 24 26 25 26 26 24 24 26 27 27 21 29 24 23 22 19 19 20 19
19 20 22 22 18 30 38 43 48 52 54 54 54 58 63 65 61 55 48 45 41 35 31 25 26 25 24 25 26 26 25 22 26 27 26 26 25 27 30 28 22 21 21
19 21 22 24 25 30 48 54 54 54 53 55 54 58 61 59 59 54 53 51 47 40 27 24 25 25 26 27 27 27 28 25 28 27 27 28 28 25 29 29 30 31 24
17 21 22 26 31 34 53 57 54 55 53 54 55 56 56 52 53 47 52 48 30 30 27 24 23 25 29 28 28 32 37 35 32 29 25 27 28 29 32 34 33 31 27
18 20 21 26 34 44 52 54 53 54 52 54 55 50 45 44 43 38 34 29 24 23 24 22 23 24 25 25 28 32 32 36 32 31 29 30 29 31 34 37 39 39 30
22 24 24 33 35 45 53 53 52 52 50 49 44 38 34 34 32 28 27 27 24 22 24 24 24 24 24 24 30 27 24 26 28 29 32 33 32 34 35 36 38 42 45
32 33 28 30 40 46 52 52 49 49 46 41 38 35 31 28 26 25 26 23 20 22 24 24 24 24 23 23 23 23 25 26 28 30 33 33 33 34 36 39 38 39 43
40 38 36 29 42 51 55 52 48 46 42 38 34 31 26 25 24 23 21 21 20 21 21 22 22 22 22 21 20 22 26 29 32 33 35 37 36 37 34 35 36 39 40
41 39 35 43 55 58 55 50 46 43 39 33 29 27 26 24 22 21 21 19 20 20 21 21 20 21 22 21 20 23 28 32 34 36 38 38 32 37 35 36 39 42 43
45 40 51 57 58 55 50 46 41 37 31 28 26 26 25 22 22 21 21 20 21 22 22 22 22 22 24 22 21 26 30 34 36 38 40 40 38 38 39 40 45 46 46
62 57 56 56 54 51 46 40 34 30 28 27 26 26 24 23 22 21 22 23 23 23 24 23 24 25 23 24 27 33 36 36 36 40 42 40 39 41 43 45 44 44 50
67 63 60 56 52 44 37 32 30 28 26 28 28 27 25 24 24 25 25 24 24 24 25 25 25 25 27 21 36 37 37 38 38 38 38 38 44 58 59 51 54 50 56
69 62 56 51 43 38 34 32 30 30 29 30 29 29 26 25 28 27 27 27 28 27 27 27 26 26 22 45 51 50 40 38 40 39 37 37 46 48 58 60 61 63 74
63 57 52 45 39 36 33 32 30 29 30 28 27 26 26 28 29 28 28 29 28 27 27 27 27 26 28 49 54 55 43 41 40 40 40 39 38 49 46 55 59 63 76
65 56 46 41 37 33 32 30 29 29 30 28 26 25 26 28 28 28 29 31 28 27 26 27 28 30 28 53 56 58 43 40 40 41 42 44 45 45 49 50 80 78 50
54 49 42 39 35 31 30 29 31 30 29 27 26 25 25 27 27 29 31 29 27 27 27 30 31 31 31 48 59 55 42 41 41 40 41 45 45 53 59 68 86 50 45
48 44 38 34 32 31 30 31 31 29 28 26 24 23 25 26 30 32 30 30 28 30 29 30 30 36 33 43 57 54 43 44 42 43 41 50 50 58 66 62 54 58 44
49 41 37 35 32 30 30 31 30 30 26 23 23 25 28 31 32 30 29 30 31 32 29 31 29 32 36 38 54 59 49 46 49 47 42 42 56 61 62 63 52 53 60
57 47 44 36 32 30 31 32 30 26 25 28 32 34 33 31 28 31 30 31 31 32 30 32 31 30 31 41 48 61 62 58 50 49 47 48 61 63 64 60 64 68 68
48 40 38 36 32 31 29 32 31 31 33 35 37 35 31 30 30 30 33 31 32 30 32 34 34 33 33 33 48 57 57 56 54 54 56 62 62 63 56 58 67 65 49
46 40 38 36 35 33 32 31 32 32 35 37 36 33 32 32 32 34 33 32 32 34 37 36 37 37 35 36 40 45 47 52 55 58 57 54 56 55 54 49 49 47 52
45 41 38 35 34 32 32 31 33 33 36 36 35 36 36 32 33 35 32 33 36 46 42 40 40 42 44 43 58 59 53 56 56 60 49 44 43 47 47 50 52 53 55
43 40 37 34 34 32 33 34 33 34 34 35 35 35 34 33 35 34 31 50 52 53 52 52 52 46 55 62 66 65 64 65 66 57 48 47 53 56 56 61 63 64 74

GFSMW_sfc_rhum_051.txt.gz
RH
18 18 20 20 21 22 23 22 24 27 30 39 46 48 49 76 89 84 67 63 54 43 36 34 34 35 35 26 24 27 28 30 26 28 32 32 29 32 32 32 26 27 26
15 16 19 20 22 24 27 26 25 26 32 39 44 45 58 80 86 83 61 50 45 44 50 45 42 31 28 26 26 27 30 31 32 32 39 37 30 28 29 30 24 24 25
16 13 13 18 25 25 26 28 27 28 34 40 45 52 68 72 75 76 73 59 52 47 50 44 46 40 32 36 34 35 38 38 34 31 32 36 36 30 27 26 25 22 26
17 16 15 14 17 24 27 29 30 30 36 45 51 61 68 75 72 73 63 54 44 42 40 37 33 33 34 35 36 27 28 32 33 35 24 35 28 31 30 27 25 23 21
16 17 19 20 16 20 32 34 32 34 40 48 53 60 61 65 64 61 52 48 45 43 44 46 47 34 35 33 34 29 27 24 32 34 32 29 29 28 34 38 30 26 25
14 15 17 20 21 26 32 40 38 40 45 55 52 56 61 62 59 56 52 55 51 47 40 33 31 30 32 32 31 30 30 28 34 31 29 31 33 31 36 36 37 37 29
14 14 17 20 22 27 30 38 42 45 49 52 51 53 58 57 56 51 56 55 51 46 35 33 28 29 33 31 31 38 44 43 40 32 29 28 30 32 33 38 40 38 33
16 18 17 19 20 28 31 34 45 47 48 51 52 55 54 53 52 49 44 38 36 39 30 26 25 26 26 27 32 38 40 43 38 34 34 34 32 33 36 41 45 48 40
21 21 20 22 22 23 30 39 46 47 50 52 55 54 50 48 49 39 32 31 29 27 27 26 24 24 24 24 33 32 25 26 29 32 35 36 35 38 39 40 42 49 53
28 27 28 27 28 26 30 40 43 47 51 54 51 47 44 38 34 30 29 29 26 26 26 24 24 24 23 22 23 23 25 25 28 31 33 35 35 36 40 44 42 42 47
26 26 31 31 30 27 35 43 45 49 52 48 42 40 33 30 29 28 26 26 24 24 22 22 22 21 21 20 20 21 23 27 30 32 35 37 36 39 37 40 40 44 45
43 40 42 39 32 30 42 47 47 48 45 41 38 34 29 27 26 25 25 22 23 20 20 19 19 19 20 19 19 21 24 28 32 34 36 38 31 40 38 38 42 45 44
54 45 36 35 31 40 49 48 46 44 40 37 33 29 27 26 24 24 24 22 21 21 20 20 20 20 22 21 20 23 26 30 33 35 38 40 40 40 42 43 46 49 43
56 51 49 41 46 50 49 46 43 38 34 30 29 28 27 26 24 23 23 23 22 22 22 21 22 23 22 23 25 30 33 35 34 37 39 39 41 41 44 49 52 48 55
58 54 54 51 51 50 45 40 36 33 29 28 32 30 28 26 25 26 25 24 24 23 24 24 24 24 27 21 36 39 38 37 36 37 36 37 45 49 50 50 56 57 64
62 56 53 51 49 43 38 34 32 30 30 34 32 31 29 28 30 28 27 28 27 27 27 26 25 26 21 44 50 51 45 40 39 40 37 37 44 42 50 54 54 54 65
62 58 52 45 41 37 32 31 31 32 35 34 30 29 29 30 30 29 29 31 30 28 28 27 26 26 28 44 52 54 47 44 40 40 41 40 36 47 46 50 54 58 64
58 54 45 41 36 34 32 33 34 34 33 31 29 28 29 29 29 29 31 32 29 28 26 27 27 30 27 45 51 56 46 40 39 40 42 43 44 46 48 54 71 75 68
51 47 40 38 38 40 38 36 33 31 31 29 27 27 27 28 29 30 30 29 28 28 27 30 30 29 28 41 51 56 45 42 42 40 40 44 45 49 54 60 77 67 56
54 51 50 50 49 50 56 53 46 40 33 26 26 24 27 28 31 32 31 30 30 32 31 29 29 31 32 35 47 52 46 48 45 47 45 49 46 53 57 57 61 67 58
59 62 70 75 81 73 61 51 39 30 26 25 26 27 29 30 31 32 30 30 32 35 30 31 27 28 30 35 43 52 53 52 55 57 48 47 54 58 60 60 59 61 59
45 38 37 35 32 30 31 31 29 26 25 29 33 34 33 31 29 31 30 31 31 32 30 30 33 30 27 35 39 49 56 55 53 52 51 55 60 60 60 59 60 62 63
61 51 45 40 34 32 29 30 28 30 34 36 37 36 33 30 31 30 32 31 31 30 30 35 35 34 34 31 40 46 53 55 52 52 58 61 60 59 54 54 58 57 52
46 40 36 35 34 32 31 31 34 34 35 37 37 34 32 30 31 36 34 31 31 32 37 36 37 38 36 37 42 50 54 56 58 62 62 59 56 49 49 49 49 51 56
42 38 37 35 34 32 33 32 34 34 36 36 35 35 36 31 33 35 32 31 34 45 45 43 42 44 48 46 59 61 58 61 61 62 60 52 45 49 52 53 57 59 61
42 40 37 35 35 33 34 36 36 36 36 36 38 38 36 33 36 34 31 48 49 49 52 51 52 50 55 59 66 66 65 64 66 62 55 51 59 62 61 64 68 70 78

GFSMW_sfc_rhum_054.txt.gz
RH
24 22 25 25 25 26 33 30 35 37 42 57 61 66 69 82 91 87 78 76 71 53 52 52 46 45 43 40 35 37 40 46 43 44 43 44 43 42 40 40 38 36 32
22 22 25 27 29 30 32 36 36 36 36 43 58 68 96 90 95 90 82 71 62 67 57 56 54 44 39 34 35 38 43 45 44 43 47 49 42 39 36 46 33 34 32
22 20 21 27 31 33 35 38 37 40 37 48 68 83 87 87 90 83 80 64 61 67 71 66 67 66 72 66 48 41 42 49 44 39 47 49 52 42 38 36 38 29 38
23 23 23 20 27 30 34 39 40 40 42 55 69 82 89 96 95 87 75 64 58 56 55 56 57 49 48 41 37 35 35 42 43 43 34 44 40 44 44 41 36 33 29
26 25 26 25 27 30 35 39 42 39 45 48 68 77 88 90 82 65 58 56 54 48 52 43 39 42 47 35 35 36 35 37 45 46 44 40 43 39 47 55 47 43 40
22 24 26 32 33 33 38 50 48 49 52 61 72 75 81 80 71 62 55 53 53 54 45 42 45 43 44 39 40 38 41 42 43 43 42 46 48 49 52 55 53 52 44
25 25 25 26 32 34 39 39 56 53 59 78 74 72 76 73 67 61 55 52 52 53 52 47 44 49 46 42 46 54 54 51 53 42 44 42 44 46 48 54 61 62 52
23 26 30 30 32 42 39 41 53 61 72 72 72 72 68 68 62 58 51 47 45 44 41 36 37 37 39 43 50 56 55 52 56 43 44 48 47 48 51 56 64 61 64
30 34 33 29 31 37 44 44 58 63 72 74 70 67 65 64 61 51 44 42 37 34 32 30 33 35 32 38 45 49 38 36 39 43 46 50 51 53 55 58 60 68 66
38 38 37 37 39 37 38 45 60 67 71 74 61 62 60 56 48 40 38 37 30 29 30 29 30 31 32 32 35 36 32 34 42 44 42 48 51 52 57 61 61 62 67
52 52 50 45 38 42 44 54 62 66 67 60 56 54 48 43 36 32 30 27 28 27 32 28 29 30 28 27 29 29 32 34 40 43 46 49 48 56 56 57 59 62 66
63 60 58 53 48 50 49 57 56 61 55 50 44 42 38 33 30 28 26 29 26 25 26 25 26 26 27 24 25 28 31 37 42 44 48 51 39 55 56 58 59 63 63
63 62 59 61 53 46 44 61 60 54 47 43 39 36 35 32 29 27 26 25 24 27 24 27 27 29 30 28 27 31 35 40 44 47 50 52 54 59 60 60 67 70 56
62 65 86 84 54 44 57 60 52 46 42 39 37 37 36 30 26 25 25 26 25 26 29 28 30 31 29 29 34 39 46 49 47 50 52 51 53 56 59 60 67 63 71
62 61 91 88 69 62 56 49 45 40 37 36 38 36 28 26 26 28 28 28 28 31 31 32 32 32 33 34 53 56 58 57 54 51 48 48 54 48 50 51 69 72 76
66 60 75 83 65 48 46 40 39 37 36 38 41 35 32 30 31 30 32 32 36 35 36 35 34 39 24 44 50 55 64 60 56 57 52 50 51 52 49 52 53 54 64
63 59 51 45 42 39 37 40 37 36 35 37 37 34 34 35 34 32 33 36 38 37 36 35 32 33 46 47 49 52 62 64 63 56 55 51 40 53 60 59 54 59 60
60 51 51 44 43 34 34 34 36 36 36 37 39 38 36 35 36 37 38 39 39 36 34 33 34 37 41 45 48 54 64 60 57 55 55 58 59 61 54 58 87 85 82
51 47 40 41 36 37 38 39 38 36 36 37 38 38 36 34 35 36 38 38 35 34 34 36 37 38 45 43 44 55 64 60 61 55 56 57 60 56 54 65 80 71 70
44 44 48 50 47 44 42 49 55 59 56 46 36 31 33 34 36 39 37 37 39 36 38 37 38 43 42 37 42 51 62 71 68 66 64 61 52 57 57 59 66 75 69
69 62 63 70 80 79 76 72 70 62 51 42 38 35 35 36 35 36 36 38 41 40 40 40 40 38 40 44 39 45 59 69 69 79 66 61 59 60 61 60 65 66 60
92 89 88 91 92 90 90 88 84 69 47 39 38 37 35 32 33 36 38 39 42 43 42 43 47 45 41 40 43 42 48 55 64 65 65 68 63 62 61 59 56 58 59
72 80 87 90 87 66 44 32 36 37 37 37 39 39 35 34 37 40 44 44 42 43 44 48 51 52 49 49 48 54 57 61 63 63 63 65 64 63 59 56 56 57 61
48 40 38 38 37 32 33 37 37 36 36 38 40 37 37 41 43 48 45 44 47 51 52 53 59 61 58 59 65 66 77 68 68 72 78 66 62 55 54 58 59 62 67
48 44 43 39 39 37 38 38 36 36 39 38 40 46 47 45 46 48 50 49 62 60 66 69 65 68 74 63 62 65 66 69 65 64 73 68 62 64 64 65 66 68 70
47 44 40 38 38 38 38 38 37 36 38 43 51 53 50 47 49 48 54 45 49 44 47 48 55 60 57 60 63 65 65 63 64 65 67 66 73 74 72 73 75 77 82

GFSMW_sfc_rhum_057.txt.gz
RH
32 29 28 22 25 33 40 41 54 64 66 80 84 89 90 88 88 77 62 78 69 63 60 61 51 49 46 44 40 45 40 43 42 41 38 48 47 43 45 45 40 37 35
31 28 29 32 32 30 36 44 44 46 58 71 80 89 98 99 98 95 84 76 68 67 58 52 56 45 42 40 38 40 47 44 42 39 50 45 41 44 44 51 40 39 36
30 30 30 30 33 37 37 38 44 45 44 61 91 96 95 95 93 87 80 72 64 67 64 62 63 64 70 63 55 42 46 47 44 41 46 44 46 43 38 42 41 32 40
31 29 28 27 30 35 38 39 44 48 46 76 85 88 90 95 97 95 90 82 68 63 54 59 65 64 64 61 52 37 40 47 46 46 37 46 43 37 32 40 41 38 34
33 30 30 28 28 29 41 43 44 49 49 61 72 84 94 98 94 90 82 76 72 67 64 59 52 53 59 44 40 37 36 39 47 49 47 43 48 45 47 48 49 45 43
30 30 29 31 35 36 42 47 51 54 53 53 81 86 96 96 92 80 75 77 72 64 54 45 53 51 54 53 54 42 38 42 46 46 47 49 49 51 52 56 56 54 50
27 25 29 27 32 35 36 40 44 56 59 86 84 88 90 90 86 77 74 73 71 59 50 47 44 51 56 56 57 53 52 54 50 43 47 47 48 51 51 57 61 65 62
29 28 30 30 33 34 36 41 39 58 80 89 87 87 88 88 83 79 76 65 62 56 48 41 45 47 51 54 56 56 58 58 56 45 46 51 50 52 54 58 64 72 70
52 52 47 38 33 36 39 42 45 66 90 87 82 84 84 82 82 78 72 61 55 46 40 42 41 44 44 45 48 52 37 46 46 45 48 52 55 58 59 62 65 68 76
55 56 58 55 52 47 41 48 50 72 90 80 77 79 82 79 72 66 60 46 39 36 38 39 39 39 36 37 40 38 35 35 44 47 44 50 55 55 60 63 64 68 73
64 62 56 63 62 58 52 50 56 85 84 74 71 69 71 65 58 51 42 35 33 33 33 34 33 37 30 30 33 36 33 36 40 44 47 50 52 58 60 63 63 66 72
71 73 72 65 62 62 57 49 70 84 68 62 60 55 51 49 44 41 34 30 30 30 29 28 29 28 27 26 27 28 32 37 41 44 49 51 43 57 61 64 64 70 71
74 66 69 65 68 69 68 54 74 65 56 52 48 43 39 36 36 31 30 29 30 30 29 27 28 27 30 28 30 33 36 41 45 48 51 54 58 62 66 64 70 73 59
63 61 67 93 73 74 73 70 59 53 50 46 42 40 38 35 30 29 30 36 36 38 29 31 31 32 31 33 43 48 52 52 49 54 55 55 57 60 61 62 68 66 79
65 62 89 82 62 67 65 55 57 52 46 45 44 42 36 32 34 37 38 36 34 30 32 30 31 33 37 38 55 57 58 58 59 57 54 54 56 51 51 54 70 77 83
67 53 61 77 79 51 54 51 52 54 47 45 41 37 38 39 41 38 37 37 33 32 33 34 36 35 36 52 53 56 61 63 63 64 61 57 57 55 50 50 52 54 67
62 48 43 40 50 77 61 57 48 40 36 36 37 38 42 51 55 50 40 44 35 34 38 38 39 42 51 50 50 53 64 66 65 62 61 56 45 62 65 63 58 60 59
50 45 41 39 38 38 38 37 38 37 39 41 44 56 71 66 58 40 38 43 44 41 39 37 38 43 47 49 49 53 64 66 63 62 64 67 69 69 60 65 84 84 81
45 43 41 42 41 40 38 37 39 41 43 48 56 67 72 61 54 60 65 53 38 39 38 41 39 41 57 45 44 55 65 65 70 65 66 69 71 64 58 66 86 80 78
46 51 47 47 51 49 49 52 56 60 63 59 61 75 64 55 47 36 37 41 38 39 40 38 40 42 41 37 38 46 63 70 70 72 72 68 59 60 60 63 70 78 70
61 69 75 75 66 67 72 81 86 94 91 72 58 58 57 46 37 39 41 44 42 40 41 41 42 41 43 45 39 41 56 64 76 82 72 69 65 64 63 61 68 66 58
86 79 81 88 90 84 88 94 98 100 91 76 73 66 54 42 41 43 41 42 44 44 44 47 49 50 46 49 47 49 55 59 74 74 74 74 67 64 63 60 57 59 62
95 88 94 96 97 91 89 96 98 97 90 73 56 45 38 39 38 40 44 45 45 47 48 51 56 55 53 56 57 60 63 66 69 71 68 67 66 62 62 61 61 62 65
87 85 87 90 88 74 60 55 43 39 38 39 42 41 40 43 45 51 47 49 51 54 54 57 62 66 65 68 68 72 82 74 71 74 87 66 60 61 62 64 64 65 70
63 62 54 48 46 42 40 38 38 40 46 48 46 47 50 49 51 52 50 59 62 53 54 68 64 71 78 67 63 64 65 69 66 64 74 67 66 70 69 68 69 70 72
46 43 41 41 44 41 40 39 40 41 44 44 52 55 53 50 52 53 54 52 50 46 47 47 54 58 52 54 58 62 62 62 61 65 67 72 77 79 76 77 78 80 85

GFSMW_sfc_rhum_060.txt.gz
RH
33 36 35 33 34 34 36 47 67 77 84 90 92 97 94 93 91 70 64 77 76 72 67 62 55 53 48 47 40 45 38 41 45 39 43 45 48 41 45 44 42 40 38
37 36 35 34 34 31 35 42 52 68 78 80 81 91 92 98 96 96 72 81 78 71 64 55 52 49 48 45 43 44 48 42 43 39 53 42 37 43 44 52 44 42 38
34 35 33 34 35 36 38 36 49 62 70 75 96 99 97 98 98 96 90 87 80 84 69 59 56 62 74 58 56 60 62 58 42 41 45 46 39 41 39 47 45 39 43
36 34 32 31 31 34 38 41 43 53 61 88 90 91 92 98 98 97 97 87 82 83 74 65 62 69 72 70 69 57 57 54 45 45 38 44 39 30 26 38 42 41 36
38 36 35 33 32 30 35 43 46 52 56 81 85 87 91 97 99 97 93 94 86 80 77 73 67 71 67 59 55 55 55 42 51 49 50 47 52 46 44 40 47 46 44
30 36 35 37 36 37 36 46 51 50 58 77 86 87 96 97 98 95 93 93 93 83 76 68 70 70 54 51 54 50 46 41 47 47 45 51 49 53 53 52 53 51 48
38 36 32 28 29 41 41 42 45 48 59 68 89 93 94 94 92 90 91 90 88 87 71 71 64 65 52 53 56 56 58 50 47 46 49 52 52 55 54 55 57 60 59
60 57 55 50 43 39 38 40 43 43 55 82 93 95 94 94 93 88 88 84 81 82 70 65 60 56 50 51 53 59 64 61 54 43 49 55 53 54 55 58 61 67 70
56 57 58 58 58 55 47 46 45 44 75 94 96 97 95 94 91 90 86 85 82 72 64 62 59 50 49 50 55 56 50 45 44 50 47 56 59 60 62 64 67 66 72
60 63 64 65 64 62 62 58 54 51 90 95 96 94 94 92 89 85 84 80 74 60 61 57 47 46 46 44 43 39 38 39 44 50 48 52 57 58 63 66 68 74 73
62 70 74 74 73 72 70 67 62 64 95 90 93 94 94 88 86 83 76 68 56 51 44 41 42 40 41 43 38 38 34 37 44 47 48 51 53 60 62 66 67 68 74
74 81 78 70 69 66 67 67 64 80 91 86 88 90 86 83 81 75 66 52 48 42 38 34 34 34 34 33 31 30 34 38 42 45 51 51 44 57 62 67 68 70 72
81 74 75 83 89 79 74 68 66 91 80 75 75 74 72 65 62 52 46 44 38 35 32 32 34 32 32 30 32 33 37 41 45 51 55 55 59 63 67 69 71 74 62
72 72 93 87 60 59 80 81 86 74 68 64 62 62 58 51 44 35 35 36 35 36 36 31 30 33 35 38 42 47 50 51 53 56 57 56 60 62 64 64 68 67 78
66 62 83 82 59 58 63 67 68 68 60 61 56 53 48 43 37 40 42 39 35 34 35 33 33 39 41 42 55 57 57 59 60 59 57 58 59 56 54 56 72 76 82
61 47 45 72 78 65 66 64 70 68 61 54 54 50 43 46 49 48 45 45 48 48 50 57 55 53 49 55 59 61 62 59 61 63 64 60 56 60 58 57 56 55 72
52 44 43 46 67 84 82 87 84 79 70 63 51 49 51 54 56 57 57 63 61 62 70 64 54 56 57 56 56 62 60 63 65 66 65 60 51 69 71 70 62 64 62
48 42 41 43 45 47 50 46 43 50 65 67 67 69 74 79 79 77 78 69 74 70 62 46 43 56 51 52 52 59 65 68 68 68 68 71 75 76 67 72 86 86 82
44 44 44 44 42 40 43 49 59 62 67 75 80 83 88 98 92 94 95 84 75 57 42 44 42 52 56 48 48 62 67 62 65 66 69 74 78 68 61 71 88 83 81
49 49 50 53 53 52 54 60 65 67 76 82 89 95 100 100 97 75 74 68 62 52 46 41 38 42 43 43 38 51 64 64 64 69 73 69 64 63 63 65 77 83 70
72 69 64 70 71 66 66 77 84 95 94 92 96 99 99 87 62 59 55 53 46 43 42 42 43 48 47 48 41 44 59 64 75 78 72 70 69 67 63 62 72 68 61
79 78 86 89 85 83 86 94 98 100 98 98 98 99 95 84 69 59 49 48 46 44 48 52 56 53 50 53 53 54 58 64 76 75 76 77 71 65 62 62 63 63 65
83 83 89 91 89 87 86 97 99 98 96 94 97 96 89 82 69 58 49 45 48 50 51 52 55 55 56 62 61 64 63 65 72 76 72 69 64 61 66 65 64 66 69
85 82 83 95 96 90 88 94 93 90 90 97 96 92 77 49 49 52 50 51 51 52 52 55 58 64 67 69 73 73 81 72 73 77 83 62 61 64 64 67 66 66 71
84 84 88 90 70 63 68 62 61 50 48 46 45 51 55 52 53 53 54 57 54 48 53 64 61 69 72 64 61 65 66 75 69 67 65 67 69 72 72 70 71 72 75
77 64 52 51 45 45 43 46 44 46 57 60 56 58 56 54 57 61 65 52 50 48 48 56 56 56 53 54 60 63 63 64 61 67 72 76 81 83 80 81 82 83 88

GFSMW_sfc_rhum_063.txt.gz
RH
34 37 39 41 39 39 44 52 81 82 88 93 95 98 96 95 94 80 76 75 74 83 81 80 69 61 54 48 44 45 38 40 45 43 44 52 53 47 51 48 46 42 41
37 37 36 39 38 36 39 46 74 74 87 87 88 93 93 93 91 94 86 78 77 85 82 72 64 56 56 47 44 45 49 46 46 39 51 47 41 49 46 55 45 45 40
36 37 38 36 39 39 37 36 51 75 79 83 91 99 98 98 99 98 91 83 83 87 83 69 60 60 69 69 65 56 55 62 62 49 46 49 43 48 42 51 46 43 44
40 39 38 37 36 35 39 39 40 58 77 81 96 96 94 95 95 90 94 95 95 94 87 77 73 68 78 76 80 75 62 55 57 51 39 45 43 32 28 43 46 44 38
42 42 40 38 37 36 36 38 43 51 69 86 91 93 90 88 98 98 98 95 97 94 89 79 77 79 85 82 78 77 59 51 59 53 49 45 50 48 39 34 45 49 47
49 48 42 38 38 42 44 43 46 47 61 87 92 93 92 98 99 99 98 97 96 93 88 81 81 79 78 75 75 76 60 46 54 52 48 48 46 50 52 52 55 54 50
61 62 61 60 55 50 42 43 46 52 57 78 92 94 96 96 94 95 95 93 92 92 88 84 86 82 77 69 67 64 54 53 52 46 50 49 50 53 56 54 59 58 61
63 63 64 65 66 64 62 51 47 47 47 71 88 94 95 96 95 94 94 89 87 88 84 82 80 73 66 62 62 62 60 56 54 42 46 54 51 55 57 59 60 63 70
62 62 64 68 70 69 67 66 63 58 53 68 91 97 98 98 97 95 95 95 91 86 84 81 76 70 61 52 57 57 53 44 48 47 48 53 58 63 64 65 66 64 64
60 66 73 75 74 73 72 70 68 68 64 85 96 98 99 97 97 96 96 92 88 80 79 78 66 59 55 50 47 44 42 41 48 49 47 49 57 62 66 69 69 72 69
68 76 81 78 77 78 78 73 71 68 79 93 97 99 98 97 96 95 92 88 80 77 73 66 56 48 45 43 40 41 39 41 45 45 46 50 52 61 63 70 70 72 76
83 86 78 80 88 80 69 66 68 71 85 95 97 98 97 95 94 90 88 80 76 65 55 47 43 44 44 38 35 32 38 41 42 45 48 50 45 55 61 68 70 72 75
86 78 83 94 79 62 64 69 79 79 93 96 97 96 95 93 85 76 72 63 54 43 42 42 42 38 36 32 33 36 43 50 55 56 51 52 55 57 63 71 74 74 62
79 66 72 92 74 66 67 69 78 90 89 88 87 81 78 71 63 57 53 48 40 40 40 37 35 38 41 45 53 62 70 68 54 56 56 55 58 61 65 64 70 67 77
67 51 60 90 87 78 76 80 72 71 70 67 68 68 63 48 46 46 42 42 36 33 32 35 41 48 52 52 66 69 67 55 56 57 58 58 61 54 57 62 75 77 80
63 46 47 76 90 94 79 80 75 58 55 52 52 49 48 50 48 46 48 46 49 52 57 66 75 86 82 86 83 71 59 57 59 59 58 61 56 65 60 60 59 60 76
52 43 44 56 67 79 82 92 82 71 66 63 58 57 61 63 64 65 66 71 74 75 82 85 82 85 82 79 75 69 61 61 59 62 65 61 54 73 75 71 65 66 64
49 42 46 48 53 55 51 62 72 81 86 86 85 83 75 80 81 85 89 86 87 90 93 96 99 98 87 75 66 60 59 62 66 69 71 75 76 79 70 76 86 86 82
48 47 46 46 48 58 61 70 77 79 80 86 87 86 89 93 92 94 98 99 99 99 98 90 89 75 60 53 56 60 62 58 63 65 72 75 78 69 64 75 88 84 81
51 54 56 54 54 54 58 65 71 75 86 87 92 94 99 97 99 98 99 100 99 94 85 66 51 53 54 45 39 57 64 65 66 73 73 69 67 66 64 71 83 85 72
69 65 69 72 72 69 74 86 91 98 98 92 93 99 98 99 99 98 99 87 68 49 45 45 48 53 50 55 44 55 64 70 79 77 74 72 72 67 63 62 75 71 66
78 77 84 89 86 82 87 97 98 100 98 98 98 98 98 95 97 72 58 51 47 46 50 54 57 55 55 53 54 57 61 64 75 76 78 80 71 65 62 62 65 65 68
81 81 86 91 90 86 88 97 99 99 98 94 94 96 95 92 86 70 52 46 47 51 54 53 55 54 56 65 64 63 61 64 72 77 73 68 62 61 67 67 65 68 73
81 80 85 89 95 90 97 95 90 85 88 94 96 96 94 72 50 53 51 50 52 52 52 50 52 63 66 69 72 72 81 73 74 76 74 60 63 65 66 68 67 68 73
80 79 87 88 88 88 90 85 84 82 85 84 82 70 60 55 54 53 50 44 46 46 50 57 58 66 69 62 62 68 71 79 69 70 66 70 72 76 75 74 74 76 78
85 88 88 62 67 66 64 62 51 50 49 53 59 60 58 58 63 69 69 54 53 50 53 58 58 56 56 56 61 63 63 64 62 71 77 82 86 87 84 85 86 86 89

GFSMW_sfc_rhum_066.txt.gz
RH
41 42 41 40 42 46 47 48 91 93 94 96 97 98 97 96 96 92 81 80 81 86 86 91 91 79 72 63 49 49 42 43 43 47 49 54 56 51 56 59 52 51 45
44 39 37 41 39 39 46 48 58 83 93 92 89 89 91 93 94 95 91 82 86 89 89 88 83 73 67 58 48 47 48 45 49 42 48 45 42 54 51 58 48 50 46
41 42 42 39 41 41 41 43 49 67 88 90 93 99 98 99 100 99 96 90 89 90 88 86 81 74 71 67 58 59 63 71 62 51 51 50 44 54 45 54 56 49 48
44 46 43 42 42 39 40 41 43 54 86 92 95 90 90 91 94 94 93 94 92 93 90 88 81 77 76 76 72 76 83 81 74 61 48 49 48 39 31 44 47 46 42
45 43 42 41 43 43 43 41 42 48 58 90 94 96 95 94 96 98 96 98 97 94 94 88 86 82 84 82 78 81 78 74 77 73 76 51 50 38 33 31 46 51 51
68 67 65 61 61 56 48 48 48 49 54 78 95 96 96 98 100 100 100 98 98 98 95 86 85 85 85 87 83 79 75 66 70 65 54 58 49 47 45 41 50 50 48
67 66 68 70 71 72 70 58 54 48 53 70 92 96 95 96 96 98 97 98 99 99 97 88 88 88 88 87 83 78 80 68 68 65 63 60 50 55 51 46 56 47 57
66 68 71 76 78 75 75 75 72 70 62 56 75 92 97 98 96 95 96 96 95 94 94 93 91 91 85 83 79 77 71 65 62 48 49 53 52 52 51 52 53 57 63
67 72 75 78 78 75 74 78 78 76 73 70 77 88 95 99 98 97 97 97 97 96 92 92 90 84 74 65 67 68 59 51 50 49 50 54 57 59 60 62 56 54 54
73 79 83 80 79 80 78 75 74 76 77 76 83 90 95 98 98 98 98 97 96 91 91 90 86 78 66 54 49 49 44 45 50 51 49 53 58 59 62 65 65 64 62
83 88 85 82 88 79 70 66 65 69 74 82 89 95 98 99 98 98 98 96 93 90 86 82 78 70 59 45 44 43 42 44 46 47 48 52 52 59 60 64 69 70 75
87 88 84 93 80 68 66 68 69 81 83 87 92 98 96 95 96 94 88 81 82 75 70 62 55 46 42 41 40 42 45 50 50 51 52 54 47 56 57 60 61 68 71
88 82 87 91 80 71 71 73 75 84 95 95 98 98 93 89 87 84 78 74 70 61 52 48 46 44 44 46 49 52 54 61 67 71 76 76 73 71 64 63 66 69 62
80 66 75 82 88 79 82 85 77 82 92 91 83 84 83 78 72 68 66 61 54 54 52 44 41 40 42 49 57 66 76 78 75 76 77 74 62 57 58 58 63 68 74
72 58 64 79 93 92 90 88 76 73 76 77 74 68 64 58 54 51 47 45 45 41 42 45 52 56 62 64 77 80 84 78 79 78 74 72 73 60 58 64 74 77 81
59 46 47 72 92 95 96 90 80 68 60 57 55 52 51 47 47 47 45 47 52 57 67 72 77 84 84 85 83 82 85 89 83 88 74 60 57 67 62 60 60 63 82
49 45 47 55 67 90 90 85 79 73 68 66 65 66 65 69 71 64 65 70 76 79 86 90 90 94 93 91 90 91 92 92 88 63 61 59 55 72 75 73 67 68 66
46 44 48 53 60 66 73 73 76 78 81 80 76 77 81 88 91 87 91 85 85 89 94 96 98 99 97 96 88 89 93 76 63 66 69 72 76 80 73 77 88 88 81
50 50 48 51 71 70 76 74 77 81 80 82 86 86 87 92 91 94 99 98 98 99 99 100 100 99 98 91 81 66 58 57 60 64 71 76 79 70 66 78 92 81 80
54 53 57 58 59 62 65 73 82 87 93 93 92 93 98 98 99 98 99 100 97 98 98 98 98 92 90 74 54 62 61 65 70 73 74 69 69 67 63 74 83 85 75
70 66 69 73 75 78 82 94 96 98 97 93 94 99 100 100 98 98 99 99 98 96 84 78 61 55 52 58 56 61 69 73 80 79 75 74 72 66 63 62 75 73 70
76 77 86 90 85 84 91 98 99 100 97 98 98 98 98 97 98 93 81 59 53 47 49 52 55 54 57 57 58 60 61 63 75 76 79 83 68 63 60 64 66 65 69
86 85 94 90 88 87 91 97 99 98 98 98 98 97 98 99 98 64 53 46 48 50 52 52 54 54 58 66 66 65 62 65 74 76 71 67 61 64 70 68 68 67 76
81 84 84 89 93 92 93 96 94 86 88 95 97 95 85 59 53 54 51 52 52 54 52 48 53 65 64 68 70 71 82 72 72 74 72 61 65 67 68 69 70 70 76
79 82 85 92 95 93 90 86 84 82 89 92 86 74 62 59 59 57 49 44 48 48 49 56 56 64 69 63 64 68 71 79 69 71 68 74 77 80 80 78 78 80 81
89 91 83 86 89 88 88 84 78 75 72 68 65 63 62 66 70 73 75 56 56 56 56 58 58 57 56 57 60 63 62 64 62 72 82 87 90 91 88 89 88 87 90

GFSMW_sfc_rhum_069.txt.gz
RH
37 36 37 36 37 38 39 41 76 84 89 93 93 97 96 94 91 84 76 75 72 75 75 74 73 75 75 69 58 48 43 39 33 35 36 37 39 37 45 48 40 42 37
39 37 36 37 36 35 40 42 48 69 84 79 82 87 89 92 92 91 82 76 74 77 78 75 75 73 73 68 57 46 44 39 37 36 38 38 35 38 39 43 38 37 34
37 35 34 36 42 40 37 39 42 50 78 82 82 87 93 95 97 96 90 80 76 78 77 76 73 74 72 71 61 52 54 56 44 40 40 48 46 46 39 42 40 37 36
38 38 38 38 40 40 42 42 42 44 64 82 85 81 84 87 86 85 87 89 79 79 78 78 78 76 75 73 69 61 59 66 64 54 41 44 41 48 40 40 39 37 36
59 56 54 52 50 51 46 42 40 41 43 70 84 80 82 84 84 85 86 91 88 80 81 79 81 78 78 76 72 66 67 62 67 64 59 54 51 38 39 36 47 39 41
60 61 62 64 64 66 64 58 47 44 45 50 76 85 83 84 92 96 96 96 94 90 86 84 82 80 77 78 73 70 66 65 66 62 51 49 46 45 45 35 38 42 39
63 65 67 68 67 68 68 62 62 58 53 51 60 80 85 87 92 90 93 97 96 96 93 88 85 82 79 77 74 76 75 73 71 65 54 46 40 47 63 63 47 40 42
65 68 70 70 68 70 69 66 65 63 60 59 56 60 78 85 90 89 91 91 91 91 87 88 84 80 78 78 77 81 79 78 80 68 58 53 42 49 50 46 41 48 48
66 71 71 68 71 68 63 65 63 62 65 66 65 64 71 81 88 90 88 88 87 89 88 86 87 84 81 79 78 79 72 63 62 59 53 52 51 54 66 68 63 59 50
68 74 72 72 72 61 59 58 59 62 65 70 68 66 70 76 85 92 91 89 88 86 88 87 86 84 79 76 76 72 54 48 50 51 50 55 59 59 63 62 60 53 50
72 77 70 78 65 57 59 60 61 66 72 77 71 74 76 86 91 91 90 89 86 86 86 84 80 76 70 63 56 50 45 44 46 50 51 55 58 64 64 67 67 70 76
77 76 76 73 64 61 64 64 64 67 79 85 80 84 90 89 91 90 87 82 83 80 77 72 65 56 48 45 40 42 42 45 52 62 66 66 73 89 86 83 75 66 62
78 69 67 74 71 68 69 67 66 69 81 86 87 86 87 87 88 84 79 76 73 69 63 54 49 46 45 45 48 54 62 68 72 77 81 83 86 92 89 80 69 59 52
69 57 63 75 77 75 74 68 63 64 72 74 79 83 82 80 78 73 66 59 54 54 51 46 47 47 50 56 61 68 75 77 76 80 84 88 94 95 94 83 74 70 76
65 52 63 76 81 81 76 70 63 59 58 57 62 68 64 59 55 59 55 53 52 50 54 59 59 60 62 62 71 76 80 86 92 96 99 98 90 85 79 76 82 76 65
56 47 52 64 79 84 80 74 70 65 59 60 61 57 54 52 49 49 51 54 58 66 73 80 79 82 80 84 83 86 92 94 97 97 93 91 91 87 80 70 60 58 65
50 47 52 53 63 82 78 77 75 72 72 74 74 71 71 72 69 66 69 75 81 83 88 92 90 93 91 88 89 91 95 93 91 84 65 68 63 78 68 65 64 66 67
46 46 49 56 60 68 73 75 73 74 80 81 79 79 82 86 84 83 90 94 93 94 96 97 98 99 94 88 82 87 91 89 66 72 79 69 64 64 63 64 78 76 66
47 48 50 60 66 73 72 74 79 80 83 86 85 85 88 92 90 94 100 99 98 99 100 100 100 99 89 80 83 76 61 58 64 70 68 62 62 67 63 68 78 63 61
50 51 54 56 62 66 70 80 86 86 90 91 94 94 100 100 99 97 100 100 100 99 99 99 94 88 89 80 85 72 53 72 62 62 60 66 64 64 63 60 64 66 56
64 63 64 71 77 78 81 93 95 98 97 93 94 99 100 100 99 98 99 99 99 97 94 92 87 79 58 70 72 65 61 64 66 64 63 63 70 63 61 59 58 58 56
73 76 80 85 83 85 93 97 99 100 98 98 98 98 98 97 97 92 97 86 59 52 50 52 50 46 54 60 59 59 61 62 65 67 66 67 62 59 61 60 65 65 66
81 80 86 85 85 87 93 97 99 98 98 97 97 97 98 96 74 52 51 45 44 44 43 43 44 46 52 59 64 64 64 64 64 61 65 62 60 64 64 67 69 66 60
85 85 80 83 89 89 95 95 89 85 88 95 97 96 81 50 45 46 43 44 44 46 44 39 44 53 54 58 60 64 66 66 61 68 57 57 63 68 66 64 63 61 64
81 80 82 86 95 90 92 85 82 84 94 92 85 66 52 48 47 43 39 37 41 41 38 44 47 53 59 59 59 60 60 62 59 63 54 59 63 66 66 66 66 66 67
86 86 86 90 90 88 88 84 79 80 83 74 65 54 52 54 60 63 63 58 56 56 58 61 55 54 55 58 61 63 62 63 62 57 65 69 73 75 74 74 74 73 80

GFSMW_sfc_rhum_072.txt.gz
RH
22 22 23 24 25 24 24 25 32 46 55 85 89 93 94 91 73 65 57 57 54 52 55 54 53 54 58 58 54 53 53 48 40 35 36 32 30 29 30 34 33 34 32
23 24 25 26 25 26 26 28 28 35 48 64 74 75 80 84 85 85 76 63 60 58 58 56 55 52 58 60 59 55 54 49 39 45 45 47 35 30 29 32 32 32 31
26 23 22 25 30 28 26 27 28 29 34 50 55 65 73 80 89 93 88 75 65 66 62 62 57 54 56 61 63 58 58 55 44 39 47 53 53 37 33 34 34 32 35
26 26 27 28 31 30 30 31 28 28 30 38 48 58 67 77 70 71 76 81 76 70 66 67 67 62 60 59 63 58 56 56 55 41 34 41 34 38 39 33 35 34 34
38 42 45 47 44 44 39 36 31 30 30 32 46 54 61 64 66 66 68 72 81 81 74 72 71 72 67 68 66 62 59 54 57 51 44 39 36 32 35 43 38 40 37
44 47 51 49 50 52 50 50 36 33 32 34 39 54 57 63 70 70 72 74 78 87 82 78 75 74 70 68 67 68 65 60 56 53 51 50 50 44 41 42 37 35 37
46 47 49 48 50 54 54 49 47 44 43 40 39 37 52 60 63 65 75 79 84 91 88 82 84 82 75 72 70 72 74 72 68 63 59 53 50 46 50 48 43 44 36
48 50 51 51 52 51 50 48 48 47 45 44 43 41 44 54 70 74 73 76 80 82 79 84 85 83 81 78 75 77 78 76 80 70 63 56 55 58 56 68 75 77 64
53 55 51 52 50 47 47 48 48 47 47 50 50 46 44 49 57 65 81 87 80 81 75 82 88 85 86 82 84 87 81 80 74 69 56 58 60 72 77 72 62 74 73
53 54 50 54 48 45 46 47 47 49 53 55 54 52 51 50 52 56 64 80 86 86 86 87 87 87 85 84 85 87 81 81 79 68 54 56 62 66 73 77 64 76 73
52 56 53 50 47 45 48 48 49 52 58 62 59 57 57 55 61 66 71 77 81 82 85 84 85 85 82 79 74 67 60 64 72 78 79 74 57 65 62 78 81 86 92
54 57 54 51 49 49 50 50 50 53 62 76 69 70 73 74 76 77 74 76 77 75 76 77 77 73 67 58 52 47 49 55 62 65 70 77 78 89 97 95 100 99 97
59 55 50 52 53 53 52 48 48 53 60 70 74 74 74 73 77 76 75 73 70 68 67 61 56 51 48 46 46 48 56 62 67 73 78 85 85 94 98 98 98 97 80
58 50 49 53 54 57 52 48 48 49 54 61 68 69 71 74 71 66 61 59 54 52 51 49 49 52 53 58 59 67 70 73 77 79 83 89 95 95 97 97 89 78 75
56 48 53 58 58 56 51 50 50 49 48 52 57 58 56 57 56 56 52 51 53 52 54 59 63 64 67 69 75 80 80 86 90 96 98 100 96 90 83 76 70 67 65
54 46 54 62 64 60 56 55 55 54 55 57 61 58 57 57 59 59 61 61 62 66 72 75 78 82 80 82 84 89 93 91 94 97 92 88 85 82 78 73 71 71 71
47 46 49 52 59 67 61 62 59 58 63 68 67 70 70 71 68 66 68 73 78 82 86 88 92 95 95 95 94 92 99 98 92 80 73 61 60 77 71 65 64 63 64
45 44 48 52 57 59 59 56 58 68 72 74 77 77 79 82 82 86 91 91 92 96 97 97 98 99 94 94 89 84 88 76 68 69 69 69 67 61 59 57 66 68 60
42 44 48 55 62 59 59 61 63 68 73 76 76 78 82 91 92 95 100 99 98 100 100 100 99 98 99 88 76 55 50 58 67 70 67 57 52 58 65 61 75 56 51
45 48 51 57 59 61 58 62 68 73 77 80 84 92 99 98 98 96 100 100 100 99 96 99 97 92 74 77 75 66 71 57 49 51 50 61 61 62 60 56 52 57 46
53 50 50 61 70 70 66 71 82 95 87 85 91 99 99 100 98 98 99 100 99 91 89 88 76 68 72 65 66 59 51 51 52 51 51 51 64 61 59 59 50 51 54
61 63 67 74 76 78 81 91 99 99 93 94 98 98 96 90 93 90 86 75 58 54 53 53 50 48 50 57 59 60 62 60 54 52 52 53 60 59 60 58 61 65 65
57 62 65 71 72 80 84 96 99 96 97 96 95 90 82 76 65 51 44 37 36 35 34 35 34 34 41 48 62 62 62 60 51 51 60 58 57 58 52 58 68 66 50
60 58 62 68 76 82 86 91 86 79 81 92 91 79 57 37 32 33 30 30 31 31 33 30 30 35 41 46 49 52 50 58 51 62 47 51 57 59 60 56 53 51 54
60 59 59 63 76 89 83 78 72 71 74 74 68 50 39 32 32 32 28 27 30 31 25 29 32 37 44 52 55 57 52 53 52 57 40 42 46 50 52 54 55 55 56
60 63 62 66 79 83 75 74 71 72 73 67 51 38 35 32 33 37 41 54 50 53 55 55 42 48 53 57 60 62 62 61 61 42 44 48 55 61 61 62 63 65 71

GFSMW_sfc_rhum_075.txt.gz
RH
15 15 16 18 21 23 24 24 33 45 52 73 91 93 94 85 58 54 50 50 47 47 49 50 47 48 50 53 51 53 57 56 50 49 44 43 38 36 36 38 37 38 40
18 17 18 19 20 22 22 23 23 25 36 46 73 75 88 85 86 75 62 54 53 53 51 54 53 51 54 54 55 56 60 57 54 53 54 59 47 40 35 35 36 36 37
16 16 19 21 26 26 24 24 24 24 26 37 55 66 67 79 88 88 78 72 60 62 58 58 57 55 54 59 60 62 64 65 58 51 57 65 65 49 40 37 38 36 39
23 23 23 22 25 28 29 27 25 26 25 29 38 52 62 74 70 69 74 81 72 68 65 64 65 61 58 58 62 63 63 62 65 56 50 56 48 55 52 42 38 37 35
24 26 31 35 34 40 38 35 31 30 28 27 30 39 49 54 56 56 57 65 78 81 74 71 76 72 67 62 62 64 67 61 63 59 58 52 53 46 50 56 49 45 44
37 42 45 45 48 50 48 46 34 29 28 30 31 37 46 49 56 60 62 62 67 78 81 80 82 84 82 75 73 68 73 70 67 63 63 59 62 56 55 58 58 52 45
40 42 43 45 48 51 50 44 43 40 38 36 34 31 38 49 55 56 59 64 69 77 80 80 83 87 85 85 85 83 81 79 77 73 69 62 64 59 64 70 61 50 42
43 44 46 48 48 47 47 45 45 44 43 43 42 38 38 40 43 56 57 58 68 70 79 82 85 85 86 86 87 89 88 85 87 83 80 74 64 66 65 70 74 85 78
46 46 46 46 45 43 44 45 45 44 45 47 47 44 42 42 46 49 59 70 77 89 85 86 91 90 92 93 92 94 92 92 92 89 80 76 80 87 90 92 92 94 98
46 46 44 47 42 42 44 43 43 45 48 51 51 50 49 47 47 47 53 60 79 85 87 90 92 92 91 91 93 96 93 91 92 92 90 92 91 91 92 90 81 83 88
45 47 46 44 43 42 44 43 44 48 54 62 60 57 55 54 54 56 57 66 73 77 83 86 90 89 89 89 91 90 83 84 86 85 84 88 89 94 95 97 96 96 96
42 50 48 46 43 45 46 46 46 49 57 66 70 71 68 69 70 69 65 66 71 73 76 78 80 79 79 70 66 70 74 77 78 81 85 87 82 92 97 96 100 98 99
44 50 47 47 47 48 48 46 47 52 56 62 67 68 70 69 71 71 70 68 67 65 62 60 58 55 55 51 51 58 65 72 77 79 82 86 88 95 96 96 95 96 89
41 48 46 48 49 52 48 47 48 47 50 56 58 62 64 62 60 55 55 52 52 52 51 51 52 54 56 58 62 68 76 77 81 81 85 87 92 96 97 94 90 80 81
45 50 51 52 54 52 48 48 49 49 50 54 57 57 56 59 57 57 58 57 58 59 62 64 66 69 72 72 79 84 89 92 97 98 98 98 92 87 78 73 72 69 69
48 47 49 57 58 55 53 53 53 56 56 61 64 61 62 62 66 66 69 71 73 74 76 78 80 84 83 83 84 89 94 96 98 98 99 92 83 78 75 71 69 69 74
52 46 47 52 63 63 56 57 56 58 64 66 66 66 68 70 72 72 73 77 82 84 89 91 87 94 94 94 97 98 100 99 99 98 96 76 74 70 65 60 64 69 65
46 44 45 48 58 58 53 53 56 64 70 72 73 75 77 83 87 89 93 95 95 96 97 97 96 96 90 90 88 85 92 85 74 69 66 62 59 58 59 60 74 74 68
42 43 47 53 59 58 55 56 59 63 67 72 75 77 84 91 90 96 100 99 97 99 100 100 98 95 85 72 68 59 57 66 74 79 79 57 51 59 63 67 81 65 60
44 50 52 56 58 57 53 57 62 64 71 75 83 88 96 98 99 98 100 100 100 98 96 98 82 73 73 70 66 66 69 69 57 53 52 61 64 63 61 61 59 62 55
49 49 52 57 64 64 61 65 72 86 83 82 89 98 97 99 98 98 99 94 92 87 85 79 69 66 64 65 63 58 51 53 57 54 53 55 62 61 59 60 62 56 59
53 54 66 72 73 72 75 85 99 96 86 90 92 92 90 92 92 86 85 74 67 59 50 50 51 50 52 58 61 63 63 60 56 54 55 56 60 58 60 60 55 65 67
53 56 62 70 74 77 81 97 98 97 96 94 92 88 83 81 76 64 51 37 35 35 35 39 37 39 48 51 61 62 61 61 56 57 63 58 53 52 52 47 64 67 59
54 52 54 60 71 76 82 89 89 90 89 93 86 73 62 45 34 32 30 30 30 30 37 36 36 40 45 51 54 56 56 61 55 64 59 46 53 50 55 56 55 57 61
54 53 55 58 68 78 84 78 77 77 83 76 65 49 36 31 32 32 31 27 36 42 32 38 39 44 50 60 60 62 60 63 58 64 46 44 46 51 55 59 61 62 63
55 56 54 56 75 77 75 72 67 65 68 63 51 41 34 29 34 39 46 58 54 57 58 56 46 54 58 58 61 62 62 64 58 54 42 47 56 64 66 67 70 71 73

GFSMW_sfc_rhum_078.txt.gz
RH
20 19 27 27 34 36 40 62 72 75 77 82 94 94 97 96 89 77 66 64 62 61 64 66 63 64 68 73 71 76 80 80 72 69 64 64 54 51 53 56 56 54 52
22 22 22 23 26 33 37 37 40 59 69 84 90 83 94 91 95 96 89 72 69 69 62 62 64 66 72 72 75 75 84 82 80 78 71 75 67 59 50 53 52 54 56
26 26 26 29 34 35 36 35 34 36 36 65 85 92 90 92 96 91 88 91 82 77 72 72 70 74 71 74 75 75 80 82 83 70 76 89 86 68 61 51 56 54 60
34 32 33 32 37 45 48 45 41 37 36 38 73 90 92 95 94 95 94 87 87 88 87 84 81 81 83 80 78 76 76 81 79 81 59 79 67 71 64 58 54 54 51
35 36 41 46 54 55 54 52 47 43 40 41 44 54 82 84 91 93 92 93 92 84 86 88 85 87 85 86 87 88 85 75 83 72 88 74 72 66 68 68 58 55 52
48 56 55 56 64 65 63 60 50 43 40 42 44 47 54 65 83 87 87 89 95 95 91 87 92 92 91 91 90 89 86 80 80 81 83 84 85 76 75 72 62 59 54
55 60 63 64 66 67 64 55 57 54 53 53 51 48 48 52 64 78 86 87 90 94 96 90 90 95 95 93 90 93 92 92 84 82 79 88 88 82 84 85 73 63 46
55 57 61 66 64 61 60 60 58 58 57 59 61 62 61 62 62 63 77 87 86 90 82 90 92 92 94 96 96 97 95 96 96 95 95 84 78 83 79 79 78 85 89
58 58 58 58 58 59 59 59 57 58 60 63 64 64 63 64 66 64 67 84 88 94 94 92 93 94 96 96 97 98 98 98 98 98 92 88 89 91 93 93 94 94 99
59 58 60 57 55 56 58 56 56 59 65 73 75 71 71 68 68 68 71 80 95 92 92 95 97 97 97 96 97 98 96 95 96 95 93 94 94 95 95 96 96 98 98
61 59 58 56 55 57 58 58 58 62 74 80 83 88 87 84 84 86 87 88 88 90 91 94 94 93 94 93 94 92 92 93 94 93 92 92 90 95 96 97 97 98 99
62 62 60 59 59 60 59 60 61 68 77 81 73 71 71 78 85 87 84 81 82 82 82 82 80 79 72 69 76 80 83 86 88 90 90 93 89 97 99 97 100 99 99
63 65 60 60 63 64 61 61 62 66 73 75 67 67 66 65 62 60 55 54 54 53 51 51 52 52 54 58 62 69 74 79 83 87 89 92 92 97 98 97 98 95 88
56 64 63 63 66 63 61 62 62 62 65 66 62 63 63 60 58 57 56 58 57 59 60 59 62 64 65 68 72 76 81 84 85 88 89 92 95 98 98 95 93 83 85
56 62 66 66 67 63 62 62 64 65 64 66 64 64 63 62 63 66 66 64 66 68 70 72 72 72 72 73 81 84 89 94 97 98 98 98 93 87 79 80 79 81 81
56 59 66 66 68 67 66 63 69 71 70 69 67 67 68 70 75 75 76 77 78 79 80 84 84 84 78 80 83 91 95 94 96 99 99 99 98 92 83 78 76 75 80
62 54 64 70 75 71 64 70 74 74 75 70 69 71 75 79 79 78 80 84 88 90 92 91 92 92 84 85 89 91 96 96 98 99 99 92 83 85 82 65 61 67 64
52 55 60 68 70 64 60 62 72 79 76 76 77 79 85 90 90 93 97 97 97 97 96 96 95 95 90 85 85 82 92 91 90 86 83 76 74 73 68 72 83 82 76
56 58 56 61 64 64 59 65 78 80 74 77 79 83 88 93 96 97 99 99 98 99 100 97 95 92 80 66 64 73 83 90 91 85 85 72 66 61 61 76 80 73 67
58 59 60 63 64 62 61 74 79 83 86 81 87 92 98 99 99 97 100 100 99 98 93 91 90 78 85 65 65 76 86 91 88 75 70 61 67 62 62 71 77 79 70
61 57 61 64 69 68 66 75 84 93 90 88 92 98 98 99 98 98 97 95 95 91 91 91 88 88 82 73 61 57 70 71 77 68 68 70 60 58 57 58 78 70 72
62 65 76 80 79 76 84 95 99 96 91 92 95 96 93 89 92 90 89 88 92 84 74 73 76 77 76 65 64 62 61 61 66 66 72 76 59 55 57 62 57 63 69
64 72 82 85 82 82 90 97 98 94 92 91 92 91 91 88 83 81 82 72 60 59 60 61 65 67 78 80 60 58 57 57 70 73 65 57 49 53 61 55 59 62 75
64 67 74 83 92 84 89 94 95 88 87 92 91 86 85 82 72 56 46 48 48 48 52 51 54 59 64 72 78 71 76 64 69 70 80 50 47 45 51 57 63 68 73
67 66 69 78 79 84 88 87 88 84 87 84 76 69 59 47 50 67 58 54 62 53 48 52 55 63 70 79 67 71 75 82 68 70 64 55 57 64 70 72 74 77 79
64 68 68 74 85 84 84 82 80 81 80 77 72 58 52 47 53 66 77 56 58 58 58 53 62 70 64 59 61 61 61 63 57 71 58 60 72 85 81 83 85 78 80

GFSMW_sfc_rhum_081.txt.gz
RH
28 30 34 41 70 76 83 87 85 86 81 92 96 97 97 94 91 84 69 69 65 67 72 73 69 71 72 74 78 83 85 85 79 72 72 69 63 59 62 61 62 65 66
28 24 31 36 39 50 67 79 80 89 87 90 93 95 97 97 96 95 93 83 71 68 69 71 70 70 76 77 80 82 92 88 81 79 74 72 67 65 57 59 57 62 62
30 27 28 32 35 45 45 45 52 74 84 93 98 97 96 96 95 96 96 94 92 85 68 74 67 73 72 72 81 79 83 89 93 75 71 90 82 77 69 59 61 61 68
36 36 34 44 53 52 50 46 45 43 41 94 95 94 94 97 92 93 95 96 94 94 92 87 80 71 82 82 81 79 81 89 82 92 67 83 80 75 70 63 62 62 61
34 41 52 56 60 58 56 51 49 46 44 45 74 96 97 97 96 97 97 95 96 94 93 95 94 92 87 87 85 88 84 77 82 81 92 85 84 71 73 72 72 73 70
61 65 67 68 72 68 64 62 50 48 50 50 51 51 55 59 77 95 99 99 98 97 94 93 95 95 92 91 92 89 86 78 77 78 87 81 90 85 86 75 73 75 64
67 67 71 77 74 70 64 58 62 62 61 65 67 67 65 60 57 66 89 92 94 99 97 95 92 95 95 95 96 96 97 96 95 91 84 82 85 92 88 89 78 76 70
66 65 72 73 71 66 66 64 64 64 65 67 68 70 70 73 72 70 73 88 94 93 95 96 95 94 94 96 96 98 97 97 98 97 97 94 92 90 92 94 91 91 87
70 68 68 66 67 66 64 63 64 67 75 82 83 81 79 75 76 77 79 84 94 96 95 93 94 93 93 94 96 98 99 98 98 98 98 96 94 95 94 92 94 93 98
70 71 62 60 62 63 63 63 64 77 84 86 90 89 92 91 91 90 93 95 95 94 95 96 98 98 97 97 98 98 96 96 97 96 95 96 96 96 97 98 98 98 97
72 73 66 58 60 61 62 64 68 80 84 86 89 91 91 92 93 93 93 91 93 94 96 97 96 92 90 92 92 92 92 94 94 93 93 95 94 97 97 97 98 99 98
72 71 67 64 64 62 62 64 71 81 83 82 82 82 80 79 82 75 71 81 85 86 86 79 73 66 65 72 78 82 84 87 90 90 91 92 88 97 98 97 100 100 99
74 72 70 69 70 66 63 63 67 75 71 73 75 71 63 58 57 56 55 53 54 53 52 53 55 58 64 68 72 75 80 84 86 89 92 93 93 97 97 97 97 96 90
73 72 72 73 71 66 67 68 70 68 67 67 70 71 62 61 60 61 62 62 61 62 64 64 66 69 72 74 76 80 85 88 88 89 91 92 94 97 98 95 94 90 88
73 70 75 78 73 68 69 72 73 72 70 71 74 70 66 66 68 70 69 70 72 72 72 73 72 72 74 74 83 87 91 94 97 98 98 97 92 88 88 91 91 88 91
62 66 70 75 74 72 71 71 75 75 72 74 72 71 73 75 78 78 79 81 83 84 83 83 82 84 81 82 85 93 96 96 98 99 100 99 97 90 85 83 78 77 88
62 66 69 75 75 74 71 78 77 76 77 76 73 77 79 81 82 82 84 88 90 89 92 91 86 85 81 82 87 89 96 96 98 98 99 92 80 81 86 67 63 65 64
60 63 68 76 76 72 69 70 73 82 83 78 82 86 88 92 93 94 97 97 96 96 96 96 95 94 89 86 86 85 92 94 94 92 90 90 89 84 75 84 87 86 83
60 61 64 68 67 64 64 70 77 87 84 80 84 85 90 96 97 98 99 98 97 98 98 94 92 92 85 69 71 81 89 88 88 84 85 78 76 61 62 78 80 76 70
60 62 64 66 67 66 65 72 84 89 89 82 89 94 98 98 99 97 100 100 96 92 92 93 90 77 84 64 67 80 85 89 86 86 76 61 70 60 57 78 82 83 74
65 65 66 68 70 69 72 79 85 94 94 90 94 98 98 99 98 98 97 96 95 95 94 95 92 88 82 72 61 64 73 74 78 72 71 72 58 58 56 57 77 75 72
70 73 78 79 78 80 85 92 98 96 92 94 98 98 97 92 91 89 88 86 92 91 91 92 92 90 85 68 64 60 62 63 67 70 77 77 57 53 54 59 55 59 70
68 76 85 89 83 87 88 98 98 95 94 94 95 93 88 88 85 91 97 96 76 74 74 74 80 86 85 83 60 57 56 56 70 73 67 59 48 53 60 56 56 60 75
66 74 86 93 96 92 90 91 90 87 87 91 93 91 89 86 82 79 76 65 64 62 60 62 61 65 74 82 83 76 84 67 72 70 79 59 48 47 55 59 66 70 76
64 72 81 90 94 94 91 90 87 82 86 86 85 84 83 75 66 64 56 56 58 56 56 57 58 66 74 80 76 75 76 84 70 70 70 56 60 68 74 77 80 84 86
70 74 76 88 95 92 89 90 83 82 82 82 81 72 58 59 72 75 75 58 62 53 51 55 65 70 61 63 62 61 60 62 58 71 62 60 74 87 83 86 86 84 76

GFSMW_sfc_rhum_084.txt.gz
RH
33 30 36 76 81 91 93 92 91 92 89 97 97 97 97 95 89 82 71 70 69 73 74 72 72 77 79 79 84 87 88 93 83 75 75 73 68 65 71 70 83 91 83
34 29 32 43 85 82 87 94 92 93 91 92 95 95 97 97 95 94 86 78 75 74 72 75 72 72 79 81 85 88 92 93 86 81 79 78 70 69 64 68 65 72 80
30 32 28 37 50 81 89 90 90 90 88 96 98 98 98 97 97 97 97 96 92 83 79 79 74 74 73 76 82 86 88 91 94 80 78 88 85 83 73 68 66 66 74
33 40 42 50 50 55 52 54 56 80 84 97 98 96 91 91 95 95 97 96 95 95 90 85 84 84 77 75 81 83 83 91 89 94 78 85 81 80 83 69 78 70 68
36 39 47 57 60 57 58 54 49 46 47 98 97 98 98 97 97 97 96 96 96 95 95 95 92 88 89 87 88 84 82 74 72 83 90 80 85 70 70 72 79 88 84
45 56 69 71 73 68 64 58 53 59 54 52 57 92 97 92 87 95 99 99 98 97 96 96 96 96 96 93 87 85 85 81 83 83 87 84 91 86 86 86 84 83 78
66 75 78 79 75 70 67 62 62 68 70 70 68 65 61 59 59 66 88 95 98 99 97 96 98 97 96 96 95 96 97 97 96 93 92 91 86 94 92 91 91 90 86
76 76 79 76 73 70 69 67 68 72 75 77 77 77 74 74 71 70 73 85 95 96 94 97 96 96 95 96 96 98 98 98 98 98 96 94 93 95 94 94 96 95 92
78 80 78 72 70 70 69 69 71 84 87 90 91 92 91 84 80 79 82 86 96 97 96 97 97 95 95 94 94 97 98 98 99 99 99 97 96 97 97 97 97 96 99
82 81 73 70 69 67 69 69 78 86 90 91 92 90 93 93 92 93 96 96 96 95 96 98 98 98 98 98 98 99 96 97 97 96 96 96 96 96 98 98 97 98 96
84 77 72 70 68 66 65 71 81 83 86 91 92 92 94 94 93 95 94 94 95 96 98 97 96 94 94 89 91 92 91 94 94 93 93 96 93 97 97 97 97 98 98
82 75 74 74 72 70 65 71 83 85 86 86 84 81 75 76 77 76 76 85 92 84 82 77 74 76 84 88 85 85 87 90 91 91 92 93 89 97 97 97 100 99 98
80 75 76 76 75 73 69 69 78 77 74 76 76 74 68 66 61 63 62 59 60 61 61 64 67 70 73 76 77 80 84 87 88 90 92 93 92 96 96 96 96 95 88
72 77 77 79 77 73 72 71 72 69 67 70 73 73 72 69 64 64 64 64 64 67 68 69 72 74 75 77 79 83 87 88 89 89 91 92 94 96 96 94 92 84 85
76 73 78 82 77 75 75 75 72 71 70 73 76 75 71 70 71 73 74 74 73 72 71 73 73 74 76 77 85 87 91 95 97 97 96 95 89 84 84 87 87 85 86
72 72 72 78 78 78 78 75 76 74 74 78 80 77 76 77 79 80 83 84 84 82 81 83 83 86 83 84 86 94 96 96 96 100 100 99 92 82 77 79 79 82 90
54 72 73 76 74 77 76 82 81 78 81 83 83 78 80 83 85 85 86 88 91 89 89 88 85 85 87 83 85 90 97 98 99 99 98 90 80 80 84 69 66 68 64
57 70 74 81 78 76 78 80 81 81 85 88 90 87 89 93 93 94 97 97 95 96 97 95 94 95 88 85 86 88 95 96 94 92 90 88 87 83 83 86 90 88 83
70 70 67 70 71 69 69 72 76 79 83 88 87 88 92 96 97 98 99 98 97 98 99 97 94 93 90 77 77 83 89 86 90 86 84 79 82 64 70 78 80 76 70
68 71 73 70 68 68 68 75 81 82 89 88 88 93 98 98 99 98 100 100 96 93 90 92 90 76 86 68 69 77 81 87 84 81 78 65 73 58 57 77 80 80 73
68 70 71 70 72 70 72 79 83 90 92 90 94 98 98 98 98 98 96 94 97 94 94 94 90 86 81 76 66 64 70 74 80 75 72 72 58 56 54 63 77 72 72
74 73 76 78 77 81 80 88 95 96 92 95 98 98 97 94 93 93 92 93 95 96 95 94 95 92 87 68 62 62 65 65 67 69 76 76 58 51 52 59 57 57 74
71 74 79 86 87 88 85 94 98 94 95 97 97 96 93 90 86 84 88 93 88 91 94 89 93 92 87 87 57 57 57 59 70 72 69 60 51 49 59 56 54 62 75
66 71 80 89 94 95 89 89 91 89 91 95 95 91 90 87 85 89 96 86 78 79 75 78 80 86 86 84 84 74 84 65 71 70 78 63 52 51 58 61 68 70 78
64 70 78 90 94 96 95 88 86 84 88 89 89 89 87 89 92 92 85 74 68 65 65 65 61 68 73 73 75 74 75 82 71 73 69 57 61 68 76 79 83 87 87
71 77 76 87 94 96 94 88 84 81 84 86 88 88 85 70 68 70 74 56 60 59 56 53 56 57 56 64 68 64 61 61 61 71 65 61 73 86 82 86 88 89 77

GFSMW_sfc_rhum_087.txt.gz
RH
37 35 58 87 88 94 95 92 94 94 92 97 98 98 96 93 88 86 82 87 80 78 72 75 77 83 84 84 90 93 92 96 92 85 83 77 73 68 72 75 91 96 95
39 35 31 57 92 89 91 94 92 95 92 92 97 96 98 96 93 88 82 80 81 80 78 75 72 76 83 87 90 91 94 94 90 87 83 88 82 75 69 71 71 82 95
40 37 32 37 72 93 94 93 93 93 90 95 98 99 98 98 98 96 95 90 85 86 82 82 75 73 75 77 85 88 90 92 96 80 84 90 92 87 77 73 72 71 81
38 36 35 35 48 77 88 93 95 95 95 97 96 95 97 95 96 97 98 96 94 92 86 86 87 89 84 81 84 82 85 91 92 95 81 80 73 75 81 68 73 68 64
39 39 47 53 61 59 61 64 74 79 79 98 96 97 97 96 97 97 97 97 97 96 98 95 93 91 90 87 87 91 92 80 72 86 92 88 84 74 81 80 84 78 77
45 45 69 70 72 69 61 56 53 55 58 94 97 98 98 98 99 98 99 99 98 98 97 97 98 97 94 92 91 90 87 78 80 85 89 86 93 90 86 89 87 87 89
50 65 77 75 70 69 68 65 64 66 68 67 68 66 72 80 78 86 86 93 97 99 98 97 98 98 96 96 96 96 95 95 94 90 92 94 90 94 91 95 96 92 88
68 73 77 77 73 71 71 70 72 73 75 77 79 80 77 77 72 69 72 82 93 96 95 97 97 97 97 97 97 98 98 98 99 98 98 97 97 96 95 94 97 97 94
83 81 80 76 76 74 74 75 82 88 88 89 91 92 90 83 81 81 84 86 92 98 97 96 97 97 97 96 96 98 99 99 98 99 98 98 96 96 96 96 96 97 100
89 88 81 76 76 73 75 80 85 89 92 92 93 92 93 93 93 93 93 95 96 96 97 99 98 98 98 98 98 98 97 96 97 97 97 96 96 97 97 97 96 97 98
92 86 80 77 75 75 78 90 89 89 93 93 93 94 95 93 94 95 95 95 96 97 98 98 96 95 95 92 93 93 93 94 96 94 94 95 93 96 96 96 96 97 98
86 81 81 79 78 77 80 90 90 89 90 90 88 82 80 78 81 81 84 93 91 84 84 81 85 91 93 93 87 90 95 95 92 92 92 93 89 96 97 96 98 98 97
84 83 84 81 80 79 83 91 87 82 78 77 80 77 75 73 74 72 69 66 68 69 70 73 78 83 86 88 90 93 93 88 90 91 92 93 92 96 96 96 96 93 87
79 83 85 84 82 78 80 87 80 76 73 73 74 75 75 76 77 70 66 66 66 68 71 72 76 78 78 80 82 84 87 89 89 90 91 92 93 95 96 94 88 80 85
82 78 82 84 82 80 80 82 77 74 73 74 76 76 76 78 79 76 75 74 72 72 72 75 76 76 78 79 86 88 92 94 96 96 96 95 87 84 82 90 90 86 85
76 76 75 80 80 80 79 78 79 77 76 78 81 82 84 81 82 83 84 83 82 81 82 84 86 88 85 86 88 92 95 96 97 100 100 95 87 79 76 76 76 80 89
77 76 73 78 77 76 77 81 82 81 84 83 84 84 86 85 86 85 86 89 89 87 90 88 87 93 90 84 91 96 97 99 100 100 98 86 76 80 83 70 72 70 69
52 73 77 79 76 79 81 80 80 85 88 90 94 91 89 92 93 94 96 97 95 96 94 95 93 90 83 83 87 91 96 96 94 90 85 85 87 86 85 88 88 82 74
65 70 74 75 79 77 76 74 78 79 82 89 92 92 92 96 96 98 100 98 98 99 100 100 98 98 91 83 82 82 85 84 89 83 83 83 85 68 68 76 79 75 70
77 80 76 72 72 73 69 75 78 80 84 86 90 93 96 98 99 98 100 99 96 94 89 90 90 79 87 69 70 75 77 86 82 84 81 66 73 58 61 77 78 75 69
77 78 78 77 77 72 74 80 83 88 88 89 94 98 98 98 98 97 95 94 92 88 93 92 88 86 85 76 66 67 71 75 82 75 71 71 58 55 53 66 79 68 70
75 74 77 80 80 78 79 87 93 93 92 94 98 98 98 95 94 93 92 87 88 92 94 94 95 92 89 70 65 62 65 67 68 68 73 74 61 50 51 62 60 56 77
70 75 76 82 84 86 82 90 95 94 95 97 98 97 94 93 91 90 90 87 95 93 95 89 94 93 87 88 58 58 59 61 68 70 69 62 58 49 60 54 55 64 76
78 78 78 81 88 94 92 86 91 90 93 97 97 95 93 90 86 84 82 90 94 95 87 89 90 93 91 87 84 76 84 65 72 70 79 61 56 54 60 62 70 70 79
67 71 76 79 82 94 95 95 88 87 92 92 92 91 89 89 91 88 84 88 83 79 82 82 78 84 84 73 74 74 74 80 68 77 65 57 60 66 75 80 83 89 89
71 76 77 78 86 95 96 94 87 84 87 90 91 91 91 90 90 88 87 73 65 66 63 60 62 56 53 56 66 70 64 64 62 71 67 61 68 82 78 84 88 91 89

GFSMW_sfc_rhum_090.txt.gz
RH
36 35 54 91 92 96 96 95 95 93 94 98 98 98 96 95 96 96 95 95 88 84 81 84 86 92 94 93 94 95 95 97 94 92 93 88 81 78 75 76 81 95 96
40 37 38 58 94 93 93 96 95 96 91 92 95 96 98 97 92 90 87 91 91 90 82 80 80 83 88 93 95 94 95 95 96 94 92 94 87 82 75 74 73 79 95
43 38 35 37 62 95 96 94 94 95 93 94 97 99 98 98 97 95 92 90 90 89 85 83 80 81 80 84 92 92 93 94 97 87 88 93 95 92 80 71 76 75 84
41 41 40 35 36 67 94 95 96 96 94 97 96 93 96 91 98 97 96 96 93 91 90 88 87 87 86 86 92 90 90 92 94 96 82 82 74 78 84 73 65 64 65
42 40 40 40 47 61 84 95 97 98 97 96 94 96 96 96 98 98 97 98 97 95 96 94 94 91 94 91 89 92 92 87 78 87 93 89 86 78 86 90 89 77 80
49 44 49 65 72 70 65 72 84 71 87 99 98 98 97 98 98 98 99 99 98 98 98 98 98 97 94 93 93 92 90 80 81 81 88 87 92 94 91 90 88 90 89
52 50 68 73 70 70 67 65 66 69 76 87 88 89 91 96 96 97 98 98 98 98 98 98 99 99 97 96 95 95 94 94 92 91 91 92 92 94 92 94 96 96 91
55 59 68 75 73 71 71 70 71 73 78 76 76 75 72 69 68 67 67 76 88 92 94 97 98 98 98 98 97 98 98 97 97 96 98 98 98 97 97 96 97 99 96
66 69 78 78 77 78 76 76 82 86 85 89 88 90 89 84 82 82 84 84 87 96 98 98 97 97 98 98 98 99 99 99 99 99 99 98 97 96 96 97 96 97 99
90 90 84 80 80 80 83 89 87 90 93 93 93 92 94 94 94 93 93 94 96 96 98 97 97 98 98 98 98 99 98 98 99 98 98 97 96 96 96 96 95 96 98
93 92 88 85 83 85 92 93 93 93 94 94 94 95 94 93 94 95 96 97 97 98 98 94 92 92 93 93 94 96 95 96 97 97 97 97 94 96 96 96 96 97 98
90 88 87 85 85 88 92 93 93 94 94 93 90 86 84 84 87 87 90 93 89 83 86 90 94 95 94 89 89 91 91 92 94 93 93 95 90 96 96 96 97 98 97
90 90 88 86 85 88 92 93 92 92 90 87 83 79 75 75 76 76 74 73 74 75 78 82 87 89 92 95 96 95 95 94 96 96 95 93 92 95 96 95 94 92 89
86 88 90 88 87 87 92 91 88 86 84 84 83 81 79 78 79 76 76 75 74 76 75 75 78 82 85 88 89 91 93 93 92 91 91 91 93 94 94 90 89 83 85
88 85 87 89 87 86 90 89 83 81 82 84 84 84 82 81 82 83 81 75 73 73 74 77 78 79 80 80 87 88 91 92 94 94 92 94 89 83 84 88 92 87 91
84 83 82 84 85 86 86 83 82 81 82 86 85 86 87 86 89 89 89 81 81 81 83 86 87 90 86 88 88 91 94 95 99 100 99 92 85 79 76 73 72 79 86
85 82 81 81 84 82 80 84 84 84 87 88 88 89 91 91 93 88 87 87 88 88 91 91 90 92 92 89 90 93 100 100 100 99 92 80 77 82 86 75 79 74 73
74 80 80 84 83 80 80 83 83 86 89 92 93 92 94 96 92 93 96 96 95 94 94 93 91 90 84 90 94 95 97 96 94 87 78 85 90 87 86 88 86 81 76
67 62 79 80 79 77 79 79 85 86 86 93 90 90 92 96 95 97 100 99 98 100 100 100 100 99 93 84 87 83 82 81 84 80 84 87 89 73 65 76 78 74 70
80 81 83 77 78 82 76 79 83 80 88 87 89 92 95 97 98 98 100 100 99 97 93 94 91 86 92 75 70 75 75 83 83 85 84 69 74 58 67 75 76 72 66
84 86 84 82 79 76 75 79 80 86 86 88 92 97 97 99 97 97 96 96 95 91 90 89 87 89 84 72 64 64 69 74 84 78 72 73 60 54 53 68 79 67 70
80 78 80 82 81 79 79 87 93 92 90 93 97 98 98 94 93 94 93 88 84 83 82 84 93 92 90 71 65 63 65 68 69 69 72 73 61 50 50 64 61 54 82
69 74 79 83 84 85 84 90 93 92 93 95 98 98 96 94 92 90 90 85 80 79 83 85 94 93 86 88 63 60 62 62 65 68 66 66 60 51 60 52 54 69 77
72 76 78 82 88 88 86 83 94 89 92 96 98 96 96 94 90 87 83 82 81 82 81 84 89 94 93 89 85 79 79 65 70 70 78 61 58 60 61 63 70 71 80
95 88 86 83 80 87 90 94 94 92 93 93 93 94 91 92 92 88 84 79 78 76 79 85 82 91 92 80 78 75 76 84 70 78 66 55 56 61 68 77 82 89 90
72 74 74 75 79 86 90 96 95 91 90 92 93 93 92 92 92 93 93 80 77 76 72 70 75 70 62 61 65 69 67 67 63 75 68 61 62 73 70 77 84 91 89

GFSMW_sfc_rhum_093.txt.gz
RH
44 36 39 80 87 89 90 92 94 93 97 98 98 97 97 96 96 90 83 81 75 74 73 72 73 76 77 74 76 76 79 80 76 72 67 64 62 63 61 57 52 56 62
48 36 33 53 86 88 90 95 94 94 94 96 96 95 95 93 91 89 87 84 81 79 74 74 74 73 75 75 75 76 78 76 75 70 72 72 62 60 59 58 56 53 53
48 36 34 36 56 85 86 90 93 93 91 92 97 97 96 94 91 87 87 86 85 85 78 76 73 73 72 73 74 76 78 73 79 70 66 77 74 70 61 55 56 55 56
40 39 38 36 43 45 81 90 90 92 91 91 91 92 94 93 92 90 92 90 82 84 84 80 79 75 76 73 80 80 78 76 75 80 72 76 71 77 81 64 57 54 53
43 40 41 41 37 48 66 89 93 94 94 94 91 93 94 92 93 95 87 92 88 81 88 87 84 82 84 83 85 82 81 78 71 75 82 84 84 76 80 88 75 70 62
46 43 45 46 50 59 60 80 93 95 94 94 92 92 93 94 96 94 95 93 93 91 91 91 90 88 86 85 84 85 81 76 76 73 75 82 87 89 90 91 88 83 90
46 44 45 55 57 59 61 68 84 78 84 96 94 92 92 88 90 91 91 92 91 92 91 92 94 94 91 87 85 86 87 86 85 82 81 81 81 86 87 91 88 97 90
48 50 50 59 59 63 62 62 68 69 72 78 79 77 76 79 75 73 74 76 80 81 82 85 90 90 92 91 90 90 90 88 91 86 86 84 85 91 90 94 96 99 95
53 53 58 63 64 65 65 65 66 70 69 71 71 70 69 67 65 66 66 68 70 80 84 88 89 88 91 92 94 95 93 92 90 92 95 95 93 91 94 93 91 98 99
64 62 68 69 69 68 73 74 72 74 78 76 74 76 78 77 78 75 77 81 84 87 91 86 84 87 91 92 96 99 98 98 98 97 96 94 90 89 90 91 89 94 96
79 78 75 71 72 76 78 79 78 79 79 78 79 79 79 78 81 84 86 87 87 87 88 85 84 85 87 88 94 95 95 95 94 94 94 93 88 90 88 88 91 93 91
83 79 76 74 76 81 80 80 81 81 83 80 75 72 71 72 74 78 79 78 76 74 77 82 82 84 85 84 88 89 91 94 89 91 91 92 88 92 88 88 91 94 90
82 79 75 73 75 79 80 81 81 80 76 74 71 69 68 67 67 66 66 66 67 68 70 74 79 81 84 85 83 85 85 85 86 87 86 85 84 87 87 89 89 85 82
79 77 76 74 73 77 80 78 78 76 74 73 71 70 69 68 66 65 65 64 65 68 69 71 74 77 78 81 82 83 84 84 83 84 82 83 84 87 89 82 77 74 75
80 77 77 75 74 75 80 75 71 71 72 72 73 72 71 70 71 71 70 68 68 69 70 72 73 74 77 77 81 83 84 86 87 87 86 89 84 80 75 76 72 68 70
78 76 75 77 75 71 76 75 71 70 72 73 74 75 75 75 77 77 75 74 74 74 77 80 80 83 82 86 87 87 90 90 95 100 99 86 81 76 73 70 71 64 65
80 76 73 73 72 74 72 75 72 72 76 77 76 78 79 82 82 81 79 79 80 81 86 87 86 90 89 88 89 94 100 100 100 99 92 78 73 75 71 74 75 73 74
77 77 74 74 74 71 71 71 72 74 79 80 81 82 83 86 86 85 88 90 88 88 90 89 88 92 90 89 90 91 92 89 80 70 64 65 67 68 68 66 73 67 64
60 64 72 73 74 71 70 71 75 77 78 80 82 83 86 90 90 92 98 96 95 99 100 100 98 96 92 91 93 87 80 69 64 66 70 74 72 68 68 66 68 58 57
72 74 74 76 74 73 71 74 76 78 80 80 85 84 91 91 94 94 100 100 98 98 96 97 93 89 88 84 78 70 62 64 65 73 71 72 63 66 63 52 49 47 45
74 78 77 77 78 76 73 77 78 82 82 82 88 92 92 93 91 94 95 96 96 93 92 91 85 80 72 67 66 66 57 62 69 66 65 62 59 55 59 66 56 48 55
75 78 79 79 79 79 77 83 89 88 87 88 91 94 92 89 90 92 94 90 87 86 83 80 80 76 70 63 61 62 63 66 58 58 57 60 60 53 52 64 60 56 75
70 73 78 80 80 80 78 86 89 90 90 90 94 95 94 90 89 90 91 88 82 81 80 77 80 78 75 70 64 63 65 64 52 53 56 62 60 52 54 50 52 66 64
66 71 75 79 84 85 88 86 85 86 89 90 92 94 95 93 88 86 85 84 82 79 76 76 76 79 76 70 70 66 62 60 60 62 63 57 57 58 55 59 63 58 61
91 90 87 85 88 91 92 89 88 84 88 89 90 92 93 93 92 89 85 81 76 73 73 71 70 78 77 72 70 70 68 70 64 68 58 46 44 47 51 59 63 67 67
79 83 85 84 81 86 85 88 87 86 88 90 90 92 92 91 92 93 96 84 78 78 71 69 67 66 62 65 72 70 70 72 68 69 56 49 46 49 49 55 59 66 72

GFSMW_sfc_rhum_096.txt.gz
RH
26 30 35 41 58 62 53 57 77 76 79 91 96 96 95 93 90 75 64 59 56 55 57 56 53 55 58 57 58 60 61 61 57 58 54 53 50 50 48 48 47 47 49
29 29 35 38 46 64 59 66 61 88 87 83 94 94 97 96 95 91 74 68 65 62 60 59 60 58 59 60 59 61 63 57 59 57 60 59 50 49 47 47 48 48 46
33 32 35 43 45 61 82 76 76 80 92 96 93 95 98 96 97 95 91 83 72 70 66 64 62 63 63 63 64 62 66 62 61 60 56 66 61 54 49 49 46 46 46
42 41 42 37 44 48 86 82 65 84 90 93 96 92 87 90 95 92 92 89 84 79 78 74 70 66 66 64 65 62 62 65 64 65 59 58 57 62 64 55 51 47 46
37 46 43 42 42 51 54 78 86 76 83 82 81 95 92 93 93 86 87 87 86 88 86 84 80 75 72 72 72 72 69 63 64 67 71 68 63 61 67 76 63 60 51
32 38 44 38 38 44 42 53 70 82 84 84 80 86 87 79 91 91 92 89 92 93 85 79 82 79 79 79 79 72 69 65 68 69 66 70 76 79 79 78 76 86 71
33 34 36 38 35 44 45 45 50 63 79 86 87 85 87 87 86 85 87 87 89 90 93 88 87 86 83 81 79 78 81 79 78 75 73 71 70 68 76 81 81 83 82
30 32 33 36 37 39 44 42 48 59 69 90 89 88 84 87 86 83 88 84 89 87 82 84 84 83 84 84 83 86 84 82 83 79 76 75 73 72 73 77 84 97 92
29 30 33 37 36 39 42 44 52 60 62 71 78 74 77 74 74 70 67 69 65 66 66 71 71 72 75 82 86 91 92 88 87 84 80 79 78 82 84 86 88 94 94
33 33 33 38 43 44 48 51 49 54 58 56 57 59 64 62 61 55 56 58 62 63 65 66 65 65 67 71 80 92 94 92 96 97 92 91 91 91 87 87 84 90 93
40 39 40 41 46 51 53 52 54 55 55 53 54 55 56 58 60 61 62 66 67 67 70 67 67 68 70 73 80 86 94 96 97 97 96 92 85 91 89 85 84 87 89
51 49 48 49 50 51 53 56 55 54 55 54 52 53 54 55 57 60 62 62 62 63 65 69 71 70 71 74 80 87 89 94 94 95 90 88 84 87 89 91 88 87 86
56 53 51 49 50 51 52 53 54 56 56 55 54 53 53 52 53 55 57 57 57 58 59 62 66 69 73 75 74 78 84 86 86 82 89 83 80 89 88 80 81 80 78
56 51 50 49 50 51 52 52 55 54 55 54 53 54 56 54 54 54 55 55 55 57 58 59 61 64 66 69 71 77 79 80 81 80 75 78 78 78 80 76 74 68 68
55 53 53 49 50 53 53 52 53 54 53 55 57 57 56 56 55 56 57 55 56 56 58 59 60 62 65 66 73 74 73 75 78 78 77 78 77 76 69 70 65 64 66
55 52 53 54 50 49 52 54 52 53 54 55 57 59 58 58 60 59 59 58 59 60 62 64 65 68 68 84 83 80 82 82 85 98 91 80 79 74 73 70 64 58 67
52 55 51 51 50 51 50 53 50 52 56 57 57 60 60 63 64 63 62 63 63 64 70 74 77 80 82 86 87 91 100 100 100 99 93 79 70 66 64 71 71 71 69
54 53 50 50 49 47 48 48 50 53 59 60 60 61 63 66 69 69 71 72 74 77 80 81 85 88 85 87 90 91 90 88 81 76 71 67 65 62 62 56 63 58 54
49 49 49 50 49 49 48 50 52 54 55 59 60 62 66 71 73 75 84 82 85 93 98 94 92 92 89 87 89 84 78 72 63 57 54 52 54 67 62 60 61 51 59
52 52 53 52 51 50 48 52 52 53 56 56 59 63 76 84 82 79 95 98 91 96 93 96 88 87 89 88 87 74 61 57 53 61 66 67 56 61 52 37 37 38 41
57 58 58 54 55 54 54 56 55 62 59 60 67 78 81 86 80 80 85 89 93 94 93 94 89 84 80 78 77 63 49 48 55 59 56 54 60 61 65 49 41 38 40
58 63 61 63 64 63 62 65 73 70 67 71 78 85 82 78 81 80 82 85 88 89 88 85 81 73 67 63 65 60 51 54 51 51 52 54 59 55 57 59 58 64 63
54 56 58 63 64 64 61 70 76 71 76 80 91 90 86 85 84 81 83 91 88 86 83 81 78 75 72 53 60 60 62 60 42 43 46 59 57 53 52 50 52 62 56
59 58 63 67 69 72 77 73 86 84 85 87 89 89 89 88 85 79 75 80 86 86 80 78 76 75 71 62 57 57 57 58 50 58 58 57 54 54 48 49 57 50 48
74 74 76 75 72 77 79 82 85 85 86 81 79 83 80 88 91 88 79 76 77 80 79 75 70 72 63 58 58 57 54 49 50 58 53 47 45 46 45 44 42 45 48
62 65 68 77 85 86 84 83 81 82 81 82 77 76 83 89 93 92 84 82 80 83 78 70 67 62 57 63 70 69 66 65 66 51 42 38 36 37 34 38 41 46 57

GFSMW_sfc_rhum_099.txt.gz
RH
20 24 30 33 38 49 47 46 60 67 79 88 96 94 94 94 95 88 66 54 52 51 55 57 51 51 53 56 55 56 56 60 55 58 60 59 54 54 55 53 50 50 51
21 23 29 29 32 40 53 46 55 69 76 88 92 95 94 93 95 96 80 65 59 59 57 58 58 54 58 58 58 60 65 61 62 67 65 70 59 55 52 52 50 50 51
25 22 27 31 36 38 51 52 55 61 70 83 92 96 97 99 99 98 96 85 76 72 65 62 62 62 62 66 66 66 71 70 65 64 66 74 73 65 58 55 52 51 54
26 25 26 32 34 36 52 58 61 76 87 85 90 91 89 90 89 88 89 91 85 85 79 74 74 67 70 70 70 65 67 70 70 69 63 68 66 72 70 61 55 51 50
27 30 28 35 33 43 49 60 65 69 85 84 83 88 86 84 83 88 86 91 91 92 94 94 84 81 83 77 74 73 69 63 71 69 76 74 72 76 75 77 73 65 60
28 30 34 36 40 48 44 61 70 92 89 90 81 82 86 89 91 88 93 93 98 98 95 92 89 88 84 90 90 88 82 88 86 84 69 73 82 80 80 80 79 83 78
29 31 38 43 38 49 53 56 60 69 71 84 79 74 79 83 87 91 91 86 95 98 96 91 94 92 87 84 86 88 87 83 83 82 84 75 75 79 81 86 88 89 84
28 30 31 38 42 48 60 62 42 51 60 71 81 76 73 77 78 76 85 87 87 86 92 88 89 87 87 86 85 89 90 93 92 89 86 80 75 77 82 84 87 98 95
27 30 30 32 35 35 41 48 42 45 47 67 87 82 84 83 89 82 82 87 85 91 91 85 86 84 86 88 92 95 94 91 89 88 85 86 88 89 86 87 89 92 98
23 27 28 29 33 35 35 47 41 48 57 61 70 72 70 69 69 66 67 71 69 66 68 66 63 64 67 67 75 86 93 96 96 97 97 96 96 95 95 96 92 95 92
28 27 26 27 32 39 47 44 44 55 57 54 57 58 60 62 61 63 62 66 68 67 66 63 61 61 63 62 70 77 86 95 98 98 98 97 95 97 97 93 92 96 97
33 32 30 32 41 47 45 48 50 51 50 50 50 53 51 52 53 57 60 60 61 62 64 67 67 66 68 73 74 80 89 94 97 97 95 97 95 94 92 95 94 96 95
45 40 41 41 42 44 46 50 50 51 50 47 47 48 49 49 50 52 53 54 55 57 59 62 65 67 71 72 72 77 83 86 89 92 93 92 93 96 95 90 92 92 85
45 42 41 42 42 44 44 46 49 49 50 49 49 50 50 49 49 51 52 53 53 55 57 57 60 62 63 67 70 76 78 82 85 87 85 85 84 89 91 87 85 79 80
46 45 45 43 45 45 45 45 47 48 49 51 53 55 53 53 52 54 53 52 53 54 56 57 58 59 63 63 69 72 77 82 84 85 84 85 85 82 76 78 74 74 76
46 45 46 45 44 46 46 48 49 50 49 51 53 55 54 55 57 56 56 56 57 58 59 62 62 64 66 83 80 77 83 86 88 96 90 82 82 76 72 69 66 68 83
46 47 46 46 45 45 45 48 47 49 51 52 52 54 55 58 59 59 58 60 60 61 66 69 71 74 78 84 85 92 100 100 100 100 94 80 71 69 69 70 69 69 67
46 47 45 46 45 43 44 44 45 50 54 55 55 56 57 61 64 65 66 68 69 71 74 76 81 85 84 86 90 92 93 91 86 80 76 75 75 74 67 63 73 67 64
44 46 45 44 45 44 43 45 47 49 51 55 56 56 60 65 67 70 78 77 79 84 90 90 90 93 90 87 88 84 80 79 74 70 66 64 60 61 59 72 71 67 73
47 48 48 45 45 46 44 47 48 49 51 51 52 55 68 69 75 72 89 96 86 90 88 92 90 86 88 87 86 82 76 72 66 64 64 56 58 63 53 54 56 58 64
52 50 51 50 51 48 47 52 50 56 54 51 54 67 74 76 76 77 86 86 87 87 87 91 90 88 87 86 84 73 64 59 62 67 66 69 66 61 54 41 47 45 54
58 58 56 59 60 59 58 60 67 65 61 62 67 75 76 76 77 80 82 82 83 85 89 88 88 82 80 80 80 66 50 52 62 60 62 64 60 59 65 56 58 53 54
53 53 54 56 59 60 59 66 71 66 67 68 73 75 77 81 83 82 84 87 82 86 92 90 86 82 74 68 67 62 56 56 54 57 58 62 60 55 59 51 56 62 69
58 58 58 59 60 62 66 71 70 66 69 80 82 85 89 87 83 83 81 84 85 88 88 90 85 80 79 76 70 68 66 59 52 55 62 64 62 57 53 55 59 64 63
65 68 70 70 67 68 70 72 74 74 81 84 85 86 84 84 87 87 84 84 78 80 84 86 81 83 78 74 65 64 65 63 57 64 69 65 60 59 58 58 57 58 58
60 60 60 61 69 84 85 85 84 84 84 84 83 84 81 77 86 89 93 88 84 81 81 79 78 73 66 64 64 64 61 56 54 62 58 52 51 52 50 50 51 55 62

GFSMW_sfc_rhum_102.txt.gz
RH
30 37 41 46 54 63 62 64 81 86 92 98 97 96 96 97 95 92 83 73 62 62 68 74 66 70 75 77 76 78 79 83 80 82 81 80 75 75 76 76 73 69 68
26 37 43 48 58 69 65 69 78 87 90 95 96 97 98 98 97 95 92 89 78 74 72 74 72 67 72 73 76 79 84 83 82 87 89 90 85 80 73 74 70 70 71
29 36 41 49 52 67 75 73 80 85 91 94 98 99 99 99 99 99 98 93 92 87 84 79 77 74 75 80 79 80 83 87 83 79 86 92 92 88 78 72 73 68 76
33 33 39 54 53 72 82 79 80 84 89 95 96 98 98 98 98 98 97 97 97 97 96 85 81 81 83 83 84 81 85 86 90 88 78 88 88 93 90 77 71 71 67
34 37 39 46 53 67 87 85 90 92 94 94 96 97 96 97 96 97 97 98 95 96 96 97 96 94 95 94 92 92 86 88 89 89 93 95 95 92 96 95 85 72 71
36 38 40 52 65 67 72 89 92 93 94 96 94 93 94 94 95 93 96 97 98 97 96 95 96 96 96 94 96 97 97 94 93 92 94 92 94 96 97 97 94 94 81
37 46 52 60 65 67 66 73 91 94 94 95 95 94 95 95 94 93 92 92 97 98 96 97 97 97 95 94 96 96 96 96 96 94 91 89 91 92 92 94 95 95 95
37 46 51 59 65 72 69 61 62 74 96 95 90 86 85 88 89 90 92 91 93 95 97 98 98 96 93 94 95 96 97 96 97 97 96 94 88 91 88 91 93 98 98
40 43 47 58 56 66 69 63 62 54 62 85 85 90 89 88 87 88 88 92 93 94 95 94 97 95 94 91 93 97 96 97 96 95 94 93 92 94 93 91 93 92 99
38 44 45 48 53 53 62 62 60 58 62 90 95 93 91 94 94 93 89 88 86 86 90 92 90 88 89 87 90 96 96 98 98 98 98 97 97 96 96 96 96 96 96
40 42 43 46 48 60 62 62 64 75 74 74 82 82 84 77 83 86 88 92 87 84 85 82 85 79 84 81 83 89 92 95 98 98 99 98 96 98 98 98 98 98 98
40 38 39 51 61 66 65 68 75 75 72 69 67 73 73 76 78 83 82 83 82 78 79 78 77 78 80 84 89 90 93 95 97 98 99 99 98 98 98 98 98 98 97
50 48 52 58 64 66 67 71 72 72 69 65 66 66 68 70 73 72 72 70 71 75 74 74 78 79 82 84 87 90 92 93 95 97 98 97 97 99 98 98 98 98 95
54 56 59 59 64 65 68 70 71 68 66 66 67 66 66 70 69 70 69 71 69 72 73 73 73 74 75 78 84 88 87 89 89 89 91 93 95 97 97 97 96 91 95
56 56 60 64 65 66 67 68 69 69 67 67 72 72 71 69 70 68 67 68 70 71 69 72 73 75 76 74 90 89 91 91 92 90 88 91 91 89 86 89 89 85 89
56 56 57 60 64 68 66 65 68 69 68 72 74 70 70 70 71 73 70 74 75 75 76 78 78 83 76 82 82 85 93 93 93 96 94 90 87 80 76 75 73 77 91
56 57 58 59 63 64 62 68 69 68 70 72 71 70 70 73 74 73 73 75 80 81 86 87 86 91 92 83 83 96 100 100 100 100 97 85 79 77 76 74 74 72 68
56 57 61 62 61 62 64 64 67 70 73 73 72 71 74 78 79 80 83 87 89 89 91 92 93 94 92 85 89 93 98 97 92 88 84 83 82 80 70 75 77 81 79
62 64 64 63 62 62 62 64 67 70 74 74 74 73 76 83 84 89 91 91 93 94 94 93 94 96 95 86 87 88 88 88 86 82 80 76 75 73 66 78 84 84 82
65 66 63 60 66 64 61 66 67 69 72 71 71 75 81 86 88 91 96 95 92 94 94 93 96 90 95 86 85 82 81 83 78 73 74 66 68 64 64 73 77 85 85
66 64 67 73 73 70 67 68 69 73 70 68 74 87 88 90 90 94 95 97 95 94 94 96 96 94 92 91 84 77 72 78 78 82 79 74 65 57 46 51 56 58 73
72 70 75 78 76 75 75 76 80 80 76 79 85 90 91 90 90 94 95 90 92 95 95 97 97 93 92 84 84 77 65 63 74 76 76 85 67 64 55 61 51 52 61
68 69 72 75 77 77 76 84 88 83 83 87 89 91 91 89 88 92 94 92 90 93 97 97 95 90 82 79 81 74 61 57 64 68 71 69 62 59 66 55 61 59 73
77 75 75 76 82 81 82 88 85 84 85 88 91 88 90 91 87 85 85 88 91 93 94 95 94 91 86 79 80 78 70 62 58 59 69 73 69 64 67 60 62 79 80
78 83 86 87 84 83 78 84 84 81 84 85 87 89 89 92 91 90 88 86 83 87 92 91 88 88 88 78 72 74 77 74 63 73 76 77 76 76 70 66 71 78 69
76 78 77 79 83 88 88 88 85 85 87 88 89 89 89 89 93 94 94 86 84 84 85 82 83 83 80 78 71 68 68 67 60 75 76 71 70 69 66 66 65 66 70

GFSMW_sfc_rhum_105.txt.gz
RH
48 61 68 69 76 91 92 87 90 94 94 95 96 95 92 94 96 93 76 72 66 68 73 76 74 78 80 80 79 83 82 87 87 86 86 82 77 80 75 76 81 76 74
53 58 55 60 65 78 86 90 82 89 92 92 97 98 98 98 97 95 93 83 78 72 70 77 73 74 78 79 81 81 87 85 85 86 91 89 82 88 82 85 80 79 78
52 57 64 68 76 79 84 88 91 88 90 98 98 99 99 99 99 99 98 95 92 90 90 85 81 75 77 81 84 86 84 89 89 82 86 94 90 93 88 86 84 79 84
44 49 57 66 74 88 89 89 93 95 96 95 98 97 98 98 99 99 99 98 95 95 95 93 90 86 84 84 83 82 86 89 89 92 82 89 89 92 91 85 84 80 79
46 51 56 56 74 92 93 95 96 96 98 98 95 97 98 98 98 98 98 98 98 98 98 98 98 99 99 94 93 94 93 93 93 90 93 94 96 92 94 96 89 81 80
42 44 58 64 76 90 95 96 96 98 97 96 96 95 96 97 98 99 99 98 99 98 97 98 98 98 99 99 99 98 98 97 96 97 96 94 96 97 97 98 95 92 84
43 63 66 67 67 79 96 96 95 98 94 94 96 95 95 96 95 96 97 98 98 98 97 96 96 96 95 95 97 97 96 97 96 96 95 92 91 95 95 96 96 95 93
44 62 61 61 62 66 91 96 95 96 95 93 92 94 94 97 96 92 95 93 94 94 96 97 98 98 98 97 97 99 98 98 97 96 94 92 95 96 94 93 94 99 99
42 60 63 64 65 64 64 80 92 93 93 93 95 95 96 96 96 95 95 93 94 95 97 97 95 95 94 97 98 98 97 98 98 98 97 98 97 97 96 93 93 93 98
44 58 61 65 70 67 73 73 70 84 92 93 91 93 94 94 93 94 93 94 94 94 96 97 94 95 96 96 97 98 97 99 99 98 98 98 98 97 98 97 94 96 94
46 52 60 59 59 70 74 75 64 70 83 96 96 95 91 90 92 93 92 91 91 92 94 94 95 88 84 81 86 93 93 96 97 98 99 99 97 98 98 98 98 98 98
50 57 61 66 67 72 72 76 84 82 90 92 91 87 86 87 89 91 92 90 89 88 84 85 89 84 81 83 89 92 93 94 95 95 98 99 98 99 99 99 99 99 99
63 71 70 72 73 76 81 84 83 84 83 80 83 84 85 86 86 87 83 78 78 80 82 85 86 86 88 88 90 91 93 94 95 96 98 98 99 99 99 99 99 98 98
63 69 73 76 75 79 80 82 79 76 78 77 79 80 81 83 81 77 75 75 78 81 82 80 80 81 83 87 89 90 92 92 92 91 92 95 98 98 98 98 98 97 98
60 65 71 76 78 80 80 80 78 75 75 77 80 81 80 78 79 77 75 75 75 76 78 78 79 81 79 78 90 91 92 92 92 90 89 92 92 91 93 96 96 94 95
59 61 65 67 72 75 76 74 77 76 76 80 80 79 78 78 79 78 78 77 77 78 79 82 84 87 82 81 81 86 94 94 95 96 94 92 88 84 80 82 82 86 92
61 62 65 67 68 70 71 77 78 78 80 81 79 78 79 81 81 80 80 81 85 87 90 90 90 93 93 83 83 96 100 100 100 100 98 87 84 83 84 80 79 78 76
61 60 63 65 67 69 70 73 75 78 82 82 80 79 82 83 84 84 86 89 91 91 93 94 94 94 95 85 87 89 99 99 96 93 88 86 84 82 80 77 81 80 73
70 69 67 66 68 69 70 72 76 79 80 80 81 80 83 88 88 90 92 92 93 94 95 95 94 96 95 86 86 90 95 95 92 87 85 83 85 80 72 78 82 81 80
68 68 68 72 70 71 71 73 77 80 82 80 79 81 86 89 90 92 94 94 94 96 94 96 97 93 96 85 86 85 88 89 87 80 86 78 77 79 70 74 76 78 84
71 72 74 76 77 76 72 74 76 79 77 76 80 86 88 90 90 94 96 97 96 95 96 98 96 94 94 91 82 81 79 82 83 85 84 83 77 72 66 65 73 76 82
75 75 78 80 80 79 78 81 83 81 80 84 89 91 91 92 93 95 97 98 95 96 98 98 98 96 92 87 83 81 76 72 82 86 84 79 72 60 51 57 51 53 68
72 73 77 79 82 82 83 88 88 85 87 89 91 92 93 94 94 95 95 97 96 96 97 99 99 96 90 87 86 83 75 62 75 73 72 77 69 68 59 57 53 56 75
81 79 78 81 86 85 86 89 88 88 89 91 92 91 92 91 88 89 89 91 93 94 97 98 98 96 91 86 89 91 81 67 69 68 75 73 72 68 72 62 65 81 76
82 87 90 89 87 86 87 83 79 78 84 88 91 88 89 90 91 90 88 88 85 90 95 94 94 95 93 86 76 83 79 79 65 71 77 83 79 78 75 72 66 77 82
85 88 87 85 85 88 90 90 85 85 85 88 90 90 91 91 94 95 94 86 86 84 85 84 89 88 84 78 80 77 75 70 64 74 75 76 80 77 74 71 68 75 74

GFSMW_sfc_rhum_108.txt.gz
RH
62 63 87 92 94 92 92 91 96 96 95 97 98 96 95 94 94 90 75 74 68 71 75 80 82 85 83 86 84 85 86 90 90 87 85 82 76 76 76 75 80 79 80
64 69 92 92 95 95 91 91 88 94 93 93 94 95 98 99 98 97 85 78 73 75 73 74 76 80 84 84 85 85 91 86 89 89 94 90 82 92 84 89 82 85 84
69 66 86 90 95 94 94 90 95 97 97 96 97 96 97 99 100 98 98 96 90 84 82 82 78 80 82 82 85 85 85 90 94 85 83 95 92 94 90 90 92 88 91
68 68 78 85 91 91 92 94 95 92 98 97 97 96 94 96 98 99 99 99 97 95 91 90 90 85 87 87 85 83 85 86 90 93 86 91 90 93 87 90 90 88 87
72 62 70 70 81 91 93 96 98 98 99 98 98 98 98 99 99 99 99 99 99 98 98 98 98 98 96 96 94 95 93 90 90 89 94 95 96 93 94 95 92 85 83
46 48 74 82 95 95 97 98 98 99 99 98 97 97 98 99 99 99 99 99 99 99 99 98 99 99 99 99 98 97 98 96 97 97 98 95 94 97 98 98 95 92 90
59 71 77 89 96 97 99 99 99 98 99 98 97 96 96 96 96 97 98 99 99 99 99 98 98 98 98 98 98 98 99 99 99 98 98 97 95 95 96 97 97 97 97
69 70 71 82 94 97 98 98 98 99 98 96 96 96 96 97 97 97 98 98 98 97 96 97 97 97 97 97 98 99 99 99 99 98 98 97 97 98 97 95 96 99 99
66 75 74 71 79 97 98 97 97 96 95 94 95 96 96 96 95 95 94 96 94 95 96 97 97 96 96 97 97 98 99 99 98 98 98 97 93 96 96 97 97 96 99
55 75 68 69 69 86 92 97 94 92 92 92 94 94 95 95 94 95 95 94 94 94 96 97 96 95 97 97 98 98 98 98 98 98 98 97 98 99 99 99 98 97 96
51 68 67 69 65 73 79 86 86 94 96 95 95 96 96 95 95 95 95 94 94 94 96 96 96 96 96 94 96 96 96 98 97 98 99 99 98 99 99 99 99 99 99
52 66 63 72 80 82 79 76 76 82 92 96 96 96 96 96 96 96 94 93 94 93 92 92 92 88 88 88 90 92 95 96 96 95 97 97 98 99 99 100 99 100 99
72 76 80 73 80 84 82 84 88 90 94 95 95 95 93 93 93 93 92 89 87 87 89 86 87 90 88 87 92 92 93 94 95 96 97 97 98 99 99 99 99 99 99
80 86 86 86 87 89 90 90 90 89 86 90 91 92 92 92 90 88 87 86 86 88 88 88 88 86 87 88 91 91 92 93 94 94 94 94 97 99 99 99 99 98 99
73 78 84 89 89 88 90 88 85 84 84 85 87 88 89 88 87 86 86 86 85 85 84 83 85 85 81 81 89 92 92 93 93 92 92 90 91 92 93 98 98 98 98
69 72 77 78 85 88 85 80 82 82 82 85 84 84 84 84 85 85 85 85 85 85 85 87 87 88 86 82 82 87 94 94 95 96 94 93 90 87 82 85 87 90 97
69 70 74 75 77 80 79 82 82 84 84 84 84 82 83 84 84 84 85 87 88 88 90 90 90 92 93 83 85 94 100 100 100 98 97 92 84 85 88 84 84 84 83
65 66 68 70 72 76 77 79 80 84 85 84 82 83 85 86 87 88 89 90 91 92 93 92 93 94 95 84 81 83 97 99 98 96 95 88 86 82 83 80 84 84 73
68 66 66 68 72 73 75 76 78 82 83 84 84 84 85 89 90 90 91 92 93 94 94 95 95 96 95 86 81 89 95 96 94 88 86 84 85 83 76 79 84 83 84
73 74 75 72 73 76 74 77 81 85 85 83 83 85 88 89 90 91 93 94 94 94 97 97 97 93 96 87 82 86 95 95 94 86 85 82 81 82 76 74 76 79 86
78 77 78 81 82 80 76 77 80 84 82 82 83 87 89 90 91 93 95 96 96 97 97 97 95 96 94 91 84 80 91 94 92 88 87 85 81 81 76 70 73 67 79
80 80 84 85 84 82 80 82 83 80 81 85 88 90 91 93 94 95 96 97 97 98 98 98 98 97 94 87 88 82 82 77 85 88 86 82 82 81 69 62 63 60 74
74 76 79 83 86 86 86 87 88 87 88 91 92 92 93 94 95 96 97 98 98 98 98 99 99 98 95 89 85 85 82 80 82 80 80 76 75 68 62 59 52 58 79
86 82 82 85 87 87 88 91 89 88 89 90 92 94 94 95 94 95 93 95 97 98 98 99 98 98 96 93 88 90 94 82 77 72 79 77 79 75 76 67 67 78 76
86 90 91 90 89 88 89 88 85 84 88 86 90 90 92 91 91 91 93 92 89 91 96 96 96 97 97 91 86 86 92 89 77 73 83 89 85 80 80 77 70 84 86
88 90 89 86 86 87 89 90 89 87 84 85 87 88 89 90 94 95 93 86 88 86 87 87 90 92 85 83 84 84 81 82 86 78 79 82 87 84 80 76 72 72 78

GFSMW_sfc_rhum_111.txt.gz
RH
75 69 66 82 88 81 95 92 92 93 94 96 96 95 94 93 91 87 78 85 80 81 83 85 89 89 89 88 90 91 91 92 92 90 88 86 81 79 82 80 85 84 87
75 69 71 94 94 88 90 93 95 96 93 93 91 90 93 98 96 96 86 78 79 80 78 81 83 82 85 88 86 86 92 89 91 90 94 91 82 91 84 87 81 84 89
78 74 69 81 98 92 92 91 94 96 96 95 97 99 98 98 99 98 98 94 83 82 80 79 76 79 80 83 86 88 86 90 94 88 83 94 90 95 91 91 94 91 94
79 79 67 75 95 90 98 96 98 98 97 96 94 94 93 93 95 95 99 98 91 87 89 85 81 81 88 88 86 84 87 86 88 95 87 90 89 94 90 91 91 89 91
79 74 68 69 87 97 98 99 95 98 97 96 96 98 99 98 98 99 99 99 99 97 96 96 96 92 92 92 91 94 94 93 92 91 95 96 96 93 94 95 91 84 82
73 71 69 77 88 97 99 99 98 98 95 96 97 94 94 93 96 99 98 98 98 99 99 99 98 98 98 97 96 96 97 95 96 98 98 95 96 96 97 98 96 92 85
78 61 75 82 95 97 99 99 98 99 98 98 96 94 93 96 96 97 98 99 99 100 99 99 99 99 99 99 99 98 98 98 98 96 96 97 97 96 95 96 97 98 96
74 49 75 86 94 97 99 99 98 97 95 99 99 98 97 98 98 98 98 99 99 98 98 99 98 98 96 96 97 98 99 98 99 98 99 100 99 99 98 98 99 98 99
50 70 86 93 96 98 99 98 99 97 99 98 98 98 98 98 98 97 97 98 96 96 97 96 97 97 97 97 97 98 98 98 98 98 98 99 98 99 98 99 97 97 97
57 82 83 88 95 97 98 98 98 99 98 97 96 97 96 96 96 96 96 95 94 93 94 96 97 96 96 97 98 98 97 98 98 98 99 98 99 99 99 99 99 99 98
51 74 77 81 88 94 98 99 98 98 98 96 96 96 97 95 95 95 94 94 92 91 94 96 98 98 97 98 99 99 98 98 98 96 98 97 96 98 98 99 99 99 100
52 76 77 79 82 90 95 96 97 97 97 97 96 96 96 96 96 96 96 94 94 94 95 96 97 96 94 92 93 95 95 94 95 96 97 96 98 98 98 99 99 99 99
57 79 79 77 80 87 89 90 89 94 97 97 97 97 97 96 96 96 93 92 92 93 92 93 93 93 91 90 87 88 90 93 95 95 96 96 97 98 99 99 99 99 99
79 85 85 82 87 86 87 88 90 93 96 96 97 97 95 94 94 88 87 91 90 92 93 92 92 91 92 92 93 92 93 92 94 93 93 94 95 96 98 99 99 99 99
86 88 91 90 92 92 92 92 92 92 93 94 94 94 93 93 92 91 91 91 90 90 90 90 90 89 88 88 92 92 94 94 93 93 94 94 92 90 91 98 98 99 99
79 85 88 90 92 91 91 88 89 89 88 90 90 90 91 91 91 91 91 90 90 90 90 90 90 92 93 85 88 95 98 98 99 98 96 94 92 91 84 83 86 92 99
78 79 82 86 88 86 86 86 86 88 89 88 88 88 88 88 88 89 89 90 90 90 92 92 92 94 94 85 87 94 100 100 100 100 98 96 89 90 91 82 83 83 83
74 77 82 83 84 85 85 87 88 88 89 89 88 88 87 88 89 90 90 91 92 92 93 94 94 94 95 84 82 84 96 98 96 95 94 92 92 88 87 82 85 87 83
75 74 76 77 80 81 84 86 88 89 89 89 88 88 88 90 91 91 92 92 93 94 94 94 94 94 94 86 80 86 94 97 95 91 89 85 85 79 80 81 84 85 87
82 79 78 78 80 84 83 84 88 88 88 88 87 88 89 90 91 91 93 94 93 93 96 96 96 93 96 88 80 86 95 96 96 92 90 83 83 78 80 78 77 82 86
82 81 82 84 86 81 79 80 83 86 84 83 85 89 90 91 90 93 94 95 95 96 97 98 96 96 95 95 85 84 90 90 92 95 93 91 79 80 81 77 74 70 76
83 82 85 88 87 86 81 82 83 82 83 87 88 90 91 92 93 94 96 96 97 98 98 98 98 97 95 87 86 85 84 83 88 90 87 84 76 82 81 77 72 66 73
80 81 82 82 85 88 87 87 86 86 86 89 90 91 93 94 95 96 97 98 98 98 98 99 99 98 96 91 84 85 83 83 92 86 81 77 75 80 80 62 59 54 78
87 81 81 85 86 88 89 91 90 89 90 91 93 94 94 95 96 96 96 97 98 98 99 99 99 97 97 96 93 87 92 92 92 78 82 79 80 79 80 72 68 74 76
90 91 91 90 89 89 90 89 88 89 90 91 92 94 95 95 95 94 93 92 94 94 97 96 97 97 97 94 88 87 92 96 91 83 80 83 91 93 89 84 76 83 86
84 90 90 87 87 88 89 91 91 89 89 91 89 90 91 91 96 95 93 87 89 86 88 88 91 94 87 84 84 84 86 86 84 91 80 81 92 94 88 83 80 76 76

GFSMW_sfc_rhum_114.txt.gz
RH
60 65 72 79 94 98 87 91 94 94 95 96 97 97 97 97 96 93 89 87 85 89 92 91 92 93 88 86 91 94 93 95 94 92 90 89 86 85 84 81 88 88 92
65 66 71 79 97 89 96 90 92 95 93 92 92 91 92 95 93 94 92 92 90 89 86 90 90 89 90 94 93 90 95 93 94 93 94 92 81 86 89 88 82 84 86
72 67 74 77 87 97 97 97 85 93 91 89 91 95 96 97 97 97 94 91 89 88 85 86 85 87 88 90 91 88 89 93 96 90 84 93 90 90 91 93 93 91 94
80 71 76 73 81 97 98 96 97 95 94 93 93 94 93 96 95 93 95 97 91 90 90 89 88 89 90 93 89 84 90 90 92 97 88 89 82 90 87 89 90 88 92
80 72 77 72 89 95 98 99 96 98 96 97 94 97 97 99 99 99 98 98 96 96 96 92 91 95 96 92 95 94 91 94 94 92 97 96 96 93 93 90 88 83 82
86 80 79 75 92 99 98 96 97 99 98 97 99 97 95 98 100 99 99 99 99 99 98 98 98 98 97 95 95 95 96 97 97 97 97 96 97 97 98 98 95 93 88
82 78 82 76 97 99 96 94 96 95 98 99 99 99 99 97 98 98 99 99 99 99 99 99 99 98 98 98 98 98 98 98 99 99 99 96 96 98 98 98 98 98 97
87 74 67 71 95 99 98 93 94 97 95 99 98 95 95 96 97 94 95 97 97 94 98 98 98 98 99 99 99 99 99 98 98 98 99 99 99 99 99 99 99 99 99
74 71 60 76 94 98 99 95 95 95 97 98 98 98 95 95 97 94 96 99 99 99 99 99 99 98 98 96 96 98 97 98 97 98 98 98 98 99 99 99 99 99 99
65 64 72 81 96 98 99 99 98 98 99 99 99 99 99 98 98 98 98 98 98 98 97 98 97 98 97 98 98 98 97 98 98 98 98 99 99 99 99 99 99 99 99
46 56 78 86 98 99 99 99 99 99 99 98 98 98 98 97 97 97 97 96 94 94 94 95 97 98 98 98 99 98 98 97 97 95 93 93 93 96 97 97 98 99 100
48 63 80 88 96 99 99 99 99 98 98 97 97 97 97 97 97 97 97 95 95 95 95 97 98 98 97 96 97 98 96 95 94 94 93 95 96 97 98 99 99 100 99
52 72 84 87 92 96 98 98 98 99 98 96 96 97 98 97 98 98 97 96 95 95 94 96 96 95 91 88 87 89 90 90 93 95 95 96 95 97 98 96 99 99 99
78 77 84 88 89 93 94 94 96 98 98 97 97 98 97 97 97 95 94 94 94 95 96 95 94 93 90 90 91 92 93 94 95 94 94 95 96 97 98 97 97 98 99
83 86 88 92 93 92 94 94 96 97 97 98 98 97 96 95 95 94 94 94 93 94 93 94 93 91 89 88 93 93 94 94 94 94 94 94 93 89 89 97 98 98 99
83 87 92 91 93 93 93 94 94 93 94 95 95 95 92 94 94 94 94 93 94 93 93 92 92 95 96 90 89 93 98 99 99 100 99 95 91 91 84 86 88 92 99
82 83 89 92 93 90 88 91 91 91 91 92 93 93 92 92 93 93 92 93 93 92 94 94 94 96 96 90 95 93 99 99 100 100 97 96 91 90 92 84 81 81 80
83 83 86 86 89 89 89 90 90 91 90 91 92 91 90 88 90 92 92 93 93 94 95 95 94 96 96 85 85 90 95 96 96 95 94 93 92 89 91 89 89 89 86
83 83 85 83 88 86 89 90 91 91 90 91 91 90 90 91 92 92 93 93 94 94 94 95 94 94 95 86 82 91 96 95 95 93 92 92 91 79 80 88 88 88 89
89 86 85 86 86 88 88 87 90 90 89 90 89 90 90 91 91 92 93 94 93 94 97 97 96 89 95 86 80 86 96 95 96 92 88 82 88 78 81 82 79 83 85
87 88 90 92 92 86 86 86 87 86 86 88 89 90 91 91 91 93 94 95 96 97 97 98 97 96 95 94 85 80 94 92 92 92 91 87 80 80 82 81 76 72 74
86 85 89 91 91 90 84 86 85 85 86 88 89 90 92 94 94 94 96 96 96 97 99 98 98 97 97 89 86 83 86 86 91 92 88 85 77 77 82 82 77 66 71
85 85 86 87 91 92 90 87 89 87 87 90 90 91 93 95 95 96 97 98 98 98 99 99 99 99 96 96 85 84 83 83 94 89 85 77 76 76 86 78 62 58 86
90 86 86 88 90 91 92 92 91 90 90 91 92 94 94 96 96 96 96 97 98 98 98 100 99 96 96 95 93 93 93 87 94 90 89 80 79 82 87 82 70 78 86
91 92 90 88 90 90 91 91 89 89 91 91 93 94 94 95 96 96 96 97 94 92 96 96 96 96 97 94 89 91 96 95 93 93 84 84 87 91 92 93 85 84 86
86 87 87 89 90 89 91 93 94 92 90 92 94 95 96 96 96 96 94 88 88 87 89 87 90 94 88 84 84 85 86 84 86 96 88 87 87 87 86 90 90 85 82

GFSMW_sfc_rhum_117.txt.gz
RH
61 67 63 66 88 96 98 94 94 94 93 96 97 97 95 90 87 82 76 80 77 79 79 79 77 77 74 72 71 74 75 75 72 69 67 66 64 64 62 58 55 60 64
67 70 66 67 85 94 94 93 94 94 92 91 87 89 90 94 88 87 78 75 78 80 78 76 77 77 76 74 77 75 77 75 75 71 73 73 61 63 66 64 61 58 60
70 68 69 72 84 97 99 97 97 96 91 91 91 91 92 95 95 94 91 87 82 83 79 78 75 75 74 79 79 77 76 76 78 71 68 78 71 68 66 72 69 65 61
73 70 77 73 82 96 97 93 89 98 93 94 94 94 93 95 88 90 90 92 85 84 84 84 80 79 84 80 80 79 81 79 81 85 76 78 68 72 68 76 74 73 80
74 77 74 71 84 98 96 91 87 96 98 98 94 96 94 90 86 90 89 89 89 85 85 86 86 88 88 85 85 90 87 84 85 82 86 82 83 79 91 81 85 71 79
81 81 75 70 97 98 96 95 94 93 92 98 99 95 98 98 97 95 94 93 92 91 88 90 90 94 91 91 95 91 85 87 87 85 84 87 93 93 95 96 93 91 87
79 79 69 88 96 95 97 94 94 99 97 98 97 99 99 99 99 96 96 98 98 98 98 95 96 96 92 93 97 96 96 92 89 91 96 98 99 98 98 99 99 99 99
85 82 66 84 95 95 91 86 90 97 97 98 99 98 98 99 99 100 98 99 99 99 98 99 98 98 99 98 97 97 97 99 99 98 98 98 97 98 98 98 99 99 99
88 77 72 84 95 92 90 86 86 92 97 99 99 98 98 98 98 99 99 99 98 99 99 98 98 98 98 98 98 99 96 90 91 90 89 89 90 98 98 95 98 98 99
84 78 87 84 95 93 93 89 87 86 94 98 99 98 97 98 99 98 98 99 98 98 98 98 97 99 98 97 92 90 89 90 92 94 94 95 93 94 94 97 97 99 99
56 72 78 90 97 96 97 98 94 97 98 98 98 98 98 98 98 98 98 98 96 97 97 96 93 94 94 93 93 92 90 91 95 90 88 87 83 87 86 90 90 89 92
54 72 76 90 97 99 99 97 97 96 96 97 96 98 96 95 96 96 95 93 94 90 89 91 93 92 92 93 95 97 94 91 88 87 86 87 81 82 85 90 93 94 86
60 76 76 86 95 98 97 97 96 96 94 95 95 96 96 94 94 94 92 89 93 94 95 96 96 93 91 89 88 84 83 83 83 86 80 80 78 82 86 85 92 92 90
75 74 79 79 88 94 96 97 96 93 93 94 94 96 95 93 92 91 90 88 85 89 90 89 88 84 81 81 81 82 81 82 81 83 83 82 83 84 85 85 84 85 81
81 85 84 84 85 88 90 94 97 96 94 95 95 96 94 90 87 86 86 86 84 85 85 84 82 81 81 81 80 81 81 83 85 86 84 85 86 88 84 85 84 85 88
80 86 88 87 86 86 88 91 93 96 94 96 95 92 90 88 86 85 86 82 84 82 80 80 81 85 89 87 86 85 88 90 89 96 91 85 85 83 84 83 85 83 89
80 83 87 88 87 86 85 86 87 87 88 90 90 88 86 86 85 83 82 83 81 79 82 84 85 91 93 93 92 95 98 100 100 97 91 87 81 81 78 80 79 78 80
78 80 81 81 82 81 82 82 81 82 85 87 88 87 85 86 86 86 84 85 84 83 85 86 89 93 91 88 91 93 90 91 89 86 84 81 80 78 80 77 78 76 74
81 81 80 80 81 80 80 80 82 82 82 85 85 85 84 87 86 86 88 87 88 90 92 91 92 94 92 88 88 88 86 88 86 82 80 79 78 78 81 79 81 72 74
83 81 81 81 78 81 78 78 81 80 82 82 83 84 86 86 87 86 91 91 88 90 91 91 88 88 88 87 84 86 84 83 81 81 77 80 82 80 81 77 76 77 71
85 83 83 85 86 79 77 80 81 81 81 82 82 87 86 87 86 87 88 89 91 91 91 93 92 89 87 84 84 86 83 81 80 80 80 78 80 79 80 81 76 72 63
84 83 84 86 87 86 79 81 83 84 84 84 85 87 86 87 86 85 88 87 87 88 89 91 92 87 87 88 85 84 86 84 82 82 79 76 77 77 79 84 81 73 68
83 83 82 83 86 88 86 83 89 84 84 86 86 86 88 89 87 85 88 89 87 87 94 96 96 94 90 83 87 85 83 85 90 84 82 81 79 77 81 84 78 62 70
91 87 85 86 88 88 89 90 87 84 83 85 88 88 88 88 87 87 86 86 90 89 90 96 97 93 89 88 84 84 83 85 90 92 91 87 80 81 83 85 72 67 66
86 87 86 86 85 86 88 89 88 84 85 85 88 88 87 88 89 89 87 86 83 85 87 89 90 92 91 87 83 85 86 85 86 91 87 86 87 89 88 88 80 69 67
86 85 84 83 84 83 85 86 87 89 85 86 89 88 88 88 90 89 88 88 88 89 88 86 86 91 85 82 83 84 86 85 86 96 91 87 86 86 83 84 85 78 75